[[{"header":{"parameterUnit":"m.s-1","parameterCategory":1,"la1":30.6,"la2":28.766,"lo1":-90.7593,"lo2":-88.6598,"dx":0.0162,"dy":0.0183,"nx":116,"ny":114,"refTime":"2023-02-03T06:00:00:Z","depth":0,"parameterNumber":2,"parameterNumberName":"U-component_of_WINDS"},"data":[0.0,0.0,0.0,0.0,0.0,0.0,0.0,0.0,0.0,0.0,0.0,0.0,0.0,0.0,0.0,0.0,0.0,0.0,0.0,0.0,0.0,0.0,0.0,0.0,0.0,0.0,0.0,0.0,0.0,0.0,0.0,0.0,0.0,0.0,0.0,0.0,0.0,0.0,0.0,0.0,0.0,0.0,0.0,0.0,0.0,0.0,0.0,0.0,0.0,0.0,0.0,0.0,0.0,0.0,0.0,0.0,0.0,0.0,0.0,0.0,0.0,0.0,0.0,0.0,0.0,0.0,0.0,0.0,0.0,0.0,0.0,0.0,0.0,0.0,0.0,0.0,0.0,0.0,0.0,0.0,0.0,0.0,0.0,0.0,0.0,0.0,0.0,0.0,0.0,0.0,0.0,0.0,0.0,0.0,0.0,0.0,0.0,0.0,0.0,0.0,0.0,0.0,0.0,0.0,0.0,0.0,0.0,0.0,0.0,0.0,0.0,0.0,0.0,0.0,0.0,0.0,0.0,0.0,0.0,0.0,0.0,0.0,0.0,0.0,0.0,0.0,0.0,0.0,0.0,0.0,0.0,0.0,0.0,0.0,0.0,0.0,0.0,0.0,0.0,0.0,0.0,0.0,0.0,0.0,0.0,0.0,0.0,0.0,0.0,0.0,0.0,0.0,0.0,0.0,0.0,0.0,0.0,0.0,0.0,0.0,0.0,0.0,0.0,0.0,0.0,0.0,0.0,0.0,0.0,0.0,0.0,0.0,0.0,0.0,0.0,0.0,0.0,0.0,0.0,0.0,0.0,0.0,0.0,0.0,0.0,0.0,0.0,0.0,0.0,0.0,0.0,0.0,0.0,0.0,0.0,0.0,0.0,0.0,0.0,0.0,0.0,0.0,0.0,0.0,0.0,0.0,0.0,0.0,0.0,0.0,0.0,0.0,0.0,0.0,0.0,0.0,0.0,0.0,0.0,0.0,0.0,0.0,0.0,0.0,0.0,0.0,0.0,0.0,0.0,0.0,0.0,0.0,0.0,0.0,0.0,0.0,0.0,0.0,0.0,0.0,0.0,0.0,0.0,0.0,0.0,0.0,0.0,0.0,0.0,0.0,0.0,0.0,0.0,0.0,0.0,0.0,0.0,0.0,0.0,0.0,0.0,0.0,0.0,0.0,0.0,0.0,0.0,0.0,0.0,0.0,0.0,0.0,0.0,0.0,0.0,0.0,0.0,0.0,0.0,0.0,0.0,0.0,0.0,0.0,0.0,0.0,0.0,0.0,0.0,0.0,0.0,0.0,0.0,0.0,0.0,0.0,0.0,0.0,0.0,0.0,0.0,0.0,0.0,0.0,0.0,0.0,0.0,0.0,0.0,0.0,0.0,0.0,0.0,0.0,0.0,0.0,0.0,0.0,0.0,0.0,0.0,0.0,0.0,0.0,0.0,0.0,0.0,0.0,0.0,0.0,0.0,0.0,0.0,0.0,0.0,0.0,0.0,0.0,0.0,0.0,0.0,0.0,0.0,0.0,0.0,0.0,0.0,0.0,0.0,0.0,0.0,0.0,0.0,0.0,0.0,0.0,0.0,0.0,0.0,0.0,0.0,0.0,0.0,0.0,0.0,0.0,0.0,0.0,0.0,0.0,0.0,0.0,0.0,0.0,0.0,0.0,0.0,0.0,0.0,0.0,0.0,0.0,0.0,0.0,0.0,0.0,0.0,0.0,0.0,0.0,0.0,0.0,0.0,0.0,0.0,0.0,0.0,0.0,0.0,0.0,0.0,0.0,0.0,0.0,0.0,0.0,0.0,0.0,0.0,0.0,0.0,0.0,0.0,0.0,0.0,0.0,0.0,0.0,0.0,0.0,0.0,0.0,0.0,0.0,0.0,0.0,0.0,0.0,0.0,0.0,0.0,0.0,0.0,0.0,0.0,0.0,0.0,0.0,0.0,0.0,0.0,0.0,0.0,0.0,0.0,0.0,0.0,0.0,0.0,0.0,0.0,0.0,0.0,0.0,0.0,0.0,0.0,0.0,0.0,0.0,0.0,0.0,0.0,0.0,0.0,0.0,0.0,0.0,0.0,0.0,0.0,0.0,0.0,0.0,0.0,0.0,0.0,0.0,0.0,0.0,0.0,0.0,0.0,0.0,0.0,0.0,0.0,0.0,0.0,0.0,0.0,0.0,0.0,0.0,0.0,0.0,0.0,0.0,0.0,0.0,0.0,0.0,0.0,0.0,0.0,0.0,0.0,0.0,0.0,0.0,0.0,0.0,0.0,0.0,0.0,0.0,0.0,0.0,0.0,0.0,0.0,0.0,0.0,0.0,0.0,0.0,0.0,0.0,0.0,0.0,0.0,0.0,0.0,0.0,0.0,0.0,0.0,0.0,0.0,0.0,0.0,0.0,0.0,0.0,0.0,0.0,0.0,0.0,0.0,0.0,0.0,0.0,0.0,0.0,0.0,0.0,0.0,0.0,0.0,0.0,0.0,0.0,0.0,0.0,0.0,0.0,0.0,0.0,0.0,0.0,0.0,0.0,0.0,0.0,0.0,0.0,0.0,0.0,0.0,0.0,0.0,0.0,0.0,0.0,0.0,0.0,0.0,0.0,0.0,0.0,0.0,0.0,0.0,0.0,0.0,0.0,0.0,0.0,0.0,0.0,0.0,0.0,0.0,0.0,0.0,0.0,0.0,0.0,0.0,0.0,0.0,0.0,0.0,0.0,0.0,0.0,0.0,0.0,0.0,0.0,0.0,0.0,0.0,0.0,0.0,0.0,0.0,0.0,0.0,0.0,0.0,0.0,0.0,0.0,0.0,0.0,0.0,0.0,0.0,0.0,0.0,0.0,0.0,0.0,0.0,0.0,0.0,0.0,0.0,0.0,0.0,0.0,0.0,0.0,0.0,0.0,0.0,0.0,0.0,0.0,0.0,0.0,0.0,0.0,0.0,0.0,0.0,0.0,0.0,0.0,0.0,0.0,0.0,0.0,0.0,0.0,0.0,0.0,0.0,0.0,0.0,0.0,0.0,0.0,0.0,0.0,0.0,0.0,0.0,0.0,0.0,0.0,0.0,0.0,0.0,0.0,0.0,0.0,0.0,0.0,0.0,0.0,0.0,0.0,0.0,0.0,0.0,0.0,0.0,0.0,0.0,0.0,0.0,0.0,0.0,0.0,0.0,0.0,0.0,0.0,0.0,0.0,0.0,0.0,0.0,0.0,0.0,0.0,0.0,0.0,0.0,0.0,0.0,0.0,0.0,0.0,0.0,0.0,0.0,0.0,0.0,0.0,0.0,0.0,0.0,0.0,0.0,0.0,0.0,0.0,0.0,0.0,0.0,0.0,0.0,0.0,0.0,0.0,0.0,0.0,0.0,0.0,0.0,0.0,0.0,0.0,0.0,0.0,0.0,0.0,0.0,0.0,0.0,0.0,0.0,0.0,0.0,0.0,0.0,0.0,0.0,0.0,0.0,0.0,0.0,0.0,0.0,0.0,0.0,0.0,0.0,0.0,0.0,0.0,0.0,0.0,0.0,0.0,0.0,0.0,0.0,0.0,0.0,0.0,0.0,0.0,0.0,0.0,0.0,0.0,0.0,0.0,0.0,0.0,0.0,0.0,0.0,0.0,0.0,0.0,0.0,0.0,0.0,0.0,0.0,0.0,0.0,0.0,0.0,0.0,0.0,0.0,0.0,0.0,0.0,0.0,0.0,0.0,0.0,0.0,0.0,0.0,0.0,0.0,0.0,0.0,0.0,0.0,0.0,0.0,0.0,0.0,0.0,0.0,0.0,0.0,0.0,0.0,0.0,0.0,0.0,0.0,0.0,0.0,0.0,0.0,0.0,0.0,0.0,0.0,0.0,0.0,0.0,0.0,0.0,0.0,0.0,0.0,0.0,0.0,0.0,0.0,0.0,0.0,0.0,0.0,0.0,0.0,0.0,0.0,0.0,0.0,0.0,0.0,0.0,0.0,0.0,0.0,0.0,0.0,0.0,0.0,0.0,0.0,0.0,0.0,0.0,0.0,0.0,0.0,0.0,0.0,0.0,0.0,0.0,0.0,0.0,0.0,0.0,0.0,0.0,0.0,0.0,0.0,0.0,0.0,0.0,0.0,0.0,0.0,0.0,0.0,0.0,0.0,0.0,0.0,0.0,0.0,0.0,0.0,0.0,0.0,0.0,0.0,0.0,0.0,0.0,0.0,0.0,0.0,0.0,0.0,0.0,0.0,0.0,0.0,0.0,0.0,0.0,0.0,0.0,0.0,0.0,0.0,0.0,0.0,0.0,0.0,0.0,0.0,0.0,0.0,0.0,0.0,0.0,0.0,0.0,0.0,0.0,0.0,0.0,0.0,0.0,0.0,0.0,0.0,0.0,0.0,0.0,0.0,0.0,0.0,0.0,0.0,0.0,0.0,0.0,0.0,0.0,0.0,0.0,0.0,0.0,0.0,0.0,0.0,0.0,0.0,0.0,0.0,0.0,0.0,0.0,0.0,0.0,0.0,0.0,0.0,0.0,0.0,0.0,0.0,0.0,0.0,0.0,0.0,0.0,0.0,0.0,0.0,0.0,0.0,0.0,0.0,0.0,0.0,0.0,0.0,0.0,0.0,0.0,0.0,0.0,0.0,0.0,0.0,0.0,0.0,0.0,0.0,0.0,0.0,0.0,0.0,0.0,0.0,0.0,0.0,0.0,0.0,0.0,0.0,0.0,0.0,0.0,0.0,0.0,0.0,0.0,0.0,0.0,0.0,0.0,0.0,0.0,0.0,0.0,0.0,0.0,0.0,0.0,0.0,0.0,0.0,0.0,0.0,0.0,0.0,0.0,0.0,0.0,0.0,0.0,0.0,0.0,0.0,0.0,0.0,0.0,0.0,0.0,0.0,0.0,0.0,0.0,0.0,0.0,0.0,0.0,0.0,0.0,0.0,0.0,0.0,0.0,0.0,0.0,0.0,0.0,0.0,0.0,0.0,0.0,0.0,0.0,0.0,0.0,0.0,0.0,0.0,0.0,0.0,0.0,0.0,0.0,0.0,0.0,0.0,0.0,0.0,0.0,0.0,0.0,0.0,0.0,0.0,0.0,0.0,0.0,0.0,0.0,0.0,0.0,0.0,0.0,0.0,0.0,0.0,0.0,0.0,0.0,0.0,0.0,0.0,0.0,0.0,0.0,0.0,0.0,0.0,0.0,0.0,0.0,0.0,0.0,0.0,0.0,0.0,0.0,0.0,0.0,0.0,0.0,0.0,0.0,0.0,0.0,0.0,0.0,0.0,0.0,0.0,0.0,0.0,0.0,0.0,0.0,0.0,0.0,0.0,0.0,0.0,0.0,0.0,0.0,0.0,0.0,0.0,0.0,0.0,0.0,0.0,0.0,0.0,0.0,0.0,0.0,0.0,0.0,0.0,0.0,0.0,0.0,0.0,0.0,0.0,0.0,0.0,0.0,0.0,0.0,0.0,0.0,0.0,0.0,0.0,0.0,0.0,0.0,0.0,0.0,0.0,0.0,0.0,0.0,0.0,0.0,0.0,0.0,0.0,0.0,0.0,0.0,0.0,0.0,0.0,0.0,0.0,0.0,0.0,0.0,0.0,0.0,0.0,0.0,0.0,0.0,0.0,0.0,0.0,0.0,0.0,0.0,0.0,0.0,0.0,0.0,0.0,0.0,0.0,0.0,0.0,0.0,0.0,0.0,0.0,0.0,0.0,0.0,0.0,0.0,0.0,0.0,0.0,0.0,0.0,0.0,0.0,0.0,0.0,0.0,0.0,0.0,0.0,0.0,0.0,0.0,0.0,0.0,0.0,0.0,0.0,0.0,0.0,0.0,0.0,0.0,0.0,0.0,0.0,0.0,0.0,0.0,0.0,0.0,0.0,0.0,0.0,0.0,0.0,0.0,0.0,0.0,0.0,0.0,0.0,0.0,0.0,0.0,0.0,0.0,0.0,0.0,0.0,0.0,0.0,0.0,0.0,0.0,0.0,0.0,0.0,0.0,0.0,0.0,0.0,0.0,0.0,0.0,0.0,0.0,0.0,0.0,0.0,0.0,0.0,0.0,0.0,0.0,0.0,0.0,0.0,0.0,0.0,0.0,0.0,0.0,0.0,0.0,0.0,2.4559,0.0,0.0,0.0,0.0,0.0,0.0,0.0,0.0,0.0,0.0,0.0,0.0,0.0,0.0,0.0,0.0,0.0,0.0,0.0,0.0,0.0,0.0,0.0,0.0,0.0,0.0,0.0,0.0,0.0,0.0,0.0,0.0,0.0,0.0,0.0,0.0,0.0,0.0,0.0,0.0,0.0,0.0,0.0,0.0,0.0,0.0,0.0,0.0,0.0,0.0,0.0,0.0,0.0,0.0,0.0,0.0,0.0,0.0,0.0,0.0,0.0,0.0,0.0,0.0,0.0,0.0,0.0,0.0,0.0,0.0,0.0,0.0,0.0,0.0,0.0,0.0,0.0,0.0,0.0,0.0,0.0,0.0,0.0,0.0,0.0,0.0,0.0,0.0,0.0,0.0,0.0,0.0,0.0,0.0,0.0,0.0,0.0,0.0,0.0,0.0,0.0,0.0,0.0,0.0,0.0,0.0,0.0,0.0,0.0,0.0,0.0,0.0,0.0,0.0,0.0,0.0,2.4149,0.0,0.0,0.0,0.0,0.0,0.0,0.0,0.0,0.0,0.0,0.0,0.0,0.0,0.0,0.0,0.0,0.0,0.0,0.0,0.0,0.0,0.0,0.0,0.0,0.0,0.0,0.0,0.0,0.0,0.0,0.0,0.0,0.0,0.0,0.0,0.0,0.0,0.0,0.0,0.0,0.0,0.0,0.0,0.0,0.0,0.0,0.0,0.0,0.0,0.0,0.0,0.0,0.0,0.0,0.0,0.0,0.0,0.0,0.0,0.0,0.0,0.0,0.0,0.0,0.0,0.0,0.0,0.0,0.0,0.0,0.0,0.0,0.0,0.0,0.0,0.0,0.0,0.0,0.0,0.0,0.0,0.0,0.0,0.0,0.0,0.0,0.0,0.0,0.0,0.0,0.0,0.0,0.0,0.0,0.0,0.0,0.0,0.0,0.0,0.0,0.0,0.0,0.0,0.0,0.0,0.0,0.0,0.0,2.2849,2.3084,2.372,2.3112,2.3293,2.4102,2.3552,2.3448,2.3606,2.346,0.0,0.0,0.0,0.0,0.0,0.0,0.0,0.0,0.0,0.0,0.0,0.0,0.0,0.0,0.0,0.0,0.0,0.0,0.0,0.0,0.0,0.0,0.0,0.0,0.0,0.0,0.0,0.0,0.0,0.0,0.0,0.0,0.0,0.0,0.0,0.0,0.0,0.0,1.968,1.8633,1.782,1.7155,1.5688,0.0,0.0,0.0,0.0,0.0,0.0,0.0,0.0,0.0,0.0,0.0,0.0,0.0,0.0,0.0,0.0,0.0,0.0,0.0,0.0,0.0,0.0,0.0,0.0,0.0,0.0,0.0,0.0,0.0,0.0,0.0,0.0,0.0,0.0,0.0,0.0,0.0,0.0,0.0,0.0,0.0,0.0,0.0,2.6195,2.5976,0.0,0.0,0.0,0.0,0.0,0.0,0.0,0.0,0.0,0.0,0.0,0.0,0.0,2.2945,2.3654,2.3055,2.2949,2.339,2.2028,2.194,2.2977,2.2173,2.2122,2.2656,2.2398,0.0,2.4058,2.3533,0.0,0.0,0.0,0.0,0.0,0.0,0.0,0.0,0.0,0.0,0.0,0.0,0.0,0.0,0.0,0.0,0.0,0.0,0.0,0.0,0.0,0.0,0.0,0.0,0.0,0.0,0.0,0.0,0.0,0.0,0.0,0.0,0.0,0.0,0.0,0.0,1.9386,2.0391,2.1721,2.0908,2.0209,1.9551,1.8672,1.7103,1.5184,1.576,0.0,0.0,0.0,0.0,0.0,0.0,0.0,0.0,0.0,0.0,0.0,0.0,0.0,0.0,0.0,0.0,0.0,0.0,0.0,0.0,0.0,0.0,0.0,0.0,0.0,0.0,0.0,0.0,0.0,0.0,0.0,0.0,0.0,0.0,0.0,0.0,0.0,0.0,0.0,2.5893,2.5632,2.3777,2.3829,2.2789,0.0,0.0,0.0,0.0,0.0,0.0,0.0,0.0,0.0,1.9681,1.9574,2.0353,2.2209,2.1528,2.1389,2.1839,2.0742,2.0663,2.15,2.088,2.1188,2.2164,2.2179,2.2815,2.3812,2.3128,2.316,2.3671,0.0,0.0,0.0,0.0,2.4231,2.3799,0.0,0.0,0.0,0.0,0.0,0.0,0.0,0.0,0.0,0.0,0.0,0.0,0.0,0.0,0.0,1.885,0.0,0.0,0.0,0.0,0.0,0.0,0.0,0.0,0.0,0.0,0.0,0.0,2.0906,2.1789,2.3048,2.2452,2.1784,2.1094,2.0829,1.9125,1.6503,1.7316,1.7081,0.0,0.0,0.0,0.0,0.0,0.0,0.0,0.0,0.0,0.0,0.0,0.0,0.0,0.0,0.0,0.0,0.0,0.0,0.0,0.0,0.0,0.0,0.0,0.0,0.0,0.0,0.0,0.0,0.0,0.0,0.0,0.0,0.0,0.0,0.0,0.0,0.0,0.0,2.5523,2.5033,2.1711,2.2398,2.1785,0.0,0.0,0.0,0.0,0.0,0.0,1.45,1.4041,1.5202,1.8194,1.7806,1.8634,2.094,2.0381,2.0323,2.081,2.0006,2.0006,2.0723,2.0316,2.0811,2.193,2.2018,2.2513,2.323,2.2766,2.2867,2.3307,2.3226,2.3419,2.3806,2.455,2.4257,2.3549,0.0,0.0,0.0,0.0,0.0,0.0,0.0,0.0,0.0,0.0,0.0,0.0,0.0,0.0,2.1787,2.1015,2.0841,2.0255,0.0,0.0,0.0,0.0,0.0,0.0,0.0,0.0,0.0,2.0871,2.2026,2.2713,2.2895,2.2345,2.1853,2.1379,2.1181,2.0129,1.8569,1.9016,1.8589,1.7585,0.0,0.0,0.0,0.0,0.0,0.0,0.0,0.0,0.0,0.0,0.0,0.0,0.0,0.0,0.0,0.0,0.0,0.0,0.0,0.0,0.0,0.0,0.0,0.0,0.0,0.0,0.0,0.0,0.0,0.0,0.0,0.0,0.0,0.0,0.0,0.0,0.0,0.0,0.0,2.1003,2.3612,0.0,0.0,0.0,0.0,1.4958,1.4774,1.5471,1.7099,1.6685,1.741,1.9538,1.9677,2.0083,2.0801,2.053,2.0718,2.1356,2.0423,2.0581,2.173,2.1029,2.1144,2.1799,2.1704,2.1894,2.2409,2.2691,2.3269,2.3884,2.3406,2.3625,2.4215,2.374,2.3284,2.2853,0.0,0.0,0.0,0.0,0.0,0.0,0.0,0.0,0.0,0.0,0.0,0.0,0.0,2.1601,2.2208,2.1432,2.0711,2.0185,1.9871,0.0,0.0,0.0,0.0,0.0,0.0,0.0,2.061,2.1214,2.1658,2.2167,2.2771,2.2495,2.2192,2.1919,2.1715,2.0941,1.9841,2.0362,1.981,1.8584,1.8574,1.8218,0.0,0.0,0.0,0.0,0.0,0.0,0.0,0.0,0.0,0.0,0.0,0.0,0.0,0.0,0.0,0.0,0.0,0.0,0.0,0.0,0.0,0.0,0.0,0.0,0.0,0.0,0.0,0.0,0.0,0.0,0.0,0.0,0.0,0.0,0.0,0.0,0.0,2.1179,2.2194,0.0,1.7674,1.8337,1.8442,1.7002,1.718,1.7716,1.8493,1.7897,1.8363,2.0206,1.9889,2.0118,2.1056,2.054,2.0361,2.0597,1.9874,1.9961,2.0746,2.0337,2.0548,2.122,2.1291,2.1773,2.2401,2.2257,2.2672,2.3406,2.334,2.3556,2.3888,2.3502,2.3204,2.2964,0.0,0.0,0.0,0.0,0.0,0.0,0.0,0.0,0.0,0.0,0.0,2.0819,2.0162,2.0967,2.1254,2.05,1.9586,1.9027,1.8948,0.0,0.0,0.0,0.0,0.0,0.0,1.9652,2.0079,2.0751,2.1082,2.1591,2.226,2.2187,2.2064,2.1893,2.1752,2.125,2.0564,2.1497,2.0948,1.9455,1.9718,1.942,1.8838,0.0,0.0,0.0,0.0,0.0,0.0,0.0,0.0,0.0,0.0,0.0,0.0,0.0,0.0,0.0,0.0,0.0,0.0,0.0,0.0,0.0,0.0,0.0,0.0,0.0,0.0,0.0,0.0,0.0,0.0,0.0,0.0,0.0,0.0,0.0,2.4001,2.0271,2.1412,2.1394,1.8428,1.9221,1.9711,1.9108,1.9312,1.9562,1.9735,1.9098,1.9347,2.0715,2.02,2.0349,2.112,2.0765,2.059,2.0639,2.0271,2.0335,2.0784,2.0731,2.088,2.1215,2.1389,2.1682,2.2128,2.1863,2.2283,2.3103,2.3111,2.3246,2.339,2.3269,2.305,2.2717,0.0,0.0,0.0,0.0,0.0,0.0,0.0,0.0,0.0,0.0,1.8379,1.8872,1.867,1.8999,1.8965,1.8331,1.759,1.6895,1.6324,1.6853,0.0,0.0,0.0,0.0,1.8875,1.8947,1.9154,1.9488,2.0402,2.1023,2.1339,2.1414,2.1388,2.1269,2.1269,2.1058,2.0794,2.2394,2.1936,2.0201,2.0839,2.0985,2.075,0.0,0.0,0.0,0.0,0.0,0.0,0.0,0.0,0.0,0.0,0.0,0.0,0.0,0.0,0.0,0.0,0.0,0.0,0.0,0.0,0.0,0.0,0.0,0.0,0.0,0.0,0.0,0.0,0.0,0.0,0.0,0.0,0.0,2.0038,2.2831,2.3335,1.8462,2.1627,2.3313,2.1087,2.1814,2.2044,2.1087,2.0915,2.0809,2.0781,2.0435,2.0425,2.0998,2.0897,2.0897,2.0998,2.125,2.1406,2.1493,2.1746,2.1911,2.1924,2.2252,2.2233,2.1965,2.1938,2.177,2.1505,2.1753,2.2325,2.3104,2.2733,2.2735,2.2917,2.3037,2.2746,2.2096,0.0,0.0,0.0,0.0,0.0,0.0,0.0,0.0,0.0,0.0,1.7503,1.7811,1.7512,1.7695,1.7802,1.7655,1.6542,1.5869,1.5988,0.0,0.0,0.0,0.0,0.0,1.8248,1.8644,1.8911,1.9052,1.9509,1.9819,1.9957,2.0279,2.04,2.036,2.0558,2.0511,2.036,2.2021,2.2274,2.1597,2.2149,2.2116,2.1692,0.0,0.0,0.0,0.0,0.0,0.0,0.0,0.0,0.0,0.0,0.0,0.0,0.0,0.0,0.0,0.0,0.0,0.0,0.0,0.0,0.0,0.0,0.0,0.0,0.0,0.0,0.0,0.0,0.0,0.0,0.0,0.0,2.2985,2.2416,2.3106,2.3238,2.1963,2.2918,2.3234,2.2102,2.2437,2.2421,2.156,2.1093,2.0772,2.0488,2.0416,2.0592,2.1151,2.147,2.1645,2.1807,2.1865,2.1768,2.1648,2.1648,2.1975,2.2683,2.2269,2.2395,2.3014,2.2711,2.2817,2.3151,2.2665,2.2978,2.373,2.3387,2.3382,2.3572,2.3107,2.2381,2.1636,0.0,0.0,0.0,0.0,0.0,0.0,0.0,0.0,0.0,0.0,1.7062,1.7159,1.6788,1.6772,1.6783,1.6688,1.5726,1.5022,1.4892,0.0,0.0,0.0,0.0,1.7688,1.7664,1.8031,1.834,1.8572,1.8823,1.9095,1.932,1.9656,1.9851,1.9874,2.0108,2.0175,2.0235,2.1574,2.2214,2.2397,2.3079,2.3198,2.2928,2.2617,2.2428,2.2342,2.257,2.264,2.2635,2.284,0.0,0.0,0.0,0.0,0.0,0.0,0.0,0.0,0.0,0.0,0.0,0.0,0.0,0.0,0.0,0.0,0.0,0.0,0.0,0.0,0.0,0.0,0.0,0.0,2.2235,2.2898,2.3201,2.3505,2.354,2.3011,2.3367,2.347,2.2997,2.3071,2.2935,2.2474,2.2339,2.2037,2.14,2.1776,2.1983,2.1838,2.2371,2.2552,2.2437,2.2767,2.2896,2.2731,2.2801,2.3154,2.3683,2.3114,2.3089,2.3572,2.3282,2.3339,2.3568,2.2953,2.3214,0.0,0.0,0.0,0.0,0.0,2.2659,2.2182,0.0,0.0,0.0,0.0,0.0,0.0,0.0,0.0,0.0,0.0,0.0,1.6759,1.6329,1.6045,1.5773,1.5567,1.4929,1.4241,0.0,0.0,0.0,1.5627,1.6473,1.6959,1.7024,1.7219,1.7505,1.7945,1.8251,1.8645,1.9081,1.9401,1.9567,1.9632,1.9783,1.9977,2.0211,2.1116,2.1979,2.2803,2.3659,2.4091,2.4185,2.4014,2.3803,2.3621,2.3782,2.3713,2.3561,2.3842,0.0,0.0,0.0,0.0,0.0,0.0,0.0,0.0,0.0,0.0,0.0,0.0,0.0,0.0,0.0,0.0,0.0,0.0,0.0,0.0,0.0,0.0,0.0,0.0,2.1731,2.2721,2.3127,2.4064,2.4175,2.2614,2.3267,2.3777,2.3766,2.3638,2.3575,2.3601,2.4005,2.387,2.2911,0.0,0.0,0.0,0.0,2.358,2.3156,2.3927,2.434,2.434,2.4661,2.4783,2.4832,2.4458,2.4155,2.3939,2.3939,2.377,2.3443,2.311,2.3376,2.3999,2.3079,2.2867,2.3035,2.3067,2.3201,2.3231,0.0,0.0,0.0,0.0,0.0,0.0,0.0,0.0,0.0,1.6747,1.6564,1.6271,1.5654,1.4872,1.4468,1.4547,1.362,1.3148,0.0,0.0,1.4881,1.5195,1.605,1.6338,1.6002,1.6443,1.6754,1.6963,1.7625,1.8069,1.8307,1.8855,1.912,1.9151,1.9501,1.9736,1.9955,2.0979,2.1978,2.2932,2.3746,2.4385,2.4832,2.4842,2.4828,2.4782,2.4812,2.487,2.4908,2.4804,2.4968,2.5154,2.4942,0.0,0.0,0.0,0.0,0.0,0.0,0.0,0.0,0.0,0.0,0.0,0.0,0.0,0.0,0.0,0.0,0.0,0.0,0.0,0.0,2.2341,2.3636,2.4432,2.4356,2.4953,2.4887,2.3579,2.3617,2.3829,2.4144,2.414,2.414,2.4128,2.4239,2.4202,2.3993,2.3887,2.399,2.4392,2.418,2.4354,2.4848,2.5013,2.5203,2.5342,0.0,0.0,2.5814,2.5572,2.5387,2.5316,2.5316,2.5222,2.5039,2.4643,2.4566,2.4552,2.3898,2.3656,2.3644,2.3227,2.3201,2.3304,0.0,0.0,0.0,0.0,0.0,0.0,0.0,0.0,0.0,0.0,1.6793,1.6385,1.5623,1.5136,1.4721,1.4383,1.3387,0.0,0.0,1.3703,1.4197,1.4684,1.5305,1.5689,1.5787,1.6008,1.6235,1.6512,1.714,1.7659,1.8017,1.8422,1.8664,1.8841,1.957,1.9991,2.022,2.1378,2.245,2.3429,2.3961,2.4573,2.5195,2.5245,2.5206,2.5152,2.5236,2.5249,2.5246,2.5169,2.5279,2.5421,2.5283,2.5312,2.5383,0.0,0.0,0.0,0.0,0.0,0.0,0.0,0.0,0.0,0.0,0.0,0.0,0.0,0.0,2.1431,0.0,0.0,2.2349,2.3607,2.4635,2.527,2.5133,2.5561,2.5525,2.4634,2.4747,2.5073,2.544,2.5503,2.5627,2.5754,2.5585,2.5378,2.5103,2.5287,2.5279,2.5039,2.518,2.5294,2.5484,2.5832,2.6115,2.6306,2.6293,2.6419,2.6658,2.6414,2.6143,2.5914,2.6435,2.6461,2.6106,2.5776,2.5269,2.4757,2.4486,2.4355,2.4326,2.4163,2.3965,2.3806,0.0,0.0,0.0,0.0,0.0,0.0,0.0,0.0,0.0,0.0,1.7076,1.6628,1.5881,1.5681,1.527,0.0,0.0,0.0,0.0,1.3716,1.4174,1.4874,1.5257,1.5622,1.6082,1.6062,1.6215,1.6555,1.7135,1.7642,1.8103,1.8374,1.8631,1.8933,1.9861,2.0426,2.0739,2.1764,2.2833,2.3831,2.3987,2.4549,2.5286,2.5247,2.5211,2.5212,2.5274,2.5264,2.5216,2.5255,2.5313,2.5357,2.5347,2.5351,2.5331,2.5161,2.5108,0.0,0.0,0.0,0.0,0.0,0.0,0.0,0.0,0.0,2.4763,2.4476,2.362,2.3122,2.3557,2.3976,2.44,2.4766,2.5467,2.5973,2.5973,2.622,2.6309,2.5962,2.6257,2.6652,2.684,2.6972,2.7056,2.7246,2.6911,2.6604,2.6146,2.6598,2.6473,2.5781,2.6116,2.6259,2.6074,2.6673,2.7038,2.7218,2.7346,2.7397,2.7498,2.7277,2.6977,2.6665,2.739,2.7453,2.706,2.6883,2.628,2.5575,2.5575,2.5625,2.5617,2.5219,2.4802,2.4545,0.0,0.0,0.0,0.0,0.0,0.0,0.0,0.0,0.0,0.0,0.0,0.0,0.0,0.0,0.0,0.0,0.0,0.0,1.5429,1.573,1.6223,1.7037,1.7218,1.7148,1.6788,1.714,1.7362,1.7443,1.8173,1.863,1.8784,1.931,1.9673,1.9952,2.0373,2.083,2.1316,2.1703,2.2518,2.3549,2.3507,2.4049,2.4847,2.4672,2.4851,2.5191,2.4998,2.5057,2.5205,2.5205,2.521,2.5209,2.5144,2.5004,2.4873,2.4854,0.0,2.4782,2.4879,2.4596,2.4431,2.5236,2.5297,2.5484,0.0,0.0,2.5974,2.5877,2.5265,2.4867,2.539,2.5572,2.5733,2.6014,2.6775,2.7274,2.7274,2.7326,2.7535,2.7978,2.7821,2.7621,2.7487,2.7697,2.7588,2.7071,2.6982,2.6918,2.6854,2.6511,2.6567,2.7261,2.6844,2.7026,2.7814,2.788,2.7973,2.7986,2.7986,2.822,2.863,2.8561,2.8519,2.8408,2.8223,2.8097,2.8083,2.8309,2.8417,2.8437,2.8437,2.8492,2.8336,2.5991,2.5177,2.526,0.0,0.0,0.0,0.0,0.0,0.0,0.0,0.0,0.0,0.0,0.0,0.0,0.0,0.0,0.0,0.0,0.0,0.0,1.5579,1.5786,1.6319,1.7395,1.7233,1.7185,1.7356,1.7393,1.7471,1.7652,1.8145,1.8589,1.8898,1.9334,1.9658,1.9976,2.0915,2.1502,2.1786,2.2585,2.3235,2.3727,2.3793,2.4048,2.4381,2.421,2.4266,2.445,2.4601,2.4723,0.0,0.0,2.4734,2.4732,2.462,2.4524,2.4444,2.4349,2.4296,0.0,2.3914,2.4223,0.0,0.0,2.5756,2.6264,2.7114,2.7125,2.7014,2.6909,2.6722,2.6645,2.6849,2.7276,2.7393,0.0,2.7734,2.8252,2.7921,2.8039,2.8273,2.8373,2.863,2.8568,2.7952,2.7983,2.788,2.7498,2.7395,2.7268,2.7268,2.7314,2.7499,2.7868,2.7643,2.7748,2.8183,2.8249,2.8262,2.8406,2.8587,2.8766,2.9022,2.9401,2.9619,2.976,2.9261,2.8987,2.9045,2.929,2.9227,2.8917,2.8987,2.9098,2.9099,2.758,2.6846,2.657,0.0,0.0,0.0,0.0,0.0,0.0,0.0,0.0,0.0,0.0,0.0,0.0,0.0,0.0,0.0,0.0,0.0,0.0,0.0,1.6066,1.6701,1.7982,1.7691,1.772,1.8216,1.8066,1.807,1.8272,1.8713,1.9092,1.9429,1.9878,2.0212,2.0505,2.16,2.2157,2.2341,2.3227,2.3678,2.3803,2.3871,2.3912,2.3912,2.3803,2.3738,2.3801,2.4118,2.4246,0.0,0.0,2.4137,2.4008,2.3971,2.3895,2.3795,2.3645,2.3581,2.3504,2.3235,0.0,0.0,2.528,2.6036,2.6791,2.7364,2.7805,2.7979,2.7825,2.7933,2.8091,2.8203,2.8588,2.8776,2.8231,2.8759,2.9106,2.8625,2.865,2.8686,2.8562,2.8855,2.8842,2.8203,2.8239,2.8183,2.7877,2.7771,2.7669,2.7669,2.7947,2.8145,2.8131,2.8131,2.8249,2.8495,2.8495,2.8624,2.8908,2.9099,2.9289,2.9415,2.9974,3.0341,3.0553,3.0148,2.9944,2.9944,3.0134,2.9971,2.9572,2.9684,2.9811,2.9918,2.9247,2.8553,2.804,0.0,0.0,0.0,0.0,0.0,0.0,0.0,0.0,0.0,0.0,0.0,0.0,0.0,0.0,0.0,0.0,0.0,0.0,0.0,1.7324,1.8081,1.9288,1.9457,1.953,1.9545,1.9645,1.9737,1.9737,2.0382,2.0731,2.0764,2.1488,2.1915,2.2124,2.2429,2.2756,2.3084,2.3236,2.3382,2.3522,2.3437,2.3459,2.3482,2.3371,2.336,2.3412,2.3584,0.0,0.0,0.0,2.3527,2.3087,2.3263,2.3152,0.0,2.2626,2.2651,0.0,0.0,0.0,2.3664,2.4977,2.5766,2.6506,2.7567,2.8494,2.9017,2.8554,2.8773,2.9114,2.9402,2.9373,2.9486,2.9956,2.991,2.9854,2.9771,2.9291,2.8958,2.889,2.8465,2.8132,0.0,2.8558,2.8651,2.8146,2.8092,2.8079,2.8079,2.8079,2.8131,2.83,2.8287,2.856,2.9099,2.9099,2.9226,2.954,2.9602,2.9741,3.005,3.0401,3.0568,3.0628,3.0747,3.0732,3.0792,3.0984,3.1146,3.1218,3.1218,3.1349,3.1332,3.0702,3.0058,2.952,0.0,0.0,0.0,0.0,0.0,0.0,0.0,0.0,0.0,0.0,0.0,0.0,0.0,0.0,0.0,0.0,0.0,0.0,0.0,1.7987,1.8316,1.8897,1.9612,1.9995,1.9995,2.005,2.0454,2.1252,2.105,2.1263,2.1859,2.237,2.2408,2.2084,2.2909,2.3096,2.2842,2.2876,2.33,2.3847,2.3295,2.34,2.3847,2.3263,2.3045,2.3077,0.0,0.0,0.0,0.0,0.0,0.0,2.2651,0.0,0.0,2.1955,0.0,0.0,0.0,0.0,2.3718,2.5131,2.5858,2.6696,2.8575,2.9362,2.978,2.9937,2.9863,2.9636,2.9174,2.9478,2.9652,2.9182,2.9916,3.0351,2.97,2.9672,2.9429,2.8572,2.8732,0.0,0.0,0.0,0.0,2.8092,2.8197,2.8235,2.8235,2.8327,2.8522,2.883,2.883,2.9022,2.9415,2.9415,2.9477,2.9602,2.9803,3.0111,3.0462,3.0582,3.0642,3.0762,3.0762,3.0895,3.1014,3.1176,3.1234,3.1278,3.1409,3.1467,3.1452,3.127,3.1046,3.0746,0.0,0.0,0.0,0.0,0.0,0.0,0.0,0.0,0.0,0.0,0.0,0.0,0.0,0.0,0.0,0.0,0.0,0.0,0.0,0.0,1.9028,1.9428,2.0061,2.0429,2.0429,2.0429,2.0782,2.1593,2.1311,2.1503,2.2101,2.2554,2.2543,2.2175,2.2881,2.3052,2.2816,2.2816,2.3223,2.3804,2.3212,2.3266,2.3685,2.3059,2.2825,0.0,0.0,0.0,0.0,0.0,0.0,0.0,0.0,0.0,0.0,0.0,0.0,0.0,0.0,2.2783,2.3917,2.507,2.6138,2.7222,2.8596,2.9803,3.0643,3.0421,3.0434,3.0192,2.9394,2.986,2.9967,2.8807,2.991,3.0551,2.9528,2.9496,2.9308,2.8655,2.9089,0.0,0.0,0.0,0.0,2.8781,2.8872,2.8988,2.9053,2.9416,2.9638,2.9609,2.9595,2.9785,3.0114,2.9902,2.9851,2.9974,3.0158,3.0401,3.0568,3.0642,3.0702,3.0821,3.094,3.1058,3.119,3.1292,3.1351,3.1409,3.1467,3.1482,3.1482,3.1482,3.1482,3.1362,0.0,0.0,0.0,0.0,0.0,0.0,0.0,0.0,0.0,0.0,0.0,0.0,0.0,0.0,0.0,0.0,0.0,0.0,0.0,0.0,0.0,2.0715,2.0811,2.0827,2.0827,2.0827,2.0843,2.0907,2.1324,2.157,2.1603,2.2214,2.2456,2.2432,2.2549,2.2746,2.302,2.3003,2.3175,2.3417,2.3199,2.3112,2.3098,2.2834,0.0,0.0,0.0,0.0,0.0,0.0,0.0,0.0,0.0,0.0,0.0,0.0,0.0,2.1424,2.1934,2.3056,2.4228,2.4852,2.6527,2.7901,2.7667,2.9778,3.1381,3.0102,3.0411,3.069,0.0,0.0,3.0397,2.8862,2.9882,3.0533,2.9348,2.894,2.8848,0.0,0.0,0.0,0.0,0.0,0.0,3.0211,0.0,3.0192,3.0516,3.1171,3.1228,3.0608,3.0552,3.068,3.104,3.0454,3.0337,3.0626,3.0597,3.0628,3.0628,3.0762,3.0821,3.0821,3.1176,3.1278,3.1351,3.1467,3.1482,3.1482,3.1482,3.1482,3.1482,3.1482,3.1539,3.1539,0.0,0.0,0.0,0.0,0.0,0.0,0.0,0.0,0.0,0.0,0.0,0.0,0.0,0.0,0.0,0.0,0.0,0.0,0.0,0.0,0.0,0.0,0.0,0.0,0.0,0.0,0.0,0.0,0.0,2.2208,2.2992,2.3244,2.3202,2.2944,2.3502,2.3544,2.3151,2.3182,2.3474,2.39,0.0,2.341,2.3498,0.0,0.0,0.0,0.0,0.0,0.0,0.0,0.0,0.0,0.0,0.0,1.9959,0.0,0.0,2.1361,2.1943,2.2995,2.4082,2.4684,2.5599,2.671,2.7897,2.837,2.8846,3.0048,2.9212,2.8368,0.0,0.0,0.0,2.9352,3.0249,0.0,3.082,3.0769,0.0,0.0,0.0,3.0811,3.0271,3.0998,0.0,0.0,3.1523,3.1124,3.1256,3.1425,3.157,3.1596,3.1112,3.1289,3.2124,3.1488,3.1156,3.1279,3.0921,3.0762,3.0762,3.0955,3.1073,3.1176,3.1278,3.1351,3.1467,3.1482,3.1482,3.1482,3.1482,3.1482,3.1482,3.1482,3.1597,3.1727,0.0,0.0,0.0,0.0,0.0,0.0,0.0,0.0,0.0,0.0,0.0,0.0,0.0,0.0,0.0,0.0,0.0,0.0,0.0,0.0,0.0,0.0,0.0,0.0,0.0,0.0,0.0,0.0,0.0,0.0,0.0,2.2971,2.3,2.2927,2.338,2.3463,2.333,2.3359,0.0,0.0,0.0,0.0,0.0,0.0,0.0,0.0,0.0,0.0,0.0,0.0,0.0,2.165,2.1938,2.1366,2.0708,2.1333,0.0,2.1735,2.2087,2.3333,2.4528,2.4606,2.5941,2.7365,2.7933,2.8498,2.9083,2.9733,2.8887,0.0,0.0,0.0,0.0,0.0,0.0,0.0,3.0545,3.0509,3.0524,0.0,3.1047,0.0,3.1382,3.2212,3.3054,0.0,3.2762,3.225,3.2382,3.2639,3.2734,3.2673,3.2299,3.2283,3.2655,3.215,3.2009,3.2167,3.1538,3.1291,3.1336,3.125,3.1234,3.1278,0.0,3.1409,3.1482,3.1482,3.1482,3.1482,3.1482,3.1482,3.1539,3.1597,3.1727,3.1784,0.0,0.0,0.0,0.0,0.0,0.0,0.0,0.0,0.0,0.0,0.0,0.0,0.0,0.0,0.0,0.0,0.0,0.0,0.0,0.0,0.0,0.0,0.0,0.0,0.0,0.0,0.0,0.0,0.0,0.0,0.0,0.0,0.0,0.0,0.0,0.0,0.0,0.0,0.0,0.0,0.0,0.0,0.0,0.0,0.0,0.0,0.0,0.0,0.0,0.0,2.2927,2.2439,2.3305,2.276,2.1931,2.2514,2.258,2.2535,2.2623,2.4029,2.5353,2.4823,2.6737,2.8553,2.7749,2.9025,3.0108,2.9134,0.0,0.0,2.785,0.0,2.9622,2.7527,0.0,3.1223,2.9717,2.9647,3.0035,3.0988,3.1647,3.2225,3.2503,3.3686,3.4495,3.4751,3.379,3.335,3.3717,3.4153,3.4124,3.3485,3.3609,3.3427,3.2913,3.2771,3.2884,3.314,3.2335,3.2044,3.2047,3.1664,3.1425,3.1351,3.1467,0.0,3.1482,3.1482,3.1539,3.1539,3.1539,3.1539,3.1597,3.1784,3.1841,3.1841,0.0,0.0,0.0,0.0,0.0,0.0,0.0,0.0,0.0,0.0,0.0,0.0,0.0,0.0,0.0,0.0,0.0,0.0,0.0,0.0,0.0,0.0,0.0,0.0,0.0,0.0,0.0,0.0,0.0,0.0,0.0,0.0,0.0,0.0,0.0,0.0,0.0,0.0,0.0,0.0,0.0,0.0,0.0,0.0,0.0,0.0,0.0,0.0,0.0,0.0,2.3736,2.3338,2.3347,2.29,2.2454,2.2893,2.332,2.3806,2.4381,2.55,2.6441,2.6135,2.6751,2.7439,2.7373,2.7237,0.0,0.0,0.0,2.7674,2.7817,2.8516,0.0,2.9088,0.0,0.0,0.0,0.0,3.0678,0.0,0.0,0.0,0.0,0.0,0.0,0.0,0.0,3.4404,3.5078,3.4632,3.4124,3.3485,3.4126,3.4215,3.3542,3.3671,3.38,3.3785,3.3277,3.2761,3.2227,3.2288,3.1989,3.1467,3.1482,0.0,3.1482,3.1482,3.1597,3.1727,3.1727,3.1841,3.194,3.194,3.2053,3.215,0.0,0.0,0.0,0.0,0.0,0.0,0.0,0.0,0.0,0.0,0.0,0.0,0.0,0.0,0.0,0.0,0.0,0.0,0.0,0.0,0.0,0.0,0.0,0.0,0.0,0.0,0.0,0.0,0.0,0.0,0.0,0.0,0.0,0.0,0.0,0.0,0.0,0.0,0.0,0.0,0.0,0.0,0.0,0.0,0.0,0.0,0.0,0.0,0.0,0.0,2.5076,2.4797,2.4691,2.4089,2.3553,2.4076,2.4426,2.4689,2.4979,2.6001,2.6942,2.6687,2.7199,2.781,2.786,0.0,0.0,0.0,0.0,2.7375,2.7533,0.0,0.0,0.0,0.0,0.0,0.0,0.0,0.0,0.0,0.0,0.0,0.0,0.0,0.0,0.0,0.0,3.5241,3.4893,3.4656,3.4418,3.4112,3.4589,3.4721,3.4478,3.4463,3.4543,3.4753,3.4085,3.3657,3.3421,3.3124,3.2662,3.2048,3.2048,0.0,3.2018,3.1616,3.2002,3.2749,3.2056,3.211,3.2513,3.2612,3.2669,3.2772,0.0,0.0,0.0,0.0,0.0,0.0,0.0,0.0,0.0,0.0,0.0,0.0,0.0,0.0,0.0,0.0,0.0,0.0,0.0,0.0,0.0,0.0,0.0,0.0,0.0,0.0,0.0,0.0,0.0,0.0,0.0,0.0,0.0,0.0,0.0,0.0,0.0,0.0,0.0,0.0,0.0,0.0,0.0,0.0,0.0,0.0,0.0,0.0,0.0,0.0,2.6346,2.6089,2.6089,2.5447,2.4792,2.5132,2.5581,2.598,2.5933,2.6873,2.7839,2.7479,2.8036,2.8581,2.8442,2.8201,0.0,0.0,0.0,2.7587,2.7617,0.0,0.0,0.0,0.0,0.0,0.0,0.0,0.0,0.0,0.0,0.0,0.0,0.0,0.0,0.0,0.0,0.0,3.4729,3.482,3.4829,3.4765,3.4883,3.5001,3.5213,3.5082,3.5213,3.5489,3.4658,3.4256,3.4247,3.3724,3.314,3.2527,3.2677,0.0,0.0,3.2227,3.275,3.3774,3.273,3.2755,3.3313,3.3429,3.3472,3.3548,0.0,0.0,0.0,0.0,0.0,0.0,0.0,0.0,0.0,0.0,0.0,0.0,0.0,0.0,0.0,0.0,0.0,0.0,0.0,0.0,0.0,0.0,0.0,0.0,0.0,0.0,0.0,0.0,0.0,0.0,0.0,0.0,0.0,0.0,0.0,0.0,0.0,0.0,0.0,0.0,0.0,0.0,0.0,0.0,0.0,0.0,0.0,0.0,0.0,0.0,0.0,2.6633,2.6633,2.6398,2.599,2.5235,0.0,0.0,2.856,2.9384,3.0134,2.95,2.9308,2.9166,2.855,0.0,0.0,0.0,2.8105,2.8358,2.8817,0.0,0.0,0.0,0.0,0.0,0.0,0.0,0.0,0.0,0.0,0.0,0.0,0.0,0.0,0.0,0.0,0.0,3.5531,3.5517,3.5321,3.4883,3.5082,3.5148,3.5213,3.5359,3.5439,3.5489,3.4801,3.4158,3.3589,3.3529,3.314,3.2542,3.3352,0.0,0.0,3.3773,3.3923,3.4134,3.4012,3.413,3.4383,3.4383,3.4368,3.4383,0.0,0.0,0.0,0.0,0.0,0.0,0.0,0.0,0.0,0.0,0.0,0.0,0.0,0.0,0.0,0.0,0.0,0.0,0.0,0.0,0.0,0.0,0.0,0.0,0.0,0.0,0.0,0.0,0.0,0.0,0.0,0.0,0.0,0.0,0.0,0.0,0.0,0.0,0.0,0.0,0.0,0.0,0.0,0.0,0.0,0.0,0.0,0.0,0.0,0.0,0.0,0.0,2.7163,2.7246,0.0,0.0,2.693,2.8509,2.8795,2.981,3.0534,2.9816,2.9512,2.9243,2.855,0.0,0.0,2.8521,2.8553,2.8666,2.9159,2.9451,2.9723,0.0,0.0,0.0,0.0,0.0,0.0,0.0,0.0,0.0,0.0,0.0,0.0,0.0,0.0,0.0,3.599,3.5592,3.5267,3.5082,3.5294,3.5359,3.5359,3.5439,3.5504,3.5504,3.5235,3.4951,3.4711,3.4808,3.4495,3.3878,3.4348,0.0,0.0,3.4152,3.4562,3.5324,3.4514,3.4572,3.5076,3.5076,3.5076,3.5137,0.0,0.0,0.0,0.0,0.0,0.0,0.0,0.0,0.0,0.0,0.0,0.0,0.0,0.0,0.0,0.0,0.0,0.0,0.0,0.0,0.0,0.0,0.0,0.0,0.0,0.0,0.0,0.0,0.0,0.0,0.0,0.0,0.0,0.0,0.0,0.0,0.0,0.0,0.0,0.0,0.0,0.0,0.0,0.0,0.0,0.0,0.0,0.0,0.0,0.0,0.0,0.0,0.0,0.0,0.0,0.0,2.7419,2.8777,2.9343,3.0214,3.0892,3.0309,2.9894,2.9535,0.0,0.0,2.8445,2.8915,2.8951,2.9092,2.9833,3.0051,3.0175,3.0441,0.0,0.0,0.0,0.0,0.0,0.0,0.0,0.0,0.0,0.0,0.0,0.0,0.0,0.0,3.5941,3.5532,3.5294,3.5294,3.5439,3.5504,3.5504,3.5504,3.5504,3.5504,3.5295,3.519,3.5205,3.5353,3.5145,3.4708,3.5169,0.0,0.0,3.4897,3.537,3.6182,3.5232,3.5355,3.6076,3.6076,3.6199,3.6445,0.0,0.0,0.0,0.0,0.0,0.0,0.0,0.0,0.0,0.0,0.0,0.0,0.0,0.0,0.0,0.0,0.0,0.0,0.0,0.0,0.0,0.0,0.0,0.0,0.0,0.0,0.0,0.0,0.0,0.0,0.0,0.0,0.0,0.0,0.0,0.0,0.0,0.0,0.0,0.0,0.0,0.0,0.0,0.0,0.0,0.0,0.0,0.0,0.0,0.0,0.0,0.0,0.0,0.0,0.0,0.0,2.8462,3.008,3.0635,3.1151,3.1557,3.142,3.0889,3.0228,0.0,0.0,2.8991,2.9006,2.9328,2.9928,3.107,3.06,3.0469,0.0,0.0,0.0,0.0,0.0,0.0,0.0,0.0,0.0,0.0,0.0,0.0,0.0,0.0,0.0,3.5273,3.5359,3.5504,3.5504,3.5504,3.5504,3.5504,3.5504,3.5504,3.5489,3.4816,3.4487,3.4487,3.466,3.4708,0.0,0.0,0.0,0.0,3.6399,3.6476,3.6492,3.6476,3.6892,3.7477,3.7477,3.7908,3.8477,0.0,0.0,0.0,0.0,0.0,0.0,0.0,0.0,0.0,0.0,0.0,0.0,0.0,0.0,0.0,0.0,0.0,0.0,0.0,0.0,0.0,0.0,0.0,0.0,0.0,0.0,0.0,0.0,0.0,0.0,0.0,0.0,0.0,0.0,0.0,0.0,0.0,0.0,0.0,0.0,0.0,0.0,0.0,0.0,0.0,0.0,0.0,0.0,0.0,0.0,0.0,0.0,0.0,0.0,0.0,0.0,0.0,0.0,2.9834,3.0758,3.1356,3.0325,3.0228,3.012,2.8981,0.0,2.9128,2.9598,3.0313,3.0989,3.1349,3.1515,3.1545,0.0,0.0,0.0,0.0,0.0,0.0,0.0,0.0,0.0,0.0,0.0,0.0,0.0,0.0,0.0,3.5439,3.5439,3.5504,3.5504,3.5504,3.5504,3.5504,3.5504,3.5504,3.5504,3.528,3.5224,3.5322,3.5513,3.5639,0.0,0.0,0.0,0.0,3.6492,3.6492,3.6492,3.6492,3.6907,3.7507,3.7507,3.7923,3.8508,0.0,0.0,0.0,0.0,0.0,0.0,0.0,0.0,0.0,0.0,0.0,0.0,0.0,0.0,0.0,0.0,0.0,0.0,0.0,0.0,0.0,0.0,0.0,0.0,0.0,0.0,0.0,0.0,0.0,0.0,0.0,0.0,0.0,0.0,0.0,0.0,0.0,0.0,0.0,0.0,0.0,0.0,0.0,0.0,0.0,0.0,0.0,0.0,0.0,0.0,0.0,0.0,0.0,0.0,0.0,0.0,0.0,0.0,0.0,3.0401,3.0784,3.0551,3.0489,0.0,0.0,0.0,2.9947,3.0615,3.114,3.1616,3.2183,3.2303,3.2243,3.2065,0.0,0.0,0.0,0.0,0.0,0.0,0.0,0.0,0.0,0.0,0.0,0.0,0.0,0.0,3.5878,3.5639,3.5504,3.5504,3.5504,3.5504,3.5504,3.5504,3.5504,3.5604,3.5604,3.5653,3.5831,3.6022,3.6148,0.0,0.0,0.0,0.0,3.6492,3.6492,3.6522,3.6769,3.7292,3.7923,3.8169,3.8692,3.9262,0.0,0.0,0.0,0.0,0.0,0.0,0.0,0.0,0.0,0.0,0.0,0.0,0.0,0.0,0.0,0.0,0.0,0.0,0.0,0.0,0.0,0.0,0.0,0.0,0.0,0.0,0.0,0.0,0.0,0.0,0.0,0.0,0.0,0.0,0.0,0.0,0.0,0.0,0.0,0.0,0.0,0.0,0.0,0.0,0.0,0.0,0.0,0.0,0.0,0.0,0.0,0.0,0.0,0.0,0.0,0.0,0.0,0.0,0.0,0.0,0.0,0.0,0.0,0.0,0.0,0.0,0.0,0.0,3.1875,3.2078,3.3215,3.2899,3.2614,0.0,0.0,0.0,0.0,0.0,0.0,0.0,0.0,0.0,0.0,0.0,0.0,0.0,0.0,0.0,3.6543,3.5863,3.5534,3.5579,3.5579,3.5549,3.5504,3.5549,3.5679,3.5763,3.5872,3.5967,3.6189,3.6285,3.6348,0.0,0.0,0.0,0.0,3.6569,3.6538,3.6553,3.7184,3.7877,3.8585,3.9216,3.9908,4.0524,0.0,0.0,0.0,0.0,0.0,0.0,0.0,0.0,0.0,0.0,0.0,0.0,0.0,0.0,0.0,0.0,0.0,0.0,0.0,0.0,0.0,0.0,0.0,0.0,0.0,0.0,0.0,0.0,0.0,0.0,0.0,0.0,0.0,0.0,0.0,0.0,0.0,0.0,0.0,0.0,0.0,0.0,0.0,0.0,0.0,0.0,2.936,0.0,0.0,0.0,0.0,0.0,0.0,0.0,0.0,0.0,3.1501,0.0,0.0,0.0,0.0,0.0,0.0,0.0,0.0,0.0,0.0,0.0,0.0,3.3574,3.2871,3.344,3.3677,0.0,0.0,0.0,0.0,0.0,0.0,0.0,0.0,0.0,0.0,0.0,0.0,0.0,0.0,3.6712,3.7238,3.6144,3.5744,3.6237,3.6252,3.6064,3.5653,3.6135,3.6522,3.6667,3.7182,3.7557,3.7785,3.7785,3.7835,0.0,0.0,0.0,3.7261,3.7261,3.6953,3.6507,3.6661,3.7461,3.8539,3.8692,3.9508,4.0524,0.0,0.0,0.0,0.0,0.0,0.0,0.0,0.0,0.0,0.0,0.0,0.0,0.0,0.0,0.0,0.0,0.0,0.0,0.0,0.0,0.0,0.0,0.0,0.0,0.0,0.0,0.0,0.0,0.0,0.0,0.0,0.0,0.0,0.0,0.0,0.0,0.0,0.0,0.0,0.0,0.0,0.0,0.0,0.0,0.0,0.0,2.9753,3.0272,0.0,3.1038,3.0559,3.0189,0.0,0.0,0.0,0.0,3.2125,0.0,0.0,0.0,0.0,0.0,0.0,0.0,0.0,0.0,0.0,0.0,0.0,0.0,3.3844,0.0,0.0,0.0,0.0,0.0,0.0,0.0,0.0,0.0,0.0,0.0,0.0,0.0,0.0,0.0,0.0,3.8055,3.8419,3.7182,3.6803,3.7547,3.7597,3.7299,3.6622,3.6969,3.7298,3.7578,3.7943,3.8259,3.8391,3.8391,3.8442,0.0,0.0,0.0,3.7477,3.7169,3.683,3.6553,3.7169,3.7861,3.8585,3.92,3.9893,4.0524,0.0,0.0,0.0,0.0,0.0,0.0,0.0,0.0,0.0,0.0,0.0,0.0,0.0,0.0,0.0,0.0,0.0,0.0,0.0,0.0,0.0,0.0,0.0,0.0,0.0,0.0,0.0,0.0,0.0,0.0,0.0,0.0,0.0,0.0,0.0,0.0,0.0,0.0,0.0,0.0,0.0,0.0,0.0,0.0,0.0,0.0,0.0,0.0,0.0,3.1634,3.114,3.0618,3.1524,0.0,0.0,0.0,0.0,0.0,0.0,0.0,0.0,0.0,0.0,0.0,0.0,0.0,0.0,0.0,0.0,0.0,0.0,0.0,0.0,0.0,0.0,0.0,0.0,0.0,0.0,0.0,0.0,0.0,0.0,0.0,0.0,0.0,0.0,3.9596,3.9796,3.8698,3.8376,3.9056,3.9218,3.9007,3.8385,3.8226,3.8263,3.8478,3.8586,3.8698,3.8816,3.8816,3.8816,3.8785,0.0,0.0,3.7769,3.7184,3.6892,3.6907,3.8061,3.8569,3.88,4.0075,4.0554,4.0646,0.0,0.0,0.0,0.0,0.0,0.0,0.0,0.0,0.0,0.0,0.0,0.0,0.0,0.0,0.0,0.0,0.0,0.0,0.0,0.0,0.0,0.0,0.0,0.0,0.0,0.0,0.0,0.0,0.0,0.0,0.0,0.0,0.0,0.0,0.0,0.0,0.0,0.0,0.0,0.0,0.0,0.0,0.0,0.0,0.0,0.0,0.0,0.0,0.0,3.114,3.0764,3.041,3.0857,0.0,0.0,0.0,0.0,0.0,3.3133,3.2594,0.0,0.0,0.0,0.0,0.0,0.0,0.0,0.0,0.0,0.0,0.0,0.0,0.0,0.0,0.0,0.0,0.0,0.0,0.0,0.0,0.0,0.0,0.0,0.0,0.0,0.0,0.0,4.0044,4.1193,4.0132,3.9755,4.0452,4.061,4.1007,4.1614,4.0495,3.9722,3.9302,3.9871,4.0148,4.0216,4.0216,4.0216,4.0216,0.0,3.9739,3.92,3.9093,3.8723,3.8215,3.8431,3.8862,3.9452,4.0203,4.0839,4.1393,0.0,0.0,0.0,0.0,0.0,0.0,0.0,0.0,0.0,0.0,0.0,0.0,0.0,0.0,0.0,0.0,0.0,0.0,0.0,0.0,0.0,0.0,0.0,0.0,0.0,0.0,0.0,0.0,0.0,0.0,0.0,0.0,0.0,0.0,0.0,0.0,0.0,0.0,0.0,0.0,0.0,0.0,0.0,0.0,0.0,0.0,0.0,0.0,0.0,0.0,3.1044,3.0707,3.1004,0.0,0.0,0.0,0.0,0.0,3.3256,3.2873,0.0,0.0,0.0,0.0,0.0,0.0,0.0,0.0,0.0,0.0,0.0,0.0,0.0,0.0,0.0,0.0,0.0,0.0,0.0,0.0,0.0,0.0,0.0,0.0,0.0,0.0,0.0,0.0,4.2297,4.1604,4.1448,4.2113,4.2281,4.2366,4.2395,4.2134,4.1723,4.1116,4.1068,4.1024,4.1024,4.0646,4.0524,4.0509,0.0,3.9801,3.9493,3.9489,3.9082,3.8539,3.9271,3.9794,4.0172,4.1215,4.1805,4.2141,0.0,0.0,0.0,0.0,0.0,0.0,0.0,0.0,0.0,0.0,0.0,0.0,0.0,0.0,0.0,0.0,0.0,0.0,0.0,0.0,0.0,0.0,0.0,0.0,0.0,0.0,0.0,0.0,0.0,0.0,0.0,0.0,0.0,0.0,0.0,0.0,0.0,0.0,0.0,0.0,0.0,0.0,0.0,0.0,0.0,0.0,0.0,0.0,0.0,0.0,0.0,0.0,0.0,0.0,0.0,0.0,3.1628,3.1378,3.2831,3.2617,3.2038,0.0,0.0,0.0,0.0,0.0,0.0,0.0,0.0,0.0,0.0,0.0,0.0,0.0,0.0,0.0,0.0,0.0,0.0,0.0,0.0,0.0,0.0,0.0,0.0,0.0,0.0,0.0,4.3213,4.2892,4.3031,4.3502,4.3663,4.3529,4.3031,4.3529,4.3333,4.252,4.1949,4.1641,4.1459,4.1142,4.0904,4.0684,4.0344,4.0177,4.0197,4.0214,3.9882,3.9511,4.0594,4.1024,4.134,4.2372,4.2831,4.3092,0.0,0.0,0.0,0.0,0.0,0.0,0.0,0.0,0.0,0.0,0.0,0.0,0.0,0.0,0.0,0.0,0.0,0.0,0.0,0.0,0.0,0.0,0.0,0.0,0.0,0.0,0.0,0.0,0.0,0.0,0.0,0.0,0.0,0.0,0.0,0.0,0.0,0.0,0.0,0.0,0.0,0.0,0.0,0.0,0.0,0.0,0.0,0.0,0.0,0.0,0.0,0.0,0.0,0.0,0.0,0.0,3.1131,3.1483,3.1274,3.1526,3.194,3.2437,0.0,0.0,0.0,0.0,0.0,0.0,0.0,0.0,0.0,0.0,0.0,0.0,0.0,0.0,0.0,0.0,0.0,0.0,0.0,0.0,0.0,0.0,0.0,0.0,0.0,0.0,4.3822,4.4023,4.4179,4.4236,4.444,4.4514,4.4457,4.4514,4.3856,4.252,4.2458,4.2078,4.1525,4.2078,4.2029,4.1459,4.2029,4.2251,4.2314,4.2266,4.225,4.225,4.2298,4.2749,4.331,4.336,4.3856,4.4457,0.0,0.0,0.0,0.0,0.0,0.0,0.0,0.0,0.0,0.0,0.0,0.0,0.0,0.0,0.0,0.0,0.0,0.0,0.0,0.0,0.0,0.0,0.0,0.0,0.0,0.0,0.0,0.0,0.0,0.0,0.0,0.0,0.0,0.0,0.0,0.0,0.0,0.0,0.0,0.0,0.0,0.0,0.0,0.0,0.0,0.0,0.0,0.0,0.0,0.0,3.0959,0.0,0.0,0.0,0.0,0.0,3.0248,3.0624,3.1197,3.1521,0.0,0.0,0.0,0.0,0.0,0.0,0.0,0.0,0.0,0.0,0.0,0.0,0.0,0.0,0.0,0.0,0.0,0.0,0.0,0.0,0.0,0.0,0.0,0.0,0.0,0.0,0.0,0.0,4.4286,4.4457,4.4497,4.4497,4.457,4.4587,4.4587,4.4587,4.431,4.3798,4.3333,4.3015,4.2769,4.2583,4.2332,4.2141,4.2395,4.252,4.252,4.2953,4.2892,4.252,4.2953,4.3257,4.3571,4.403,4.4367,4.4587,0.0,0.0,0.0,0.0,0.0,0.0,0.0,0.0,0.0,0.0,0.0,0.0,0.0,0.0,0.0,0.0,0.0,0.0,0.0,0.0,0.0,0.0,0.0,0.0,0.0,0.0,0.0,0.0,0.0,0.0,0.0,0.0,0.0,0.0,0.0,0.0,0.0,0.0,0.0,0.0,0.0,0.0,0.0,0.0,0.0,0.0,0.0,0.0,0.0,0.0,3.0858,0.0,0.0,0.0,0.0,0.0,2.9689,2.9879,3.0731,3.1076,0.0,0.0,0.0,0.0,0.0,0.0,0.0,0.0,0.0,0.0,0.0,0.0,0.0,0.0,0.0,0.0,0.0,0.0,0.0,0.0,0.0,0.0,0.0,0.0,0.0,0.0,0.0,0.0,0.0,4.457,4.4587,4.4587,4.4587,4.4587,4.4587,4.4587,4.4587,4.457,4.4105,4.3706,4.3512,4.3273,4.3031,4.2831,4.3092,4.3152,4.3213,4.3663,4.3588,4.3213,4.3663,4.3839,4.3914,4.444,4.4587,4.4587,0.0,0.0,0.0,0.0,0.0,0.0,0.0,0.0,0.0,0.0,0.0,0.0,0.0,0.0,0.0,0.0,0.0,0.0,0.0,0.0,0.0,0.0,0.0,0.0,0.0,0.0,0.0,0.0,0.0,0.0,0.0,0.0,0.0,0.0,0.0,0.0,0.0,0.0,0.0,0.0,0.0,0.0,0.0,0.0,0.0,0.0,0.0,0.0,0.0,0.0,2.9897,2.9544,0.0,0.0,0.0,2.9463,2.9484,2.9504,2.9614,3.0043,0.0,0.0,0.0,0.0,0.0,0.0,0.0,0.0,0.0,0.0,0.0,0.0,0.0,0.0,0.0,0.0,0.0,0.0,0.0,0.0,0.0,0.0,0.0,0.0,0.0,0.0,0.0,0.0,0.0,4.4497,4.4587,4.4587,4.4587,4.4587,4.4587,4.4587,4.4587,4.4587,4.4587,4.4236,4.3512,4.4253,4.4179,4.3571,4.4293,4.4587,4.4587,4.4587,4.4587,4.4587,4.4587,4.4587,4.4587,4.4587,4.4587,4.4587,0.0,0.0,0.0,0.0,0.0,0.0,0.0,0.0,0.0,0.0,0.0,0.0,0.0,0.0,0.0,0.0,0.0,0.0,0.0,0.0,0.0,0.0,0.0,0.0,0.0,0.0,0.0,0.0,0.0,0.0,0.0,0.0,0.0,0.0,0.0,0.0,0.0,0.0,0.0,0.0,0.0,0.0,0.0,0.0,0.0,0.0,0.0,0.0,0.0,0.0,0.0,0.0,0.0,0.0,0.0,2.9017,2.9524,3.0226,3.0233,0.0,0.0,0.0,0.0,0.0,0.0,0.0,0.0,0.0,0.0,0.0,0.0,0.0,0.0,0.0,0.0,0.0,0.0,0.0,0.0,0.0,0.0,0.0,0.0,0.0,0.0,0.0,0.0,0.0,0.0,4.457,4.4587,4.4587,4.4587,4.4587,4.4587,4.4587,4.4587,4.4587,4.4587,4.4514,4.4293,4.4514,4.4497,4.431,4.4514,4.4587,4.4587,4.4587,4.4587,4.4587,4.4587,4.4587,4.4587,4.4587,4.4587,4.4587,0.0,0.0,0.0,0.0,0.0,0.0,0.0,0.0,0.0,0.0,0.0,0.0,0.0,0.0,0.0,0.0,0.0,0.0,0.0,0.0,0.0,0.0,0.0,0.0,0.0,0.0,0.0,0.0,0.0,0.0,0.0,0.0,0.0,0.0,0.0,0.0,0.0,0.0,0.0,0.0,0.0,0.0,0.0,0.0,0.0,0.0,0.0,0.0,0.0,0.0,0.0,0.0,0.0,0.0,0.0,2.9012,2.934,2.9804,3.0058,0.0,0.0,0.0,0.0,0.0,0.0,0.0,0.0,0.0,0.0,0.0,0.0,0.0,0.0,0.0,0.0,0.0,0.0,0.0,0.0,0.0,0.0,0.0,0.0,0.0,0.0,0.0,0.0,0.0,0.0,4.4587,4.4587,4.4587,4.4587,4.4587,4.4587,4.4587,4.4587,4.4587,4.4587,4.4587,4.4587,4.4587,4.4587,4.4587,4.4587,4.4587,4.4587,4.4587,4.4587,4.4587,4.4587,4.4587,4.4587,4.4587,4.4587,4.4587,0.0,0.0,0.0,0.0,0.0,0.0,0.0,0.0,0.0,0.0,0.0,0.0,0.0,0.0,0.0,0.0,0.0,0.0,0.0,0.0,0.0,0.0,0.0,0.0,0.0,0.0,0.0,0.0,0.0,0.0,0.0,0.0,0.0,0.0,0.0,0.0,0.0,0.0,0.0,0.0,0.0,0.0,0.0,0.0,0.0,0.0,0.0,0.0,0.0,0.0,0.0,0.0,2.915,2.9139,2.8891,2.949,2.925,0.0,0.0,0.0,0.0,0.0,0.0,0.0,0.0,0.0,0.0,0.0,0.0,0.0,0.0,0.0,0.0,0.0,0.0,0.0,0.0,0.0,0.0,0.0,0.0,0.0,0.0,0.0,0.0,0.0,0.0,0.0,0.0,4.4587,4.4587,4.4587,4.4587,4.4587,4.4587,4.4502,4.4502,4.4587,4.4502,4.4502,4.4587,4.4587,4.4587,4.4587,4.4587,4.4587,4.4587,4.4587,4.4587,4.4587,4.4587,4.4587,4.4587,4.4587,4.4587,4.4587,0.0,0.0,0.0,0.0,0.0,0.0,0.0,0.0,0.0,0.0,0.0,0.0,0.0,0.0,0.0,0.0,0.0,0.0,0.0,0.0,0.0,0.0,0.0,0.0,0.0,0.0,0.0,0.0,0.0,0.0,0.0,0.0,0.0,0.0,0.0,0.0,0.0,0.0,0.0,0.0,0.0,0.0,0.0,0.0,0.0,0.0,0.0,0.0,0.0,0.0,0.0,0.0,2.9017,2.9478,3.0118,3.0253,3.0208,0.0,0.0,0.0,0.0,0.0,0.0,0.0,0.0,0.0,0.0,0.0,0.0,0.0,0.0,0.0,0.0,0.0,0.0,0.0,0.0,0.0,0.0,0.0,0.0,0.0,0.0,0.0,0.0,0.0,0.0,0.0,4.4587,4.4587,4.4587,4.4587,4.4587,4.4587,4.4587,4.3978,4.3978,0.0,4.3961,4.3995,4.4587,4.4587,4.4587,4.4587,4.4587,4.4587,4.4587,4.4587,4.4587,4.4587,4.4587,4.4587,4.4587,4.4587,4.4587,4.4587,0.0,0.0,0.0,0.0,0.0,0.0,0.0,0.0,0.0,0.0,0.0,0.0,0.0,0.0,0.0,0.0,0.0,0.0,0.0,0.0,0.0,0.0,0.0,0.0,0.0,0.0,0.0,0.0,0.0,0.0,0.0,0.0,0.0,0.0,0.0,0.0,0.0,0.0,0.0,0.0,0.0,0.0,0.0,0.0,0.0,0.0,0.0,0.0,0.0,0.0,0.0,0.0,0.0,0.0,3.0118,3.0417,0.0,0.0,0.0,0.0,0.0,0.0,0.0,0.0,0.0,0.0,0.0,0.0,0.0,0.0,0.0,0.0,0.0,0.0,0.0,0.0,0.0,0.0,0.0,0.0,0.0,0.0,0.0,0.0,0.0,0.0,0.0,4.4587,4.4587,4.4587,4.4587,4.4587,4.4587,4.4401,4.4028,4.3995,4.3995,4.4028,4.3995,4.4181,4.4587,4.4587,4.4587,4.4587,4.4587,4.4587,4.4587,4.4587,4.4587,4.4587,4.4587,4.4587,4.4587,4.4587,4.4587,4.4621,0.0,0.0,0.0,0.0,0.0,0.0,0.0,0.0,0.0,0.0,0.0,0.0,0.0,0.0,0.0,0.0,0.0,0.0,0.0,0.0,0.0,0.0,0.0,0.0,0.0,0.0,0.0,0.0,0.0,0.0,0.0,0.0,0.0,0.0,0.0,0.0,0.0,0.0,0.0,0.0,0.0,0.0,0.0,0.0,0.0,0.0,0.0,0.0,0.0,2.8334,0.0,0.0,0.0,0.0,2.9849,3.0357,0.0,0.0,0.0,0.0,0.0,0.0,0.0,0.0,0.0,0.0,0.0,0.0,0.0,0.0,0.0,0.0,0.0,0.0,0.0,0.0,0.0,0.0,0.0,0.0,0.0,0.0,0.0,0.0,0.0,0.0,0.0,4.4587,4.4587,4.4451,4.4384,4.4384,4.4384,4.4062,4.342,4.4062,4.413,4.3639,4.4265,4.4587,4.4587,4.4587,4.4587,4.4587,4.4587,4.4587,4.4587,4.4587,4.4587,4.4587,4.4587,4.4587,4.4604,4.4722,4.4773,4.4891,0.0,0.0,0.0,0.0,0.0,0.0,0.0,0.0,0.0,0.0,0.0,0.0,0.0,0.0,0.0,0.0,0.0,0.0,0.0,0.0,0.0,0.0,0.0,0.0,0.0,0.0,0.0,0.0,0.0,0.0,0.0,0.0,0.0,0.0,0.0,0.0,0.0,0.0,0.0,0.0,0.0,0.0,0.0,0.0,0.0,0.0,0.0,0.0,0.0,0.0,2.8182,0.0,0.0,0.0,0.0,0.0,0.0,0.0,0.0,0.0,0.0,0.0,0.0,0.0,0.0,0.0,0.0,0.0,0.0,0.0,0.0,0.0,0.0,0.0,0.0,0.0,0.0,0.0,0.0,0.0,0.0,0.0,0.0,0.0,0.0,0.0,4.4198,4.4587,4.4587,4.3944,4.3572,4.3572,4.3572,4.3521,4.342,4.3521,4.3859,4.4418,4.4536,4.4587,4.4587,4.4587,4.4587,4.4587,4.4587,4.4587,4.4587,4.4587,4.4587,4.4587,4.4587,4.4587,4.4654,4.5314,4.5551,4.5669,0.0,0.0,0.0,0.0,0.0,0.0,0.0,0.0,0.0,0.0,0.0,0.0,0.0,0.0,0.0,0.0,0.0,0.0,0.0,0.0,0.0,0.0,0.0,0.0,0.0,0.0,0.0,0.0,0.0,0.0,0.0,2.2009,2.1828,0.0,0.0,0.0,0.0,0.0,0.0,0.0,0.0,0.0,0.0,0.0,0.0,0.0,0.0,0.0,0.0,0.0,0.0,0.0,0.0,0.0,0.0,0.0,0.0,0.0,0.0,0.0,0.0,0.0,0.0,0.0,0.0,0.0,0.0,0.0,0.0,0.0,0.0,0.0,0.0,0.0,0.0,0.0,0.0,0.0,0.0,0.0,0.0,0.0,0.0,0.0,0.0,0.0,4.3978,4.3927,4.3927,4.32,4.2777,4.2777,4.32,4.3217,4.2794,4.3639,4.4231,4.4587,4.4587,4.4587,4.4587,4.4587,4.4587,4.4587,4.4587,4.4587,4.4587,4.4587,4.4587,4.4587,4.4587,4.4587,4.4671,4.5432,4.5703,4.5872,0.0,0.0,0.0,0.0,0.0,0.0,0.0,0.0,0.0,0.0,0.0,0.0,0.0,0.0,0.0,0.0,0.0,0.0,0.0,0.0,0.0,0.0,0.0,0.0,0.0,0.0,0.0,0.0,0.0,0.0,2.2051,2.2335,2.1703,0.0,2.1013,0.0,0.0,0.0,0.0,0.0,0.0,0.0,0.0,0.0,0.0,0.0,0.0,0.0,0.0,0.0,0.0,0.0,0.0,0.0,0.0,0.0,0.0,0.0,0.0,0.0,0.0,0.0,0.0,0.0,0.0,0.0,0.0,0.0,0.0,0.0,0.0,0.0,0.0,0.0,0.0,0.0,0.0,0.0,0.0,0.0,0.0,0.0,0.0,0.0,0.0,0.0,4.3859,4.3504,4.3707,4.2625,4.2185,4.2574,4.2929,4.2963,4.2574,4.391,4.4587,4.4587,4.4587,4.4587,4.4587,4.4587,4.4587,4.4587,4.4587,4.4587,4.4587,4.4587,4.4587,4.4587,4.4587,4.4587,4.4671,4.5432,4.5821,4.616,0.0,0.0,0.0,0.0,0.0,0.0,0.0,0.0,0.0,0.0,0.0,0.0,0.0,0.0,0.0,0.0,0.0,0.0,0.0,0.0,0.0,0.0,0.0,0.0,0.0,0.0,0.0,0.0,0.0,0.0,2.0547,2.1738,2.1599,2.0335,2.1013,2.2363,2.4164,0.0,0.0,0.0,0.0,0.0,0.0,0.0,0.0,0.0,0.0,0.0,0.0,0.0,0.0,0.0,0.0,0.0,0.0,0.0,0.0,0.0,0.0,0.0,0.0,0.0,0.0,0.0,0.0,0.0,0.0,0.0,0.0,0.0,0.0,0.0,0.0,0.0,0.0,0.0,0.0,0.0,0.0,0.0,0.0,0.0,0.0,0.0,0.0,0.0,4.3859,4.3741,4.4485,4.2439,4.1914,4.3318,4.2709,4.2675,4.3352,4.4181,4.4587,4.4587,4.4587,4.4587,4.4587,4.4587,4.4587,4.4587,4.4587,4.4587,4.4587,4.4587,4.4587,4.4587,4.4587,4.4587,4.4671,4.5432,4.6143,4.6853,0.0,0.0,0.0,0.0,0.0,0.0,0.0,0.0,0.0,0.0,0.0,0.0,0.0,0.0,0.0,0.0,0.0,0.0,0.0,0.0,0.0,0.0,0.0,0.0,0.0,0.0,0.0,0.0,0.0,2.2189,2.1755,2.2555,2.244,2.1578,2.1824,2.2332,2.3025,2.3225,0.0,0.0,0.0,0.0,0.0,0.0,0.0,0.0,0.0,0.0,0.0,0.0,0.0,0.0,0.0,0.0,0.0,0.0,0.0,0.0,0.0,0.0,0.0,0.0,0.0,0.0,0.0,0.0,0.0,0.0,0.0,0.0,0.0,0.0,0.0,0.0,0.0,0.0,0.0,0.0,0.0,0.0,0.0,0.0,0.0,0.0,0.0,0.0,0.0,4.3538,4.3809,4.2608,4.2151,4.2675,4.2912,4.3386,4.4147,4.4451,4.4587,4.4587,4.5077,4.5043,4.4604,4.5077,4.5043,4.4587,4.4587,4.4587,4.4587,4.4587,4.4587,4.4587,4.4587,4.4587,4.4722,4.5957,4.6261,4.6397,0.0,0.0,0.0,0.0,0.0,0.0,0.0,0.0,0.0,0.0,0.0,0.0,0.0,0.0,0.0,0.0,0.0,0.0,0.0,0.0,0.0,0.0,0.0,0.0,0.0,0.0,0.0,0.0,0.0,0.0,0.0,0.0,2.3163,2.2317,2.274,0.0,0.0,0.0,0.0,2.4276,0.0,0.0,2.4441,0.0,0.0,0.0,0.0,0.0,0.0,0.0,0.0,0.0,0.0,0.0,0.0,0.0,0.0,0.0,0.0,0.0,0.0,0.0,0.0,0.0,0.0,0.0,0.0,0.0,0.0,0.0,0.0,0.0,0.0,0.0,0.0,0.0,0.0,0.0,0.0,0.0,0.0,0.0,0.0,0.0,0.0,0.0,0.0,0.0,4.3792,4.2844,4.2405,4.2658,4.342,4.4062,4.457,4.4587,4.4587,4.4587,4.5094,4.506,4.4604,4.5094,4.5043,4.4587,4.4587,4.4587,4.4587,4.4587,4.4587,4.4587,4.4587,4.4587,4.4722,4.5974,4.6278,4.643,0.0,0.0,0.0,0.0,0.0,0.0,0.0,0.0,0.0,0.0,0.0,0.0,0.0,0.0,0.0,0.0,0.0,0.0,0.0,0.0,0.0,0.0,0.0,0.0,0.0,0.0,0.0,0.0,0.0,0.0,0.0,0.0,2.3594,0.0,2.3611,2.425,2.423,0.0,2.3488,2.4197,0.0,2.439,2.4764,0.0,0.0,0.0,2.7537,2.761,0.0,0.0,0.0,0.0,0.0,0.0,0.0,0.0,0.0,0.0,0.0,0.0,0.0,0.0,0.0,0.0,0.0,0.0,0.0,0.0,0.0,0.0,0.0,0.0,0.0,0.0,0.0,0.0,0.0,0.0,0.0,0.0,0.0,0.0,0.0,0.0,0.0,0.0,4.3876,4.3792,4.4536,4.3166,4.2692,4.342,4.4181,4.4587,4.4587,4.4587,4.4587,4.4621,4.4637,4.4637,4.4621,4.4637,4.4621,4.4587,4.457,4.4643,4.4643,4.4643,4.4643,4.4643,4.466,4.466,4.4705,4.5517,4.6244,4.7098,0.0,0.0,0.0,0.0,0.0,0.0,0.0,0.0,0.0,0.0,0.0,0.0,0.0,0.0,0.0,0.0,0.0,0.0,0.0,0.0,0.0,0.0,0.0,0.0,0.0,0.0,0.0,0.0,0.0,0.0,0.0,0.0,0.0,0.0,2.3588,2.3967,2.4051,2.3827,0.0,0.0,2.4798,2.5376,0.0,0.0,0.0,0.0,0.0,2.7692,0.0,0.0,2.7932,2.9022,0.0,0.0,0.0,0.0,0.0,0.0,3.2405,0.0,0.0,0.0,0.0,0.0,0.0,0.0,0.0,0.0,0.0,0.0,0.0,0.0,0.0,0.0,0.0,0.0,0.0,0.0,0.0,0.0,0.0,0.0,0.0,0.0,0.0,0.0,4.4384,4.435,4.457,4.4181,4.4045,4.4248,4.4468,4.4587,4.4587,4.4587,4.4897,4.5535,4.6078,4.6045,4.5535,4.6078,4.5699,4.4643,4.4682,4.472,4.472,4.472,4.472,4.4788,4.5409,4.5631,4.5773,4.759,4.7928,4.797,0.0,0.0,0.0,0.0,0.0,0.0,0.0,0.0,0.0,0.0,0.0,0.0,0.0,0.0,0.0,0.0,0.0,0.0,0.0,0.0,0.0,0.0,0.0,0.0,0.0,0.0,0.0,0.0,0.0,0.0,0.0,0.0,0.0,0.0,0.0,0.0,0.0,0.0,0.0,0.0,2.4774,0.0,0.0,2.6876,2.7646,0.0,0.0,0.0,2.9447,2.8432,2.8794,0.0,0.0,0.0,0.0,0.0,0.0,0.0,0.0,0.0,0.0,0.0,0.0,0.0,3.8717,3.9023,3.9272,0.0,0.0,0.0,0.0,0.0,0.0,0.0,0.0,0.0,0.0,0.0,0.0,0.0,0.0,0.0,0.0,4.5449,4.5399,4.4637,4.4587,4.4587,4.4587,4.4587,4.4587,4.4587,4.4587,4.4643,4.4682,4.4682,4.5094,4.5976,4.6113,4.6056,4.5937,4.6056,4.5592,4.4682,4.4831,4.4886,4.4886,4.4923,4.4923,4.492,4.5456,4.5721,4.6102,4.7775,4.843,4.8836,0.0,0.0,0.0,0.0,0.0,0.0,0.0,0.0,0.0,0.0,0.0,0.0,0.0,0.0,0.0,0.0,0.0,0.0,0.0,0.0,0.0,0.0,0.0,0.0,0.0,0.0,0.0,0.0,0.0,0.0,0.0,0.0,0.0,0.0,0.0,0.0,0.0,0.0,0.0,2.3963,2.47,2.5314,0.0,0.0,2.8215,0.0,2.961,3.0154,3.047,3.0057,3.0028,0.0,0.0,0.0,0.0,0.0,3.2848,0.0,0.0,0.0,0.0,0.0,0.0,0.0,3.9255,3.9272,3.9272,3.9272,0.0,0.0,0.0,0.0,0.0,0.0,0.0,0.0,0.0,0.0,0.0,0.0,0.0,0.0,4.5771,4.5771,4.5483,4.4637,4.4654,4.4671,4.4587,4.4654,4.4654,4.4587,4.4626,4.4682,4.4776,4.4831,4.5244,4.6127,4.5477,4.5456,4.5903,4.5405,4.5009,4.4831,4.4978,4.5032,4.5032,4.5194,4.514,4.5049,4.522,4.5606,4.6209,4.7193,4.8438,4.9828,0.0,0.0,0.0,0.0,0.0,0.0,0.0,0.0,0.0,0.0,0.0,0.0,0.0,0.0,0.0,0.0,0.0,0.0,0.0,0.0,0.0,0.0,0.0,0.0,0.0,0.0,0.0,0.0,0.0,0.0,0.0,0.0,0.0,0.0,0.0,0.0,0.0,0.0,0.0,2.4537,2.565,0.0,2.8503,2.8712,2.9496,3.0311,2.9569,2.9874,3.0665,0.0,3.035,3.0339,0.0,0.0,0.0,0.0,0.0,0.0,0.0,0.0,0.0,0.0,0.0,0.0,3.9139,3.9272,3.9272,0.0,0.0,0.0,0.0,0.0,0.0,0.0,0.0,0.0,0.0,0.0,0.0,0.0,0.0,0.0,4.5771,4.6244,4.6024,4.4671,4.5145,4.5229,4.4604,4.5162,4.5213,4.4604,4.4682,4.4776,4.4776,4.4886,4.5408,4.6292,4.6138,4.61,4.6237,4.6083,4.5651,4.4978,4.5069,4.5177,4.5177,4.5318,4.53,4.5314,4.6677,4.7189,4.7398,4.9392,5.0556,5.1463,0.0,0.0,0.0,0.0,0.0,0.0,0.0,0.0,0.0,0.0,0.0,0.0,0.0,0.0,0.0,0.0,0.0,0.0,0.0,0.0,0.0,0.0,0.0,0.0,0.0,0.0,0.0,0.0,0.0,0.0,0.0,0.0,0.0,0.0,0.0,0.0,0.0,0.0,2.4761,2.5181,2.6105,0.0,2.8309,2.89,2.9915,3.0922,3.0141,3.0445,3.1231,3.1621,3.2052,0.0,0.0,3.3661,3.3973,0.0,3.4039,3.4055,0.0,0.0,0.0,3.7316,0.0,0.0,0.0,3.9272,3.9272,3.9272,0.0,0.0,0.0,0.0,0.0,0.0,0.0,0.0,0.0,0.0,0.0,0.0,0.0,0.0,4.6363,4.6583,4.6329,4.5229,4.5821,4.5923,4.5179,4.55,4.5405,4.4699,4.4776,4.4886,4.4978,4.5086,4.5571,4.6436,4.604,4.5986,4.6275,4.5969,4.5608,4.5086,4.5247,4.53,4.53,4.5371,4.5595,4.5971,4.68,4.7279,4.7734,4.9664,5.1218,5.2433,0.0,0.0,0.0,0.0,0.0,0.0,0.0,0.0,0.0,0.0,0.0,0.0,0.0,0.0,0.0,0.0,0.0,0.0,0.0,0.0,0.0,0.0,0.0,2.3436,0.0,0.0,0.0,0.0,0.0,0.0,0.0,0.0,0.0,0.0,0.0,0.0,0.0,0.0,0.0,2.598,0.0,2.7124,2.7643,2.8917,3.0023,3.0843,3.0849,3.129,3.1918,3.2497,0.0,3.4584,3.3988,3.4618,0.0,0.0,0.0,0.0,0.0,0.0,0.0,0.0,0.0,3.8394,0.0,0.0,0.0,3.9272,0.0,0.0,0.0,0.0,0.0,0.0,0.0,0.0,0.0,0.0,0.0,0.0,0.0,0.0,0.0,4.6447,4.6177,4.5737,4.638,4.6481,4.5737,4.5838,4.5614,4.481,4.4831,4.4978,4.5177,4.5247,4.5627,4.6372,4.5734,4.5681,4.6106,4.5629,4.5371,4.523,4.5371,4.551,4.5648,4.5736,4.6255,4.6982,4.703,4.7476,4.8321,5.0011,5.1743,5.3461,0.0,0.0,0.0,0.0,0.0,0.0,0.0,0.0,0.0,0.0,0.0,0.0,0.0,0.0,0.0,0.0,0.0,0.0,2.0128,0.0,0.0,0.0,0.0,0.0,2.3824,0.0,0.0,0.0,0.0,0.0,0.0,0.0,0.0,0.0,2.5375,0.0,0.0,0.0,2.668,0.0,2.7823,2.8132,0.0,2.958,3.003,3.0092,3.1116,3.1951,3.258,0.0,3.3243,3.3905,0.0,3.3905,0.0,0.0,0.0,0.0,0.0,0.0,0.0,0.0,3.8212,0.0,0.0,0.0,3.9272,3.9272,0.0,0.0,0.0,0.0,0.0,0.0,0.0,0.0,0.0,0.0,0.0,0.0,0.0,0.0,0.0,4.5213,4.5077,4.5669,4.638,4.6481,4.5737,4.6411,4.6238,4.4827,4.5032,4.5177,4.5177,4.53,4.5422,4.5561,4.5458,4.5422,4.5491,4.5405,4.5371,4.5371,4.5371,4.582,4.6529,4.6985,4.761,4.8329,4.8453,4.9313,5.0608,5.2187,5.3667,5.4937,0.0,0.0,0.0,0.0,0.0,0.0,0.0,0.0,0.0,0.0,0.0,0.0,0.0,0.0,0.0,0.0,0.0,1.9331,0.0,0.0,0.0,0.0,0.0,0.0,0.0,0.0,0.0,0.0,2.6321,0.0,0.0,0.0,0.0,0.0,2.5615,0.0,2.6108,0.0,0.0,0.0,0.0,0.0,0.0,3.0354,3.07,3.103,3.2375,3.2796,3.2746,0.0,3.4104,0.0,0.0,0.0,0.0,0.0,0.0,0.0,0.0,0.0,0.0,0.0,0.0,0.0,0.0,0.0,3.9325,0.0,0.0,0.0,0.0,0.0,0.0,0.0,0.0,0.0,0.0,0.0,0.0,0.0,0.0,0.0,0.0,0.0,0.0,0.0,4.6786,4.7183,4.6479,4.6775,4.6567,4.5699,4.5346,4.5247,4.5318,4.5371,4.5423,4.5423,4.5718,4.5854,4.5854,4.6168,4.6266,4.6266,4.6266,4.6755,4.7477,4.7705,4.8777,5.0356,5.0911,5.1176,5.1525,5.3495,5.483,5.5725,0.0,0.0,0.0,0.0,0.0,0.0,0.0,0.0,0.0,0.0,0.0,0.0,1.8812,1.8706,0.0,0.0,0.0,1.9894,0.0,0.0,2.2338,0.0,0.0,0.0,0.0,0.0,0.0,0.0,0.0,0.0,0.0,0.0,0.0,0.0,0.0,2.6576,2.7242,0.0,0.0,2.939,2.989,3.06,3.1334,3.1243,3.1749,3.263,3.3491,3.3574,3.3375,3.3905,3.4949,0.0,3.5131,0.0,0.0,0.0,0.0,0.0,3.7152,0.0,0.0,0.0,0.0,0.0,0.0,0.0,0.0,0.0,0.0,0.0,0.0,0.0,0.0,0.0,0.0,0.0,0.0,0.0,0.0,0.0,0.0,0.0,0.0,0.0,0.0,4.5974,4.6819,4.7174,4.6731,4.6754,4.6567,4.6,4.5665,4.5546,4.5615,4.5615,4.5649,4.5786,4.6087,4.6284,4.6411,4.6724,4.6908,4.6908,4.7122,4.7658,4.8436,4.879,5.0199,5.2256,5.323,5.3369,5.3261,5.4984,5.6046,5.6618,0.0,2.0274,0.0,0.0,0.0,0.0,0.0,0.0,0.0,0.0,0.0,0.0,0.0,0.0,0.0,0.0,0.0,2.0381,2.1038,0.0,2.281,0.0,0.0,2.3881,0.0,0.0,0.0,0.0,0.0,0.0,0.0,0.0,0.0,0.0,0.0,2.8197,2.9326,2.9292,3.0288,3.1882,3.1915,3.2635,3.3565,0.0,3.3123,3.47,3.4038,0.0,0.0,3.4849,3.5363,0.0,0.0,0.0,0.0,0.0,0.0,0.0,0.0,0.0,0.0,3.9056,0.0,0.0,0.0,0.0,3.9501,0.0,0.0,0.0,0.0,0.0,0.0,0.0,0.0,0.0,0.0,0.0,0.0,0.0,0.0,0.0,0.0,0.0,4.5213,4.665,4.6259,4.5983,4.5949,4.6212,4.6018,4.5245,4.5854,4.6186,4.6186,4.6186,4.6411,4.6863,4.6411,4.6459,4.6863,4.6908,4.6908,4.6944,4.774,4.8508,4.9276,5.0579,5.2063,5.3668,5.4966,5.597,5.6694,5.6939,5.7413,5.796,0.0,0.0,0.0,0.0,0.0,0.0,0.0,1.9165,0.0,0.0,0.0,0.0,0.0,0.0,1.9022,0.0,0.0,2.1194,2.1415,2.2376,0.0,0.0,0.0,2.4669,0.0,0.0,0.0,0.0,0.0,0.0,0.0,0.0,0.0,0.0,0.0,2.89,0.0,0.0,0.0,0.0,0.0,3.3859,3.4485,0.0,0.0,3.4203,3.4435,3.4369,0.0,3.4733,3.5065,3.523,3.4982,3.5112,3.5476,3.586,3.6488,0.0,0.0,0.0,3.8503,3.8753,0.0,0.0,0.0,0.0,0.0,0.0,0.0,0.0,0.0,0.0,0.0,0.0,0.0,0.0,0.0,0.0,0.0,0.0,0.0,0.0,0.0,0.0,0.0,4.5246,4.5264,4.5426,4.6015,4.6216,4.6224,4.6146,4.6166,4.6186,4.6186,4.6507,4.7037,4.7722,4.7859,4.7994,4.8171,4.8508,4.8361,4.787,4.873,4.9567,5.0326,5.1298,5.2992,5.4948,5.542,5.6418,5.7629,5.7682,5.7821,5.7997,1.874,0.0,0.0,0.0,0.0,0.0,0.0,0.0,0.0,0.0,1.8715,0.0,1.8242,0.0,1.9037,0.0,2.0745,2.1437,2.1813,2.2692,0.0,2.2844,2.3994,0.0,0.0,0.0,0.0,0.0,0.0,2.8293,0.0,0.0,0.0,0.0,0.0,0.0,0.0,0.0,3.2053,0.0,0.0,3.4594,0.0,0.0,3.4601,3.4237,0.0,3.4584,3.4253,3.4733,3.4899,3.4899,3.4899,3.4994,3.5188,3.5575,3.6369,3.7149,3.7336,3.7987,0.0,3.8924,3.8923,0.0,3.956,0.0,0.0,0.0,0.0,0.0,0.0,0.0,0.0,0.0,0.0,0.0,0.0,0.0,0.0,0.0,0.0,0.0,0.0,0.0,4.4028,4.4575,4.4776,4.5118,0.0,0.0,4.6378,4.6706,4.6707,4.6724,4.6724,4.6981,4.7661,4.863,4.8761,4.9035,4.9513,4.9874,4.9554,4.882,4.9958,5.0582,5.0875,5.1977,5.3665,5.5592,5.5592,5.6565,5.7997,5.7997,5.7997,5.7997,0.0,0.0,0.0,0.0,1.9909,0.0,0.0,0.0,1.8284,0.0,1.8396,1.8154,1.8129,1.8141,1.8592,1.9664,2.0321,0.0,2.2243,2.292,0.0,0.0,2.3569,2.4239,2.5585,0.0,0.0,0.0,0.0,0.0,0.0,0.0,0.0,0.0,2.8667,0.0,3.1306,3.1953,3.3272,3.4899,3.4899,3.4899,3.4899,3.4899,3.4899,3.4899,3.4899,3.4899,3.4899,3.4899,3.4899,3.4899,3.4899,3.4994,3.5105,3.5138,3.5749,3.6628,3.7332,3.8053,3.8807,3.9511,0.0,0.0,0.0,0.0,3.9951,0.0,0.0,0.0,0.0,0.0,0.0,0.0,0.0,0.0,0.0,0.0,0.0,0.0,0.0,0.0,0.0,4.4485,4.4507,4.4584,4.4804,4.4906,0.0,0.0,4.6459,4.6908,4.7378,4.7609,4.7645,4.7705,4.8348,4.9646,4.9185,4.9604,5.0802,5.0839,5.0417,4.9738,5.1316,5.1573,5.0986,5.2601,5.4179,5.5592,5.5629,5.662,5.7997,5.7997,5.7997,5.7997,1.6382,1.7224,1.8271,0.0,1.9599,1.9315,0.0,0.0,0.0,0.0,1.7881,1.7426,1.6999,1.7338,1.799,1.8983,1.9999,0.0,0.0,0.0,0.0,2.3363,2.4341,2.5116,2.56,2.7066,0.0,2.8607,0.0,0.0,3.0238,0.0,0.0,0.0,0.0,0.0,3.1985,3.2681,3.3707,3.4899,3.4899,3.4899,0.0,0.0,3.4899,3.4899,3.4899,3.4899,3.4899,3.4899,3.4899,3.4899,3.4994,3.5088,3.5252,3.588,3.6662,3.7396,3.7597,3.8671,3.9615,3.9261,3.9548,3.9884,0.0,0.0,0.0,0.0,0.0,0.0,0.0,0.0,0.0,0.0,0.0,0.0,0.0,0.0,0.0,0.0,0.0,0.0,0.0,4.3325,4.3056,4.3039,4.3682,4.4269,4.4764,0.0,0.0,4.6908,4.7378,4.788,4.8478,4.8885,4.9566,5.0508,5.0936,5.1069,5.082,5.1426,5.1242,5.0545,5.1555,5.1867,5.1811,5.3427,5.4693,5.5647,5.6253,5.7116,5.7997,5.7997,5.7997,5.7997,1.6394,0.0,0.0,1.9435,0.0,0.0,1.9687,0.0,0.0,1.8647,1.7828,0.0,1.7115,1.7232,1.7687,1.8696,1.9855,0.0,0.0,0.0,0.0,2.3703,2.4563,2.531,2.6019,2.7141,0.0,2.9026,0.0,0.0,3.0926,0.0,0.0,0.0,0.0,3.086,0.0,3.3514,3.4336,3.4956,3.4919,0.0,0.0,3.4899,3.4899,3.4899,3.4899,3.4899,3.4899,3.4899,3.4899,3.4947,3.5041,3.5352,3.5796,3.6357,3.7326,3.8282,3.8282,3.9158,3.9986,3.9563,3.9733,3.9986,4.007,4.0341,4.0527,0.0,0.0,0.0,0.0,0.0,0.0,0.0,0.0,0.0,0.0,0.0,0.0,0.0,0.0,0.0,4.3562,4.3134,4.2927,4.3273,4.4353,4.5011,0.0,0.0,0.0,4.7542,4.8483,4.9209,4.9664,5.0314,5.0875,5.1334,5.1775,5.194,5.1867,5.2325,5.2087,5.1371,5.2179,5.2325,5.2105,5.3739,5.4858,5.5702,5.6877,5.7593,5.7997,5.7997,5.7997,5.7997,0.0,0.0,0.0,0.0,0.0,0.0,0.0,1.9495,0.0,1.916,0.0,1.7235,1.7681,1.7408,1.7604,1.8602,0.0,2.0841,2.1787,2.2761,2.3553,2.4263,2.4593,2.5357,2.6557,2.6767,0.0,0.0,0.0,0.0,3.1467,0.0,0.0,0.0,0.0,0.0,0.0,3.4233,3.4907,0.0,3.4938,3.4899,3.4899,3.4899,3.4899,3.4899,3.4899,3.4899,3.4899,3.4899,3.4899,3.4947,3.5041,3.5682,3.6444,3.6686,3.7793,3.9022,3.9106,3.9597,4.007,4.007,4.007,4.007,4.007,4.007,4.007,4.007,4.007,4.007,0.0,0.0,0.0,0.0,0.0,0.0,0.0,0.0,0.0,0.0,0.0,0.0,0.0,4.3693,4.3715,4.4263,4.5784,4.6319,0.0,0.0,0.0,4.8471,4.9884,5.0784,5.1114,0.0,5.205,5.216,5.216,5.2472,5.3059,5.317,5.2876,5.2344,5.3059,5.3023,5.2582,5.4087,5.5188,5.6033,5.7446,5.7997,5.7997,5.7997,5.7997,5.7997,0.0,0.0,0.0,0.0,0.0,2.017,1.9722,1.8654,1.7909,1.7909,1.7106,1.6579,1.6635,1.6978,1.7404,1.7936,1.9475,0.0,0.0,0.0,0.0,2.4277,2.5533,2.6363,2.6587,2.7679,2.8682,0.0,3.0088,3.0746,0.0,0.0,0.0,0.0,0.0,0.0,3.3108,3.3944,0.0,3.4921,3.4885,3.4899,3.4899,3.4899,3.4899,3.4899,3.4899,3.4899,3.4899,3.4899,3.4994,3.5041,3.5088,3.5682,3.6544,3.7309,3.8166,3.9007,3.9715,3.9986,4.007,4.007,4.007,4.007,4.007,4.007,4.007,4.007,4.007,4.007,4.007,0.0,0.0,0.0,0.0,0.0,0.0,0.0,0.0,0.0,0.0,0.0,0.0,0.0,0.0,0.0,0.0,4.6463,0.0,0.0,0.0,0.0,4.9627,0.0,0.0,0.0,5.2325,5.3004,5.3004,5.2729,5.2234,5.2913,5.35,5.3995,5.4124,5.4491,5.5023,5.5996,5.6859,5.7611,5.7886,5.7997,5.7997,5.7997,5.7997,5.7997,0.0,0.0,0.0,0.0,0.0,0.0,0.0,1.857,0.0,1.837,1.7616,1.7245,1.7894,1.7887,1.7942,1.8248,2.0091,2.1312,2.1511,2.3476,2.4798,2.528,2.6016,0.0,2.7096,2.7739,2.8562,2.9579,2.9879,3.0552,0.0,0.0,0.0,0.0,0.0,3.2486,0.0,0.0,0.0,3.4939,3.4888,3.4899,3.4899,3.4899,3.4899,3.4899,3.4899,3.4947,3.4994,3.4994,3.5243,3.5623,3.5796,3.6614,3.7651,3.8199,3.8873,3.9581,3.9986,4.007,4.007,4.007,4.007,4.007,4.007,4.007,4.007,4.007,4.007,4.007,4.007,4.007,0.0,0.0,0.0,0.0,0.0,0.0,0.0,0.0,0.0,0.0,0.0,0.0,0.0,0.0,0.0,0.0,0.0,0.0,0.0,0.0,0.0,0.0,0.0,0.0,0.0,5.3206,5.3206,5.3004,5.2656,5.3463,5.4032,5.4418,5.484,5.5225,5.5647,5.6473,5.7281,5.7997,5.7997,5.7997,5.7997,5.7997,5.7997,5.7997,0.0,1.9726,0.0,0.0,1.9876,0.0,1.9285,1.8809,1.8597,1.8952,1.8226,1.7995,1.8978,1.8817,1.8715,1.8857,2.0911,2.2193,2.2236,2.4101,2.5497,2.6229,2.6391,2.6852,2.756,2.7625,2.821,0.0,2.9505,3.0178,0.0,0.0,0.0,0.0,0.0,0.0,0.0,0.0,3.4878,3.4982,3.4905,3.4899,3.4899,3.4899,3.4899,3.4899,3.4899,3.5046,3.5291,3.5368,3.5721,3.622,3.6611,3.7633,3.8707,3.8889,3.9512,4.007,4.007,4.007,4.007,4.007,4.007,4.007,4.007,4.007,4.007,4.007,4.007,4.007,4.007,4.007,0.0,0.0,0.0,0.0,0.0,0.0,0.0,0.0,0.0,0.0,0.0,0.0,0.0,0.0,0.0,4.6838,4.6195,4.8012,4.9224,0.0,0.0,5.2307,5.3445,0.0,5.3922,5.3463,5.3463,5.3463,5.3482,5.4289,5.4748,5.495,5.5574,5.5941,5.6143,5.6785,5.7428,5.7997,5.7997,5.7997,5.7997,5.7997,5.7997,5.7997,0.0,0.0,0.0,0.0,0.0,0.0,1.9125,1.917,1.916,1.8529,1.8069,1.7847,1.8126,1.8943,1.9524,1.9524,2.1549,2.2891,2.2995,2.4934,2.6184,2.6377,2.7056,2.7515,2.7625,2.7625,2.7934,0.0,0.0,2.9924,3.0612,0.0,0.0,0.0,0.0,0.0,0.0,3.4147,3.4431,3.4886,3.4916,3.4899,3.4899,3.4899,3.4899,3.4899,3.4899,3.533,3.5942,3.6183,3.6407,3.6639,3.7117,3.8035,3.8939,3.884,3.9446,4.007,4.007,4.007,4.007,4.007,4.007,4.007,4.007,4.007,4.007,4.007,4.007,4.007,4.007,4.007,4.0492,0.0,0.0,0.0,0.0,0.0,0.0,0.0,0.0,0.0,0.0,0.0,0.0,0.0,0.0,4.7095,4.7003,4.7223,4.8031,4.9536,0.0,5.1995,5.4271,5.3647,5.3647,5.4289,5.4289,5.4289,5.4308,5.5115,5.5886,5.6583,5.6657,5.7097,5.7776,5.785,5.7923,5.7997,5.7997,5.7997,5.7997,5.7997,5.7997,5.7997,0.0,0.0,0.0,0.0,0.0,0.0,0.0,2.0306,2.0397,2.0151,1.9374,1.9231,2.0373,2.0518,2.0813,2.1605,2.2826,2.372,2.4285,2.578,2.6798,2.6985,2.7289,2.7539,2.7625,2.7625,2.7919,0.0,0.0,2.9894,3.0507,3.121,0.0,0.0,0.0,3.3902,3.47,3.5086,3.5613,3.6224,3.6224,3.5959,3.5611,3.6059,3.5959,3.5628,3.6059,3.6505,3.6969,3.7452,3.7652,3.7769,3.8202,3.8907,3.9564,3.9581,3.9851,4.007,4.007,4.007,4.007,4.007,4.007,4.007,4.007,4.007,4.007,4.007,4.007,4.0171,4.0483,4.0546,4.0871,0.0,0.0,0.0,0.0,0.0,0.0,0.0,0.0,0.0,0.0,0.0,0.0,0.0,0.0,0.0,4.7113,4.7113,4.8104,5.0251,0.0,5.1206,5.3665,5.3371,5.361,5.4399,5.4399,5.4638,5.5133,5.5941,5.6767,5.7519,5.7519,5.7703,5.7997,5.7997,5.7997,5.7997,5.7997,5.7997,5.7997,5.7997,5.7997,5.7997,2.0831,0.0,2.1434,0.0,2.1439,2.1506,2.1072,2.1112,2.1287,2.1562,2.0846,2.0803,2.2094,2.1954,2.2188,2.3273,2.4086,2.479,2.5389,2.6476,2.7196,2.7437,2.7437,0.0,2.7625,2.7625,2.7919,2.8607,2.9265,0.0,3.0522,3.1366,0.0,0.0,3.3662,3.459,3.5393,3.5828,3.6439,3.7102,3.7102,3.6787,3.639,3.6903,3.6787,3.639,3.697,3.7436,3.7836,3.8355,3.8672,3.8907,3.9177,3.9564,4.0003,4.0087,4.007,4.007,4.007,4.007,4.007,4.007,4.007,4.007,4.007,4.007,4.007,4.007,4.0221,4.0502,4.1095,4.1377,4.1821,4.2845,0.0,0.0,0.0,0.0,0.0,0.0,0.0,4.4232,4.4342,0.0,0.0,0.0,0.0,0.0,4.7113,4.7113,0.0,0.0,0.0,0.0,0.0,5.3206,5.361,5.4399,5.4638,5.517,5.5978,5.6785,5.7464,5.7997,5.7997,5.7997,5.7997,5.7997,5.7997,5.7997,5.7997,5.7997,5.7997,5.7997,5.7997,5.7997,2.0612,2.0996,2.1236,2.1724,2.1866,2.1799,2.1525,2.1381,2.1524,2.2176,2.2297,2.2287,2.2374,2.2844,2.342,2.4047,2.5236,2.6029,2.6194,2.6929,2.7452,0.0,0.0,2.7625,2.7625,2.7625,2.7919,2.8607,0.0,0.0,3.0522,0.0,3.2695,3.3251,3.3815,3.4807,3.5992,3.6009,3.6439,3.7102,3.7102,3.7102,3.7102,3.7102,3.7102,3.7102,3.7236,3.7753,3.842,3.8723,3.9278,3.9884,3.9884,3.9986,4.007,4.007,4.007,4.007,4.007,4.007,4.007,4.007,4.007,4.007,4.007,4.007,4.007,4.007,4.0483,4.1073,4.2025,4.2549,4.358,4.5695,0.0,0.0,0.0,0.0,0.0,0.0,4.4892,4.5241,4.3663,0.0,0.0,0.0,0.0,0.0,0.0,0.0,0.0,4.8306,4.9939,0.0,5.3188,5.3206,5.361,5.4418,5.5207,5.5996,5.6822,5.7611,5.7997,5.7997,5.7997,5.7997,5.7997,5.7997,5.7997,5.7997,5.7997,5.7997,5.7997,5.7997,5.7997,5.7997,2.0628,2.1233,2.1593,2.1783,2.2221,2.2526,2.2471,2.2505,2.2614,2.279,2.3216,2.372,2.4131,2.3919,2.4336,0.0,2.5988,2.6235,0.0,2.7232,2.7437,2.7575,2.7625,2.7625,2.7625,2.8038,2.8382,2.8607,0.0,0.0,0.0,3.2571,3.3266,3.3815,3.4382,3.5151,3.6025,3.6539,3.7185,3.7897,3.8394,3.8295,3.7914,3.8394,3.8314,3.8068,3.8602,3.909,3.9445,3.9547,3.98,4.0037,4.0037,4.0087,4.007,4.007,4.007,4.007,4.007,4.007,4.007,4.007,4.007,4.007,4.007,4.0353,4.058,4.058,4.1019,4.1762,4.2934,4.3417,4.4088,4.563,4.5731,0.0,0.0,0.0,0.0,0.0,4.3938,4.4048,0.0,4.4452,0.0,0.0,0.0,0.0,0.0,0.0,0.0,0.0,5.0215,0.0,5.4014,5.4014,5.4711,5.6051,5.6308,5.684,5.7629,5.7886,5.7997,5.7997,5.7997,5.7997,5.7997,5.7997,5.7997,5.7997,5.7997,5.7997,5.7997,5.7997,5.7997,5.8024,2.1083,2.1562,2.1975,2.2172,2.2613,2.2969,2.2969,2.3078,2.3078,2.3078,2.3649,2.4429,2.5263,2.5039,0.0,2.675,2.6608,2.6688,2.7255,2.7386,2.7539,2.7575,2.7625,2.7625,2.7625,2.8248,0.0,2.8966,3.0253,3.1373,3.2382,3.2949,3.3527,3.4151,3.4643,3.5313,3.6025,3.6489,3.7284,3.8245,3.8692,3.8775,3.8659,3.9106,3.9096,3.8868,3.937,3.9694,3.9901,3.9935,4.0037,4.007,4.007,4.007,4.007,4.007,4.007,4.007,4.007,4.007,4.007,4.007,4.007,4.007,4.007,4.0434,4.0802,4.0814,4.1455,4.2412,4.3876,4.4415,4.5069,4.6486,4.6782,4.6416,4.5314,0.0,0.0,0.0,0.0,0.0,0.0,4.4507,4.5443,0.0,0.0,0.0,0.0,0.0,0.0,4.9517,5.0637,0.0,5.4381,5.4399,5.5207,5.6804,5.7116,5.7519,5.7997,5.7997,5.7997,5.7997,5.7997,5.7997,5.7997,5.7997,5.7997,5.7997,5.7997,5.7997,5.7997,5.7997,5.8115,5.8257,2.1777,2.2018,2.2263,0.0,2.3017,0.0,2.3238,2.3165,2.3153,2.3178,2.3837,2.4726,2.5846,2.6148,2.6533,2.7083,0.0,0.0,0.0,2.7539,2.7625,2.7625,2.7625,2.7625,2.7625,2.8293,2.9011,2.9714,3.0983,3.1853,3.2382,3.2986,3.3578,3.4151,3.4643,3.528,3.5926,3.6025,3.687,3.8146,3.8245,3.8692,3.9272,3.9325,3.9379,3.9537,3.9677,3.9781,3.9935,4.0087,4.007,4.007,4.007,4.007,4.007,4.007,4.007,4.007,4.007,4.007,4.007,4.007,4.007,4.0121,4.0121,4.0566,4.0948,4.1082,4.1909,4.3167,4.4921,4.5581,4.6414,4.8029,4.8306,4.7737,4.6122,0.0,0.0,0.0,0.0,0.0,0.0,4.5021,4.5645,0.0,0.0,0.0,0.0,0.0,5.0618,4.9701,5.1298,5.2913,5.4473,5.4546,5.5354,5.6895,5.7648,5.7997,5.7997,5.7997,5.7997,5.7997,5.7997,5.7997,5.7997,5.7997,5.7997,5.7997,5.7997,5.8042,5.8024,5.8024,5.8301,5.8628,0.0,0.0,2.2426,2.2977,2.3078,2.3366,2.4293,2.4067,2.3941,2.4368,2.5537,2.6362,2.6511,2.7627,2.8477,2.8601,2.7861,2.735,2.7401,2.7539,2.7625,2.7625,2.7625,2.7625,2.7625,2.8742,2.9924,3.1076,3.1799,3.2231,3.2453,3.3403,3.3984,3.4151,3.4643,3.4998,3.523,3.6357,3.7052,3.7466,3.8576,3.9123,3.9325,3.9379,3.9537,3.9677,3.9781,3.9935,4.0087,4.007,4.007,4.007,4.007,4.007,4.007,4.007,4.007,4.007,4.007,4.007,4.007,4.007,4.007,4.0221,4.0531,4.1563,4.2511,4.2878,4.4061,4.531,4.6371,4.6669,4.7112,4.8141,4.8306,4.7737,4.6122,4.6434,0.0,0.0,4.5131,4.5535,4.5351,4.5681,4.6324,0.0,0.0,0.0,0.0,5.2234,5.2619,5.0582,5.2674,5.4308,5.5299,5.5923,5.673,5.7721,5.7905,5.7997,5.7997,5.7997,5.7997,5.7997,5.7997,5.7997,5.7997,5.7997,5.7997,5.7997,5.7997,5.8186,5.8437,5.8437,5.871,5.9084,2.253,2.3027,2.3552,2.3853,2.3904,2.4117,2.4732,2.4569,2.4608,2.5205,2.6254,2.7184,2.7728,2.8626,2.9341,2.9637,2.8803,2.8345,2.8398,2.8502,2.8487,2.8487,2.8487,2.8487,2.8487,2.949,3.0507,3.1482,3.1853,3.2272,3.2788,3.3387,3.3968,3.4497,3.4787,3.5081,3.5462,3.6257,3.7003,3.7682,3.8477,3.9043,3.9379,3.9501,3.9642,3.9781,3.9901,3.9986,4.007,4.007,4.007,4.007,4.007,4.007,4.007,4.007,4.007,4.007,4.007,4.007,4.0155,4.051,4.0595,4.0815,4.167,4.2655,4.3545,4.408,4.5044,4.6066,4.6891,4.7094,4.737,4.8177,4.7994,4.7333,4.6067,4.5975,0.0,4.4819,4.5094,4.5645,4.6379,4.6783,4.7517,4.8802,4.9994,0.0,5.1848,5.35,5.3628,5.1958,5.3885,5.5335,5.6143,5.695,5.7574,5.7997,5.7997,5.7997,5.7997,5.7997,5.7997,5.7997,5.7997,5.7997,5.7997,5.7997,5.8115,5.8257,5.8257,5.8521,5.8852,5.8852,5.9122,5.9502,2.4117,2.4506,2.4845,2.4921,2.487,2.487,2.5046,2.5048,2.5333,2.602,2.6864,2.7857,2.9018,2.949,2.9922,3.0401,3.0012,2.9665,2.9594,2.9579,2.9579,2.9579,2.9579,2.9579,2.9579,3.0193,3.0851,3.1482,3.1682,3.2201,3.3093,3.3355,3.3935,3.4804,3.4835,3.5313,3.6009,3.6125,3.6953,3.8212,3.8328,3.8847,3.9537,3.9554,3.9694,3.9901,3.9935,3.9986,4.007,4.007,4.007,4.007,4.007,4.0155,4.0257,4.0257,4.0324,4.0392,4.0273,4.0324,4.0544,4.1068,4.1323,4.1818,4.2955,4.3793,4.4476,4.5054,4.5703,4.6377,4.713,4.7297,4.7517,4.8196,4.7627,4.6874,4.6177,0.0,4.5112,4.5241,4.5369,4.603,4.7517,4.8288,4.904,4.9884,5.1334,5.2527,5.3353,5.4271,5.4454,5.3775,5.506,5.6161,5.6969,5.7666,5.7997,5.7997,5.7997,5.7997,5.7997,5.7997,5.7997,5.7997,5.7997,5.7997,5.7997,5.7997,5.8213,5.8586,5.8586,5.8891,5.927,5.927,5.9537,5.9906,2.4695,2.4757,2.4958,2.5398,2.5109,2.5134,2.6063,2.6306,2.6674,2.7341,2.8663,2.9633,2.9793,3.0661,3.1155,3.1129,3.117,3.0705,2.9654,2.9579,2.9579,2.9579,2.9579,2.9579,2.9579,3.0193,3.0851,3.1482,3.2461,3.2788,3.2547,3.3951,3.448,3.425,3.4691,3.5313,3.6042,3.6671,3.7468,3.8452,3.9032,3.9437,3.9677,3.9781,3.9849,3.9901,4.0037,4.0087,4.007,4.007,4.007,4.007,4.007,4.051,4.1035,4.1035,4.1457,4.1813,4.1204,4.1474,4.183,4.1339,4.1989,4.2955,4.3545,4.4751,4.5906,4.639,4.727,4.7937,4.8104,4.8122,4.8159,4.8288,4.7627,4.7076,4.6948,0.0,4.6985,4.7664,4.8379,4.9187,5.0141,5.0343,5.0747,5.1555,5.2491,5.3371,5.4179,5.5629,5.6381,5.6253,5.6492,5.7005,5.7813,5.7941,5.7997,5.7997,5.7997,5.7997,5.7997,5.7997,5.7997,5.7997,5.7997,5.7997,5.7997,5.7997,5.8213,5.8586,5.8586,5.9046,5.9725,5.9725,5.9937,6.0313,2.5234,2.5485,2.5774,2.6013,2.5862,2.5942,2.6514,2.6876,2.7433,2.8271,2.9317,3.0208,3.0644,3.1161,3.1467,3.1409,3.1467,3.1285,3.0672,3.0627,3.0627,3.0627,3.0627,3.0627,3.0627,3.0911,3.1381,3.1951,3.2532,3.2964,3.3351,3.4134,3.4497,3.4562,3.5217,3.5909,3.6655,3.7384,3.8216,3.9018,3.9351,3.9642,3.9781,3.9901,3.9935,4.0037,4.0087,4.007,4.007,4.007,4.007,4.0155,4.0561,4.0933,4.1288,4.1677,4.2016,4.2219,4.188,4.2033,4.2303,4.2371,4.3031,4.3969,4.4909,4.5962,4.6862,4.7445,4.7952,4.8306,4.8306,4.8306,4.8453,4.8912,4.7939,0.0,0.0,4.7388,4.7407,4.8214,4.904,5.005,5.1316,5.1444,5.1958,5.3188,5.3647,5.4399,5.5629,5.64,5.7005,5.7428,5.7446,5.7611,5.7997,5.7997,5.7997,5.7997,5.7997,5.7997,5.7997,5.7997,5.7997,5.7997,5.8213,5.8326,5.8326,5.8563,5.8891,5.9233,5.9233,5.9605,6.0129,6.0129,6.0237,6.0389,2.5799,2.6151,2.6533,2.6533,2.6533,2.6589,2.6905,2.743,2.8182,2.9192,2.9889,3.0584,3.1278,3.1409,3.1482,3.1482,3.1482,3.1482,3.1482,3.1482,3.1482,3.1482,3.1482,3.1482,3.1482,3.164,3.1966,3.2398,3.2656,3.3245,3.4101,3.425,3.4595,3.5181,3.5744,3.6506,3.7451,3.8015,3.8883,3.9823,3.9656,3.9847,4.0188,4.0002,3.9986,4.007,4.007,4.0189,4.0307,4.0138,4.0307,4.0663,4.1085,4.1441,4.183,4.2388,4.2675,4.2743,4.2388,4.2647,4.3093,4.3518,4.4234,4.5204,4.6495,4.7116,4.7645,4.8327,4.854,4.8545,4.8343,4.8618,4.8967,4.9242,0.0,0.0,0.0,4.7774,4.7755,4.8765,4.9591,5.0655,5.2142,5.227,5.2858,5.4289,5.4564,5.5299,5.673,5.6987,5.7373,5.7978,5.7997,5.7997,5.7997,5.7997,5.7997,5.7997,5.7997,5.7997,5.7997,5.7997,5.8024,5.8142,5.8479,5.8669,5.8732,5.9084,5.9432,5.9791,5.9791,6.0049,6.0389,6.0389,6.0389,6.0389,2.6402,2.6496,2.6533,2.6533,2.6533,2.6782,2.7484,2.826,2.9044,3.0086,3.0777,3.1278,3.1467,3.1482,3.1482,3.1482,3.1482,3.1482,3.1482,3.1482,3.1482,3.1482,3.1482,3.1482,3.1482,3.2079,3.2342,3.2398,3.3455,3.4,3.4101,3.4594,3.5215,3.5926,3.5976,3.6887,3.8319,3.8369,3.9341,4.0843,4.017,4.0356,4.1052,4.0358,4.007,4.007,4.007,4.0527,4.1018,4.0307,4.1001,4.2016,4.1407,4.2151,4.3267,4.3318,4.3842,4.4096,4.2675,4.368,4.494,4.4303,4.5501,4.7124,4.7957,4.8152,4.8349,4.9157,4.9402,4.9242,4.8453,4.9572,5.0141,4.8636,0.0,0.0,4.8306,4.8251,4.882,5.0417,5.1334,5.216,5.3041,5.3115,5.3482,5.4344,5.5078,5.5886,5.6767,5.7519,5.7941,5.7997,5.7997,5.7997,5.7997,5.7997,5.7997,5.7997,5.7997,5.7997,5.7997,5.7997,5.8213,5.8563,5.8586,5.8812,5.9178,5.9215,5.9432,5.9791,5.9791,6.0049,6.0389,6.0389,6.0389,6.0389,2.6533,2.6533,2.6521,2.6589,2.6973,2.7417,2.8012,2.8903,2.978,3.0329,3.097,3.1351,3.1482,3.1482,3.1482,3.1482,3.1482,3.1482,3.1482,3.1482,3.1482,3.1482,3.1482,3.1697,3.2079,3.2287,3.2765,3.3455,3.3882,3.43,3.4691,3.4835,3.5345,3.6123,3.6539,3.7601,3.9101,3.9551,4.0531,4.1617,4.086,4.0847,4.1119,4.0358,4.007,4.0138,4.0612,4.0967,4.1238,4.139,4.183,4.232,4.2523,4.2963,4.3521,4.3995,4.435,4.4451,4.3876,4.45,4.5234,4.5062,4.6451,4.794,4.8407,4.9095,4.9819,5.0189,5.0303,5.0233,4.9921,5.038,5.0747,5.0618,0.0,5.0031,5.0508,5.0582,5.082,5.1463,5.2252,5.2858,5.3188,5.3206,5.3739,5.5042,5.5427,5.6161,5.7464,5.7831,5.7997,5.7997,5.7997,5.7997,5.7997,5.7997,5.7997,5.7997,5.7997,5.7997,5.7997,5.8257,5.8437,5.8628,5.9122,5.9413,5.9571,5.9842,6.0019,6.0159,6.0159,6.0285,6.0389,6.0389,6.0389,6.0389,2.6521,2.6589,2.6589,2.6794,2.7364,2.7999,2.8532,2.947,3.0269,3.0777,3.1146,3.1409,3.1482,3.1482,3.1482,3.1482,3.1482,3.1482,3.1482,3.1482,3.1482,3.1482,3.1482,3.1796,3.2398,3.2547,3.3124,3.4101,3.43,3.4643,3.5058,3.5274,3.5773,3.657,3.727,3.8452,4.001,4.0511,4.1308,4.2092,4.1334,4.1152,4.1119,4.0358,4.0223,4.0493,4.1018,4.1508,4.1931,4.2202,4.2608,4.3064,4.3335,4.3589,4.3893,4.4418,4.4739,4.4942,4.4942,4.562,4.6308,4.6168,4.7358,4.8756,4.9463,5.0162,5.0776,5.1132,5.1187,5.1096,5.0857,5.1206,5.1573,5.161,5.1371,5.1279,5.1573,5.183,5.1995,5.1995,5.2711,5.3316,5.3555,5.3592,5.4252,5.5849,5.5978,5.6565,5.7923,5.7997,5.7997,5.7997,5.7997,5.7997,5.7997,5.7997,5.7997,5.7997,5.7997,5.807,5.8186,5.8479,5.875,5.9008,5.9571,5.9874,6.0019,6.0285,6.0389,6.0389,6.0389,6.0389,6.0389,6.0389,6.0389,6.0427,2.6658,2.6714,2.6794,2.6943,2.7564,2.8312,2.917,2.9856,3.0584,3.1409,3.1482,3.1482,3.1482,3.1482,3.1482,3.1482,3.1482,3.1482,3.1482,3.1482,3.1482,3.1482,3.1482,3.1796,3.2398,3.2949,3.3475,3.4101,3.4804,3.5058,3.4916,3.5933,3.6716,3.7369,3.8221,3.9512,4.0995,4.0995,4.1521,4.2236,4.1508,4.1221,4.1119,4.0358,4.0544,4.1204,4.1221,4.2168,4.3301,4.2557,4.3318,4.4451,4.3673,4.3961,4.4587,4.4587,4.5128,4.5703,4.5703,4.7136,4.8426,4.7682,4.8389,4.9674,5.1407,5.1271,5.1041,5.183,5.1995,5.1756,5.0967,5.2123,5.2692,5.1077,5.1481,5.172,5.093,5.1499,5.1995,5.1995,5.2711,5.3518,5.4308,5.4399,5.506,5.6675,5.6804,5.7171,5.796,5.7997,5.7997,5.7997,5.7997,5.7997,5.7997,5.7997,5.7997,5.7997,5.7997,5.8213,5.8586,5.8586,5.9046,5.9791,5.9791,6.0019,6.0389,6.0389,6.0389,6.0389,6.0389,6.0389,6.0389,6.0389,6.0389,6.0504,2.6658,2.6714,2.6794,2.7146,2.8157,2.903,2.9393,3.0404,3.1219,3.1467,3.1482,3.1482,3.1482,3.1482,3.1482,3.1482,3.1482,3.1482,3.1482,3.1958,3.2018,3.1497,3.1482,3.1951,3.2949,3.3145,3.3681,3.4643,3.5364,3.5806,3.5966,3.6701,3.7502,3.8338,3.8505,3.9798,4.1769,4.1769,4.2297,4.3014,4.2269,4.166,4.1119,4.0358,4.0544,4.1271,4.1779,4.2591,4.347,4.3792,4.4198,4.4536,4.4316,4.4401,4.4671,4.5213,4.5534,4.5919,4.691,4.7875,4.8549,4.8452,4.9748,5.1188,5.1825,5.221,5.2564,5.2803,5.2839,5.2784,5.2546,5.2894,5.3059,5.2564,5.2692,5.2766,5.2527,5.2692,5.2839,5.2839,5.3059,5.3298,5.3537,5.4069,5.4821,5.5868,5.7005,5.7758,5.7997,5.7997,5.7997,5.7997,5.7997,5.7997,5.7997,5.7997,5.7997,5.7997,5.8301,5.8479,5.8628,5.9196,5.9571,5.9842,6.0099,6.0285,6.0389,6.0389,6.0389,6.0389,6.0389,6.0389,6.0389,6.0389,6.0389,6.0427,2.6863,2.693,2.7121,2.7656,2.8661,2.9532,2.9827,3.0837,3.1482,3.1482,3.1482,3.1482,3.1482,3.1764,3.1928,3.1928,3.2153,3.2198,3.1943,3.2542,3.2841,3.2728,3.2755,3.2921,3.3251,3.3985,3.4732,3.5426,3.6222,3.6669,3.6766,3.7617,3.8405,3.9261,3.9496,4.0574,4.2196,4.2196,4.2281,4.2523,4.2354,4.1863,4.1187,4.1018,4.1424,4.2134,4.2591,4.3234,4.3944,4.4418,4.4587,4.4587,4.4587,4.479,4.5111,4.5568,4.6282,4.7136,4.8,4.9065,4.9991,5.0102,5.0986,5.1907,5.2357,5.2858,5.3206,5.3206,5.3206,5.3206,5.3206,5.3206,5.3206,5.3206,5.3206,5.3206,5.3206,5.3206,5.3335,5.3647,5.3683,5.3922,5.4564,5.506,5.5684,5.6492,5.7446,5.7997,5.7997,5.7997,5.7997,5.7997,5.7997,5.7997,5.7997,5.8142,5.8213,5.8257,5.8479,5.8791,5.9084,5.9571,5.9874,6.0049,6.0285,6.0389,6.0389,6.0389,6.0389,6.0389,6.0389,6.0389,6.0427,6.0752,6.0656,6.0485,2.7201,2.7335,2.759,2.8352,2.9079,2.9842,3.0476,3.1132,3.1497,3.1556,3.1511,3.1497,3.1556,3.2153,3.2542,3.2602,3.326,3.3425,3.2826,3.3335,3.4031,3.4732,3.4891,3.461,3.3894,3.5437,3.6263,3.6404,3.7201,3.7552,3.7536,3.8688,3.953,4.0171,4.0881,4.161,4.2286,4.2219,4.1847,4.1373,4.2016,4.1897,4.1373,4.2033,4.276,4.342,4.342,4.3927,4.4587,4.4654,4.4671,4.4688,4.4756,4.5246,4.5821,4.593,4.7324,4.8882,4.9087,5.0573,5.2042,5.2177,5.2053,5.2126,5.2999,5.3206,5.3206,5.3206,5.3206,5.3206,5.3206,5.3206,5.3206,5.3206,5.3206,5.3206,5.3206,5.3206,5.3482,5.4216,5.4363,5.4987,5.6455,5.673,5.7134,5.7941,5.7997,5.7997,5.7997,5.7997,5.7997,5.7997,5.7997,5.7997,5.7997,5.8412,5.8586,5.8586,5.8669,5.9084,5.9791,5.9899,6.0125,6.0389,6.0465,6.0465,6.0389,6.0389,6.0389,6.0389,6.0389,6.0389,6.0485,6.1211,6.1019,6.0618,2.7268,2.7723,2.8157,2.8481,2.947,3.0502,3.1177,3.1412,3.1719,3.2228,3.1854,3.1676,3.2243,3.2422,3.2721,3.3245,3.4382,3.5011,3.4876,3.5078,3.5503,3.603,3.6692,3.723,3.7611,3.6759,3.6858,3.7919,3.812,3.8589,3.9379,4.017,4.0998,4.1743,4.139,4.161,4.2252,4.1677,4.1677,4.2066,4.2236,4.2202,4.2066,4.2236,4.276,4.342,4.342,4.3927,4.4671,4.5263,4.5466,4.5551,4.6126,4.643,4.6784,4.7792,4.8476,4.9249,5.0868,5.1718,5.2242,5.2831,5.2914,5.2944,5.317,5.3206,5.3206,5.3206,5.3206,5.3206,5.3206,5.3206,5.3206,5.3206,5.3206,5.3206,5.3206,5.3206,5.328,5.3445,5.4014,5.4546,5.4895,5.6069,5.7134,5.7941,5.7997,5.7997,5.7997,5.7997,5.7997,5.7997,5.7997,5.7997,5.7997,5.8412,5.8586,5.8628,5.9233,5.9639,5.9809,6.0795,6.0905,6.0427,6.1077,6.0981,6.0389,6.0389,6.0389,6.0389,6.0389,6.0389,6.0408,6.0599,6.0542,6.0446,2.7335,2.7908,2.8532,2.8903,3.0083,3.1212,3.1867,3.2228,3.2587,3.2931,3.2677,3.2602,3.2946,3.326,3.3844,3.4831,3.5833,3.6282,3.5998,3.6602,3.732,3.7904,3.8754,3.987,4.122,3.9835,3.9282,3.9627,3.9979,4.0232,4.0422,4.1268,4.1861,4.2269,4.1897,4.2134,4.276,4.166,4.1627,4.2286,4.2286,4.2506,4.2861,4.3234,4.3623,4.3978,4.3978,4.4468,4.5179,4.5568,4.594,4.6295,4.6667,4.7039,4.7513,4.8495,4.9313,5.0171,5.1625,5.2278,5.2662,5.3103,5.3206,5.3206,5.3206,5.3206,5.3206,5.3206,5.3206,5.3206,5.3206,5.3206,5.3206,5.3206,5.3206,5.3206,5.3206,5.3206,5.3482,5.4252,5.4711,5.5262,5.6033,5.6877,5.7556,5.796,5.7997,5.7997,5.7997,5.7997,5.7997,5.7997,5.7997,5.8115,5.8282,5.8669,5.9175,5.976,5.9794,6.0115,6.067,6.0924,6.1,6.0962,6.1,6.079,6.0389,6.0389,6.0389,6.0389,6.0389,6.0417,6.0483,6.0856,6.0962,6.0952,2.7656,2.8222,2.8944,2.9707,3.0859,3.1938,3.2751,3.3215,3.3529,3.3649,3.3664,3.3709,3.3829,3.4517,3.5474,3.6701,3.7285,3.7473,3.7203,3.8137,3.9167,4.0006,4.0761,4.2014,4.3923,4.3004,4.2105,4.1365,4.1853,4.1836,4.1418,4.2148,4.2557,4.2675,4.2405,4.2709,4.3318,4.1847,4.1694,4.2489,4.2489,4.2946,4.369,4.4333,4.4587,4.4587,4.4587,4.506,4.572,4.5855,4.638,4.7005,4.7141,4.764,4.8354,4.8959,5.0062,5.1276,5.1994,5.259,5.306,5.3164,5.3206,5.3206,5.3206,5.3206,5.3243,5.339,5.3316,5.3206,5.3206,5.3206,5.3206,5.3206,5.3206,5.3261,5.339,5.3298,5.3812,5.5409,5.5702,5.6381,5.785,5.7997,5.7997,5.7997,5.7997,5.7997,5.7997,5.7997,5.7997,5.7997,5.807,5.8257,5.8586,5.9046,5.9863,6.0984,6.0253,6.0487,6.1573,6.1058,6.1115,6.1573,6.1211,6.0943,6.0809,6.0656,6.0676,6.079,6.0532,6.054,6.0767,6.1248,6.143,6.1343,2.8222,2.8903,2.9749,3.0989,3.1867,3.2765,3.4038,3.3799,3.3709,3.4262,3.4337,3.4577,3.5175,3.6297,3.7315,3.8063,3.8212,3.8732,3.991,3.9869,4.0544,4.2275,4.2222,4.2775,4.4236,4.4108,4.3654,4.2913,4.2375,4.2429,4.3061,4.3217,4.3623,4.4215,4.2895,4.2709,4.3318,4.1847,4.1999,4.3267,4.3267,4.3724,4.4434,4.4536,4.4587,4.4587,4.4587,4.506,4.5805,4.643,4.7141,4.7868,4.8511,4.918,4.9837,5.0431,5.1221,5.2065,5.268,5.3017,5.3164,5.3206,5.3206,5.3206,5.3206,5.3206,5.3408,5.4087,5.3683,5.3206,5.3206,5.3206,5.3206,5.3206,5.3206,5.3445,5.4142,5.3647,5.3812,5.5409,5.6216,5.7005,5.7905,5.7997,5.7997,5.7997,5.7997,5.7997,5.7997,5.7997,5.7997,5.7997,5.8326,5.8545,5.8586,5.9342,6.0156,6.0984,6.0559,6.0781,6.1612,6.228,6.2204,6.1688,6.3083,6.3255,6.251,6.1745,6.1879,6.2414,6.1046,6.0939,6.1475,6.0935,6.075,6.0731,2.8969,3.0191,3.1343,3.1946,3.2594,3.338,3.4322,3.4562,3.4861,3.5519,3.5893,3.6222,3.6537,3.7404,3.8078,3.8362,3.8736,3.942,4.0554,4.0814,4.155,4.286,4.323,4.3471,4.3704,4.4221,4.4069,4.3327,4.3428,4.3466,4.342,4.3859,4.4012,4.391,4.3217,4.3335,4.3961,4.2455,4.2692,4.4028,4.3589,4.3876,4.4587,4.4587,4.4587,4.4621,4.506,4.5957,4.6989,4.731,4.7919,4.8623,4.9359,4.9763,5.0185,5.1243,5.1777,5.2224,5.2831,5.3103,5.3206,5.3206,5.3206,5.3335,5.3775,5.3537,5.3316,5.3665,5.3812,5.3739,5.3298,5.3206,5.3353,5.3812,5.3867,5.4161,5.495,5.4748,5.4968,5.6124,5.6987,5.7611,5.796,5.7997,5.7997,5.7997,5.7997,5.7997,5.7997,5.7997,5.7997,5.7997,5.8412,5.871,5.893,5.9502,6.0551,6.2052,6.0943,6.1325,6.3006,6.1975,6.207,6.3045,6.2834,6.2815,6.2834,6.1984,6.1879,6.2108,6.0985,6.0763,6.1076,6.0795,6.0655,6.0604]},{"header":{"parameterUnit":"m.s-1","parameterCategory":1,"la1":30.6,"la2":28.766,"lo1":-90.7593,"lo2":-88.6598,"dx":0.0162,"dy":0.0183,"nx":116,"ny":114,"refTime":"2023-02-03T06:00:00:Z","depth":0,"parameterNumber":3,"parameterNumberName":"V-component_of_WINDS"},"data":[0.0,0.0,0.0,0.0,0.0,0.0,0.0,0.0,0.0,0.0,0.0,0.0,0.0,0.0,0.0,0.0,0.0,0.0,0.0,0.0,0.0,0.0,0.0,0.0,0.0,0.0,0.0,0.0,0.0,0.0,0.0,0.0,0.0,0.0,0.0,0.0,0.0,0.0,0.0,0.0,0.0,0.0,0.0,0.0,0.0,0.0,0.0,0.0,0.0,0.0,0.0,0.0,0.0,0.0,0.0,0.0,0.0,0.0,0.0,0.0,0.0,0.0,0.0,0.0,0.0,0.0,0.0,0.0,0.0,0.0,0.0,0.0,0.0,0.0,0.0,0.0,0.0,0.0,0.0,0.0,0.0,0.0,0.0,0.0,0.0,0.0,0.0,0.0,0.0,0.0,0.0,0.0,0.0,0.0,0.0,0.0,0.0,0.0,0.0,0.0,0.0,0.0,0.0,0.0,0.0,0.0,0.0,0.0,0.0,0.0,0.0,0.0,0.0,0.0,0.0,0.0,0.0,0.0,0.0,0.0,0.0,0.0,0.0,0.0,0.0,0.0,0.0,0.0,0.0,0.0,0.0,0.0,0.0,0.0,0.0,0.0,0.0,0.0,0.0,0.0,0.0,0.0,0.0,0.0,0.0,0.0,0.0,0.0,0.0,0.0,0.0,0.0,0.0,0.0,0.0,0.0,0.0,0.0,0.0,0.0,0.0,0.0,0.0,0.0,0.0,0.0,0.0,0.0,0.0,0.0,0.0,0.0,0.0,0.0,0.0,0.0,0.0,0.0,0.0,0.0,0.0,0.0,0.0,0.0,0.0,0.0,0.0,0.0,0.0,0.0,0.0,0.0,0.0,0.0,0.0,0.0,0.0,0.0,0.0,0.0,0.0,0.0,0.0,0.0,0.0,0.0,0.0,0.0,0.0,0.0,0.0,0.0,0.0,0.0,0.0,0.0,0.0,0.0,0.0,0.0,0.0,0.0,0.0,0.0,0.0,0.0,0.0,0.0,0.0,0.0,0.0,0.0,0.0,0.0,0.0,0.0,0.0,0.0,0.0,0.0,0.0,0.0,0.0,0.0,0.0,0.0,0.0,0.0,0.0,0.0,0.0,0.0,0.0,0.0,0.0,0.0,0.0,0.0,0.0,0.0,0.0,0.0,0.0,0.0,0.0,0.0,0.0,0.0,0.0,0.0,0.0,0.0,0.0,0.0,0.0,0.0,0.0,0.0,0.0,0.0,0.0,0.0,0.0,0.0,0.0,0.0,0.0,0.0,0.0,0.0,0.0,0.0,0.0,0.0,0.0,0.0,0.0,0.0,0.0,0.0,0.0,0.0,0.0,0.0,0.0,0.0,0.0,0.0,0.0,0.0,0.0,0.0,0.0,0.0,0.0,0.0,0.0,0.0,0.0,0.0,0.0,0.0,0.0,0.0,0.0,0.0,0.0,0.0,0.0,0.0,0.0,0.0,0.0,0.0,0.0,0.0,0.0,0.0,0.0,0.0,0.0,0.0,0.0,0.0,0.0,0.0,0.0,0.0,0.0,0.0,0.0,0.0,0.0,0.0,0.0,0.0,0.0,0.0,0.0,0.0,0.0,0.0,0.0,0.0,0.0,0.0,0.0,0.0,0.0,0.0,0.0,0.0,0.0,0.0,0.0,0.0,0.0,0.0,0.0,0.0,0.0,0.0,0.0,0.0,0.0,0.0,0.0,0.0,0.0,0.0,0.0,0.0,0.0,0.0,0.0,0.0,0.0,0.0,0.0,0.0,0.0,0.0,0.0,0.0,0.0,0.0,0.0,0.0,0.0,0.0,0.0,0.0,0.0,0.0,0.0,0.0,0.0,0.0,0.0,0.0,0.0,0.0,0.0,0.0,0.0,0.0,0.0,0.0,0.0,0.0,0.0,0.0,0.0,0.0,0.0,0.0,0.0,0.0,0.0,0.0,0.0,0.0,0.0,0.0,0.0,0.0,0.0,0.0,0.0,0.0,0.0,0.0,0.0,0.0,0.0,0.0,0.0,0.0,0.0,0.0,0.0,0.0,0.0,0.0,0.0,0.0,0.0,0.0,0.0,0.0,0.0,0.0,0.0,0.0,0.0,0.0,0.0,0.0,0.0,0.0,0.0,0.0,0.0,0.0,0.0,0.0,0.0,0.0,0.0,0.0,0.0,0.0,0.0,0.0,0.0,0.0,0.0,0.0,0.0,0.0,0.0,0.0,0.0,0.0,0.0,0.0,0.0,0.0,0.0,0.0,0.0,0.0,0.0,0.0,0.0,0.0,0.0,0.0,0.0,0.0,0.0,0.0,0.0,0.0,0.0,0.0,0.0,0.0,0.0,0.0,0.0,0.0,0.0,0.0,0.0,0.0,0.0,0.0,0.0,0.0,0.0,0.0,0.0,0.0,0.0,0.0,0.0,0.0,0.0,0.0,0.0,0.0,0.0,0.0,0.0,0.0,0.0,0.0,0.0,0.0,0.0,0.0,0.0,0.0,0.0,0.0,0.0,0.0,0.0,0.0,0.0,0.0,0.0,0.0,0.0,0.0,0.0,0.0,0.0,0.0,0.0,0.0,0.0,0.0,0.0,0.0,0.0,0.0,0.0,0.0,0.0,0.0,0.0,0.0,0.0,0.0,0.0,0.0,0.0,0.0,0.0,0.0,0.0,0.0,0.0,0.0,0.0,0.0,0.0,0.0,0.0,0.0,0.0,0.0,0.0,0.0,0.0,0.0,0.0,0.0,0.0,0.0,0.0,0.0,0.0,0.0,0.0,0.0,0.0,0.0,0.0,0.0,0.0,0.0,0.0,0.0,0.0,0.0,0.0,0.0,0.0,0.0,0.0,0.0,0.0,0.0,0.0,0.0,0.0,0.0,0.0,0.0,0.0,0.0,0.0,0.0,0.0,0.0,0.0,0.0,0.0,0.0,0.0,0.0,0.0,0.0,0.0,0.0,0.0,0.0,0.0,0.0,0.0,0.0,0.0,0.0,0.0,0.0,0.0,0.0,0.0,0.0,0.0,0.0,0.0,0.0,0.0,0.0,0.0,0.0,0.0,0.0,0.0,0.0,0.0,0.0,0.0,0.0,0.0,0.0,0.0,0.0,0.0,0.0,0.0,0.0,0.0,0.0,0.0,0.0,0.0,0.0,0.0,0.0,0.0,0.0,0.0,0.0,0.0,0.0,0.0,0.0,0.0,0.0,0.0,0.0,0.0,0.0,0.0,0.0,0.0,0.0,0.0,0.0,0.0,0.0,0.0,0.0,0.0,0.0,0.0,0.0,0.0,0.0,0.0,0.0,0.0,0.0,0.0,0.0,0.0,0.0,0.0,0.0,0.0,0.0,0.0,0.0,0.0,0.0,0.0,0.0,0.0,0.0,0.0,0.0,0.0,0.0,0.0,0.0,0.0,0.0,0.0,0.0,0.0,0.0,0.0,0.0,0.0,0.0,0.0,0.0,0.0,0.0,0.0,0.0,0.0,0.0,0.0,0.0,0.0,0.0,0.0,0.0,0.0,0.0,0.0,0.0,0.0,0.0,0.0,0.0,0.0,0.0,0.0,0.0,0.0,0.0,0.0,0.0,0.0,0.0,0.0,0.0,0.0,0.0,0.0,0.0,0.0,0.0,0.0,0.0,0.0,0.0,0.0,0.0,0.0,0.0,0.0,0.0,0.0,0.0,0.0,0.0,0.0,0.0,0.0,0.0,0.0,0.0,0.0,0.0,0.0,0.0,0.0,0.0,0.0,0.0,0.0,0.0,0.0,0.0,0.0,0.0,0.0,0.0,0.0,0.0,0.0,0.0,0.0,0.0,0.0,0.0,0.0,0.0,0.0,0.0,0.0,0.0,0.0,0.0,0.0,0.0,0.0,0.0,0.0,0.0,0.0,0.0,0.0,0.0,0.0,0.0,0.0,0.0,0.0,0.0,0.0,0.0,0.0,0.0,0.0,0.0,0.0,0.0,0.0,0.0,0.0,0.0,0.0,0.0,0.0,0.0,0.0,0.0,0.0,0.0,0.0,0.0,0.0,0.0,0.0,0.0,0.0,0.0,0.0,0.0,0.0,0.0,0.0,0.0,0.0,0.0,0.0,0.0,0.0,0.0,0.0,0.0,0.0,0.0,0.0,0.0,0.0,0.0,0.0,0.0,0.0,0.0,0.0,0.0,0.0,0.0,0.0,0.0,0.0,0.0,0.0,0.0,0.0,0.0,0.0,0.0,0.0,0.0,0.0,0.0,0.0,0.0,0.0,0.0,0.0,0.0,0.0,0.0,0.0,0.0,0.0,0.0,0.0,0.0,0.0,0.0,0.0,0.0,0.0,0.0,0.0,0.0,0.0,0.0,0.0,0.0,0.0,0.0,0.0,0.0,0.0,0.0,0.0,0.0,0.0,0.0,0.0,0.0,0.0,0.0,0.0,0.0,0.0,0.0,0.0,0.0,0.0,0.0,0.0,0.0,0.0,0.0,0.0,0.0,0.0,0.0,0.0,0.0,0.0,0.0,0.0,0.0,0.0,0.0,0.0,0.0,0.0,0.0,0.0,0.0,0.0,0.0,0.0,0.0,0.0,0.0,0.0,0.0,0.0,0.0,0.0,0.0,0.0,0.0,0.0,0.0,0.0,0.0,0.0,0.0,0.0,0.0,0.0,0.0,0.0,0.0,0.0,0.0,0.0,0.0,0.0,0.0,0.0,0.0,0.0,0.0,0.0,0.0,0.0,0.0,0.0,0.0,0.0,0.0,0.0,0.0,0.0,0.0,0.0,0.0,0.0,0.0,0.0,0.0,0.0,0.0,0.0,0.0,0.0,0.0,0.0,0.0,0.0,0.0,0.0,0.0,0.0,0.0,0.0,0.0,0.0,0.0,0.0,0.0,0.0,0.0,0.0,0.0,0.0,0.0,0.0,0.0,0.0,0.0,0.0,0.0,0.0,0.0,0.0,0.0,0.0,0.0,0.0,0.0,0.0,0.0,0.0,0.0,0.0,0.0,0.0,0.0,0.0,0.0,0.0,0.0,0.0,0.0,0.0,0.0,0.0,0.0,0.0,0.0,0.0,0.0,0.0,0.0,0.0,0.0,0.0,0.0,0.0,0.0,0.0,0.0,0.0,0.0,0.0,0.0,0.0,0.0,0.0,0.0,0.0,0.0,0.0,0.0,0.0,0.0,0.0,0.0,0.0,0.0,0.0,0.0,0.0,0.0,0.0,0.0,0.0,0.0,0.0,0.0,0.0,0.0,0.0,0.0,0.0,0.0,0.0,0.0,0.0,0.0,0.0,0.0,0.0,0.0,0.0,0.0,0.0,0.0,0.0,0.0,0.0,0.0,0.0,0.0,0.0,0.0,0.0,0.0,0.0,0.0,0.0,0.0,0.0,0.0,0.0,0.0,0.0,0.0,0.0,0.0,0.0,0.0,0.0,0.0,0.0,0.0,0.0,0.0,0.0,0.0,0.0,0.0,0.0,0.0,0.0,0.0,0.0,0.0,0.0,0.0,0.0,0.0,0.0,0.0,0.0,0.0,0.0,0.0,0.0,0.0,0.0,0.0,0.0,0.0,0.0,0.0,0.0,0.0,0.0,0.0,0.0,0.0,0.0,0.0,0.0,0.0,0.0,0.0,0.0,0.0,0.0,0.0,0.0,0.0,0.0,0.0,0.0,0.0,0.0,0.0,0.0,0.0,0.0,0.0,0.0,0.0,0.0,0.0,0.0,0.0,0.0,0.0,0.0,0.0,0.0,0.0,0.0,0.0,0.0,0.0,0.0,0.0,0.0,0.0,0.0,0.0,0.0,0.0,0.0,0.0,0.0,0.0,0.0,0.0,0.0,0.0,0.0,0.0,0.0,0.0,0.0,0.0,0.0,0.0,0.0,0.0,0.0,0.0,0.0,0.0,0.0,0.0,0.0,0.0,0.0,0.0,0.0,0.0,0.0,0.0,0.0,0.0,0.0,0.0,0.0,0.0,0.0,0.0,0.0,0.0,0.0,0.0,0.0,0.0,0.0,0.0,0.0,0.0,0.0,0.0,0.0,0.0,0.0,0.0,0.0,0.0,0.0,0.0,0.0,0.0,0.0,0.0,0.0,0.0,0.0,0.0,0.0,0.0,0.6523,0.0,0.0,0.0,0.0,0.0,0.0,0.0,0.0,0.0,0.0,0.0,0.0,0.0,0.0,0.0,0.0,0.0,0.0,0.0,0.0,0.0,0.0,0.0,0.0,0.0,0.0,0.0,0.0,0.0,0.0,0.0,0.0,0.0,0.0,0.0,0.0,0.0,0.0,0.0,0.0,0.0,0.0,0.0,0.0,0.0,0.0,0.0,0.0,0.0,0.0,0.0,0.0,0.0,0.0,0.0,0.0,0.0,0.0,0.0,0.0,0.0,0.0,0.0,0.0,0.0,0.0,0.0,0.0,0.0,0.0,0.0,0.0,0.0,0.0,0.0,0.0,0.0,0.0,0.0,0.0,0.0,0.0,0.0,0.0,0.0,0.0,0.0,0.0,0.0,0.0,0.0,0.0,0.0,0.0,0.0,0.0,0.0,0.0,0.0,0.0,0.0,0.0,0.0,0.0,0.0,0.0,0.0,0.0,0.0,0.0,0.0,0.0,0.0,0.0,0.0,0.0,0.7905,0.0,0.0,0.0,0.0,0.0,0.0,0.0,0.0,0.0,0.0,0.0,0.0,0.0,0.0,0.0,0.0,0.0,0.0,0.0,0.0,0.0,0.0,0.0,0.0,0.0,0.0,0.0,0.0,0.0,0.0,0.0,0.0,0.0,0.0,0.0,0.0,0.0,0.0,0.0,0.0,0.0,0.0,0.0,0.0,0.0,0.0,0.0,0.0,0.0,0.0,0.0,0.0,0.0,0.0,0.0,0.0,0.0,0.0,0.0,0.0,0.0,0.0,0.0,0.0,0.0,0.0,0.0,0.0,0.0,0.0,0.0,0.0,0.0,0.0,0.0,0.0,0.0,0.0,0.0,0.0,0.0,0.0,0.0,0.0,0.0,0.0,0.0,0.0,0.0,0.0,0.0,0.0,0.0,0.0,0.0,0.0,0.0,0.0,0.0,0.0,0.0,0.0,0.0,0.0,0.0,0.0,0.0,0.0,1.1642,1.2862,1.0685,1.321,1.5054,1.6029,1.2326,1.0624,1.051,1.0691,0.0,0.0,0.0,0.0,0.0,0.0,0.0,0.0,0.0,0.0,0.0,0.0,0.0,0.0,0.0,0.0,0.0,0.0,0.0,0.0,0.0,0.0,0.0,0.0,0.0,0.0,0.0,0.0,0.0,0.0,0.0,0.0,0.0,0.0,0.0,0.0,0.0,0.0,-1.5795,-1.7074,-1.7977,-1.8639,-1.9989,0.0,0.0,0.0,0.0,0.0,0.0,0.0,0.0,0.0,0.0,0.0,0.0,0.0,0.0,0.0,0.0,0.0,0.0,0.0,0.0,0.0,0.0,0.0,0.0,0.0,0.0,0.0,0.0,0.0,0.0,0.0,0.0,0.0,0.0,0.0,0.0,0.0,0.0,0.0,0.0,0.0,0.0,0.0,-0.0915,0.0113,0.0,0.0,0.0,0.0,0.0,0.0,0.0,0.0,0.0,0.0,0.0,0.0,0.0,0.7566,0.7972,0.9256,1.0398,1.1345,1.3433,1.4799,1.5498,1.5598,1.6072,1.6764,1.6423,0.0,1.3681,1.3179,0.0,0.0,0.0,0.0,0.0,0.0,0.0,0.0,0.0,0.0,0.0,0.0,0.0,0.0,0.0,0.0,0.0,0.0,0.0,0.0,0.0,0.0,0.0,0.0,0.0,0.0,0.0,0.0,0.0,0.0,0.0,0.0,0.0,0.0,0.0,0.0,-1.2172,-1.2252,-1.161,-1.3128,-1.4282,-1.5138,-1.6447,-1.8341,-2.052,-2.0081,0.0,0.0,0.0,0.0,0.0,0.0,0.0,0.0,0.0,0.0,0.0,0.0,0.0,0.0,0.0,0.0,0.0,0.0,0.0,0.0,0.0,0.0,0.0,0.0,0.0,0.0,0.0,0.0,0.0,0.0,0.0,0.0,0.0,0.0,0.0,0.0,0.0,0.0,0.0,-0.1131,0.1624,0.5873,0.3988,0.3813,0.0,0.0,0.0,0.0,0.0,0.0,0.0,0.0,0.0,1.5033,1.4884,1.4652,1.4285,1.5427,1.6045,1.616,1.6499,1.7185,1.8041,1.7443,1.7622,1.8434,1.8446,1.8066,1.7301,1.597,1.5329,1.508,0.0,0.0,0.0,0.0,1.4202,1.4089,0.0,0.0,0.0,0.0,0.0,0.0,0.0,0.0,0.0,0.0,0.0,0.0,0.0,0.0,0.0,-0.3324,0.0,0.0,0.0,0.0,0.0,0.0,0.0,0.0,0.0,0.0,0.0,0.0,-0.7661,-0.8146,-0.7992,-0.9588,-1.098,-1.2056,-1.3142,-1.5765,-1.9322,-1.865,-1.897,0.0,0.0,0.0,0.0,0.0,0.0,0.0,0.0,0.0,0.0,0.0,0.0,0.0,0.0,0.0,0.0,0.0,0.0,0.0,0.0,0.0,0.0,0.0,0.0,0.0,0.0,0.0,0.0,0.0,0.0,0.0,0.0,0.0,0.0,0.0,0.0,0.0,0.0,0.1114,0.4583,1.1544,0.9565,0.8802,0.0,0.0,0.0,0.0,0.0,0.0,2.2116,2.204,2.1711,2.1396,2.1034,2.0515,1.9785,2.0028,2.0059,1.9921,1.9152,1.9236,2.0012,1.9195,1.9322,2.0184,2.0088,2.0093,2.0016,1.819,1.7232,1.6933,1.6644,1.6474,1.6362,1.6095,1.5828,1.5661,0.0,0.0,0.0,0.0,0.0,0.0,0.0,0.0,0.0,0.0,0.0,0.0,0.0,0.0,0.0666,-0.0138,0.1549,0.1772,0.0,0.0,0.0,0.0,0.0,0.0,0.0,0.0,0.0,-0.2286,-0.3637,-0.4931,-0.6242,-0.7694,-0.8996,-1.0254,-1.1085,-1.3641,-1.7316,-1.6824,-1.741,-1.8693,0.0,0.0,0.0,0.0,0.0,0.0,0.0,0.0,0.0,0.0,0.0,0.0,0.0,0.0,0.0,0.0,0.0,0.0,0.0,0.0,0.0,0.0,0.0,0.0,0.0,0.0,0.0,0.0,0.0,0.0,0.0,0.0,0.0,0.0,0.0,0.0,0.0,0.0,0.0,1.6262,1.2753,0.0,0.0,0.0,0.0,2.2492,2.3079,2.283,2.1985,2.2446,2.2485,2.1987,2.1758,2.1917,2.2503,2.1634,2.1454,2.1923,2.0512,2.0492,2.1635,2.1121,2.1144,2.1704,2.1799,2.1609,2.0988,1.9294,1.8843,1.9169,1.8452,1.8458,1.8749,1.8052,1.7229,1.6528,0.0,0.0,0.0,0.0,0.0,0.0,0.0,0.0,0.0,0.0,0.0,0.0,0.0,0.6501,0.7431,0.6912,0.7795,0.7748,0.6409,0.0,0.0,0.0,0.0,0.0,0.0,0.0,0.1486,0.0834,0.0331,-0.0242,-0.0994,-0.3011,-0.4465,-0.5414,-0.7424,-0.9765,-1.2218,-1.3994,-1.5757,-1.733,-1.7397,-1.7825,0.0,0.0,0.0,0.0,0.0,0.0,0.0,0.0,0.0,0.0,0.0,0.0,0.0,0.0,0.0,0.0,0.0,0.0,0.0,0.0,0.0,0.0,0.0,0.0,0.0,0.0,0.0,0.0,0.0,0.0,0.0,0.0,0.0,0.0,0.0,0.0,0.0,2.0186,1.8459,0.0,2.3561,2.2244,2.1979,2.4169,2.3538,2.3088,2.3249,2.25,2.2576,2.3659,2.3287,2.3245,2.3591,2.3629,2.3422,2.2875,2.1975,2.1975,2.274,2.2001,2.1939,2.2459,2.2338,2.2253,2.2207,2.1121,2.0414,1.9991,1.9585,1.9418,1.9258,1.8362,1.7885,1.7621,0.0,0.0,0.0,0.0,0.0,0.0,0.0,0.0,0.0,0.0,0.0,0.8837,0.9943,1.1444,1.2209,1.1836,1.1885,1.1602,1.0775,0.0,0.0,0.0,0.0,0.0,0.0,0.49,0.436,0.3566,0.3481,0.2986,0.2143,0.0194,-0.106,-0.1867,-0.4376,-0.6244,-0.774,-1.0369,-1.3026,-1.5545,-1.5684,-1.6296,-1.7111,0.0,0.0,0.0,0.0,0.0,0.0,0.0,0.0,0.0,0.0,0.0,0.0,0.0,0.0,0.0,0.0,0.0,0.0,0.0,0.0,0.0,0.0,0.0,0.0,0.0,0.0,0.0,0.0,0.0,0.0,0.0,0.0,0.0,0.0,0.0,1.507,2.3319,2.2465,2.2348,2.548,2.4936,2.445,2.4678,2.417,2.3943,2.4154,2.369,2.3891,2.5018,2.4834,2.4686,2.4728,2.5078,2.4867,2.4059,2.3629,2.36,2.3909,2.3227,2.2987,2.3051,2.2837,2.2748,2.2616,2.2055,2.1518,2.0985,2.0537,2.0207,1.9889,1.9182,1.8833,1.8561,0.0,0.0,0.0,0.0,0.0,0.0,0.0,0.0,0.0,0.0,1.1935,1.3092,1.3379,1.4252,1.4618,1.4066,1.3619,1.3081,1.2413,1.1583,0.0,0.0,0.0,0.0,0.7867,0.7848,0.7161,0.5865,0.5658,0.4613,0.2809,0.1732,0.0887,0.0139,-0.2048,-0.3382,-0.4183,-0.6,-0.9255,-1.3181,-1.3598,-1.4155,-1.4801,0.0,0.0,0.0,0.0,0.0,0.0,0.0,0.0,0.0,0.0,0.0,0.0,0.0,0.0,0.0,0.0,0.0,0.0,0.0,0.0,0.0,0.0,0.0,0.0,0.0,0.0,0.0,0.0,0.0,0.0,0.0,0.0,0.0,1.7496,1.5986,1.7584,2.5527,2.4338,2.3724,2.5925,2.5316,2.4699,2.4473,2.5485,2.5697,2.4657,2.5922,2.6499,2.6047,2.6153,2.6153,2.6047,2.5893,2.5738,2.5615,2.5349,2.5206,2.5221,2.4932,2.437,2.3555,2.3526,2.3041,2.2269,2.1944,2.2034,2.2214,2.1385,2.0924,2.0725,2.0562,2.0036,1.9208,0.0,0.0,0.0,0.0,0.0,0.0,0.0,0.0,0.0,0.0,1.2256,1.3,1.356,1.4522,1.5004,1.4814,1.4699,1.4541,1.4145,0.0,0.0,0.0,0.0,0.0,0.9098,0.8448,0.7833,0.7266,0.6813,0.6249,0.5581,0.4449,0.3643,0.3043,0.0583,-0.0806,-0.1424,-0.3291,-0.5193,-0.7226,-1.027,-1.207,-1.2969,0.0,0.0,0.0,0.0,0.0,0.0,0.0,0.0,0.0,0.0,0.0,0.0,0.0,0.0,0.0,0.0,0.0,0.0,0.0,0.0,0.0,0.0,0.0,0.0,0.0,0.0,0.0,0.0,0.0,0.0,0.0,0.0,1.8448,1.8893,1.956,2.1387,2.5265,2.512,2.5467,2.7415,2.7218,2.7079,2.7472,2.7365,2.7193,2.7065,2.6727,2.6715,2.7072,2.6871,2.673,2.6572,2.6525,2.6174,2.5458,2.5458,2.5616,2.5751,2.5282,2.5092,2.5006,2.4461,2.4255,2.4289,2.2964,2.2679,2.2916,2.2001,2.1519,2.1224,2.0806,1.9889,1.8725,0.0,0.0,0.0,0.0,0.0,0.0,0.0,0.0,0.0,0.0,1.2568,1.3346,1.3963,1.4644,1.5045,1.5092,1.4923,1.4892,1.5022,0.0,0.0,0.0,0.0,1.0946,1.0984,0.9892,0.9044,0.8464,0.7941,0.7426,0.6937,0.5916,0.5226,0.4817,0.2737,0.1544,0.0883,-0.1083,-0.258,-0.3899,-0.6455,-0.8558,-1.0208,-1.0607,-1.1,-1.1261,-1.0705,-1.0557,-1.0615,-1.059,0.0,0.0,0.0,0.0,0.0,0.0,0.0,0.0,0.0,0.0,0.0,0.0,0.0,0.0,0.0,0.0,0.0,0.0,0.0,0.0,0.0,0.0,0.0,0.0,2.0917,2.192,2.2113,2.2698,2.3747,2.5668,2.5952,2.6645,2.8273,2.8364,2.8449,2.8765,2.8722,2.8462,2.8015,2.7997,2.7885,2.7701,2.775,2.7603,2.7218,2.7375,2.7166,2.6614,2.6579,2.6636,2.6769,2.6126,2.5756,2.55,2.5077,2.481,2.462,2.3256,2.2912,0.0,0.0,0.0,0.0,0.0,2.0047,1.9198,0.0,0.0,0.0,0.0,0.0,0.0,0.0,0.0,0.0,0.0,0.0,1.3753,1.432,1.4638,1.4902,1.5033,1.4735,1.4811,0.0,0.0,0.0,1.4572,1.3761,1.319,1.2945,1.1669,1.057,0.9642,0.905,0.835,0.7516,0.6586,0.6076,0.5862,0.4522,0.3567,0.2841,0.083,-0.0768,-0.1995,-0.2487,-0.4519,-0.7336,-0.7687,-0.8138,-0.8597,-0.7957,-0.8281,-0.8926,-0.8326,0.0,0.0,0.0,0.0,0.0,0.0,0.0,0.0,0.0,0.0,0.0,0.0,0.0,0.0,0.0,0.0,0.0,0.0,0.0,0.0,0.0,0.0,0.0,0.0,2.4455,2.5456,2.614,2.5469,2.5364,2.6713,2.7003,2.7595,2.883,2.9061,2.9113,2.9016,2.9644,2.9477,2.8293,0.0,0.0,0.0,0.0,2.8478,2.7966,2.8263,2.8373,2.8373,2.8121,2.8013,2.7944,2.7283,2.6477,2.5559,2.5559,2.5048,2.417,2.3211,2.2971,2.2974,2.1616,2.0954,2.074,2.0588,2.0347,2.0105,0.0,0.0,0.0,0.0,0.0,0.0,0.0,0.0,0.0,1.1836,1.2257,1.277,1.3668,1.4487,1.4917,1.4868,1.5462,1.6093,0.0,0.0,1.5819,1.5463,1.4515,1.3709,1.3074,1.2223,1.1623,1.1281,1.0176,0.9406,0.8979,0.7762,0.7196,0.7113,0.5823,0.4967,0.4378,0.2995,0.2019,0.1302,0.0414,-0.2671,-0.6712,-0.6598,-0.6018,-0.5437,-0.6244,-0.649,-0.65,-0.6588,-0.5937,-0.4889,-0.3561,0.0,0.0,0.0,0.0,0.0,0.0,0.0,0.0,0.0,0.0,0.0,0.0,0.0,0.0,0.0,0.0,0.0,0.0,0.0,0.0,2.5141,2.6366,2.7254,2.753,2.7835,2.813,2.8351,2.8396,2.8778,2.9682,2.9811,2.9811,2.9796,2.9932,2.9887,2.9629,2.9236,2.9102,2.9199,2.8689,2.8515,2.8838,2.8902,2.8866,2.877,0.0,0.0,2.8295,2.8277,2.7705,2.6677,2.6677,2.6118,2.5149,2.4217,2.3313,2.2498,2.1707,2.1393,2.1289,2.0731,2.0347,2.0169,0.0,0.0,0.0,0.0,0.0,0.0,0.0,0.0,0.0,0.0,1.1704,1.2235,1.3285,1.3809,1.4278,1.47,1.5536,0.0,0.0,1.6623,1.677,1.6892,1.5711,1.5019,1.4916,1.3373,1.2401,1.1997,1.0972,1.0195,0.963,0.8787,0.8261,0.7949,0.722,0.6544,0.5798,0.4544,0.3706,0.3241,0.2942,0.1342,-0.099,-0.2098,-0.2316,-0.2035,-0.2208,-0.2487,-0.2709,-0.2868,-0.2378,-0.1555,-0.0717,0.0055,0.0609,0.0,0.0,0.0,0.0,0.0,0.0,0.0,0.0,0.0,0.0,0.0,0.0,0.0,0.0,2.1713,0.0,0.0,2.5938,2.6104,2.736,2.8312,2.8408,2.9019,2.9363,2.897,2.9232,2.9749,3.0588,3.0664,3.0814,3.1242,3.09,3.0513,3.0183,3.0003,2.9729,2.9317,2.9222,2.9098,2.8931,2.9198,2.9259,2.9088,2.9073,2.8958,2.8712,2.8326,2.7669,2.6835,2.69,2.6461,2.5654,2.4676,2.3564,2.2389,2.2047,2.193,2.1904,2.1471,2.1017,2.0694,0.0,0.0,0.0,0.0,0.0,0.0,0.0,0.0,0.0,0.0,1.1356,1.197,1.2975,1.3216,1.3689,0.0,0.0,0.0,0.0,1.6713,1.7348,1.7885,1.6723,1.6247,1.6508,1.459,1.3307,1.2818,1.1998,1.1239,1.0558,1.008,0.9596,0.9031,0.8739,0.8098,0.7141,0.5934,0.5114,0.4632,0.5044,0.5218,0.503,0.3044,0.2039,0.1763,0.2434,0.2099,0.1377,0.1379,0.1715,0.2163,0.205,0.2441,0.2998,0.3257,0.3641,0.0,0.0,0.0,0.0,0.0,0.0,0.0,0.0,0.0,1.4297,2.0813,2.1549,2.1656,2.3868,2.5712,2.6862,2.6791,2.8161,2.9229,2.9229,2.9767,3.0,2.9604,3.0072,3.066,3.1426,3.1442,3.1679,3.2184,3.1648,3.1012,3.0478,3.0733,3.0454,2.9398,2.978,2.968,2.9086,2.9493,2.9636,2.9445,2.9326,2.9252,2.9103,2.8369,2.7572,2.6782,2.6799,2.6511,2.5905,2.5069,2.4081,2.3027,2.3027,2.2972,2.2864,2.2312,2.1751,2.1243,0.0,0.0,0.0,0.0,0.0,0.0,0.0,0.0,0.0,0.0,0.0,0.0,0.0,0.0,0.0,0.0,0.0,0.0,1.6618,1.6576,1.6726,1.7186,1.692,1.6488,1.5932,1.5231,1.4828,1.4702,1.3757,1.3166,1.291,1.2183,1.1588,1.106,1.0437,0.9493,0.8289,0.7579,0.6777,0.5981,0.6299,0.6388,0.6426,0.6553,0.6485,0.6339,0.6465,0.5727,0.4728,0.4728,0.5301,0.5936,0.5517,0.6119,0.6781,0.591,0.0,0.6122,0.5629,0.6533,0.8293,1.117,1.2066,1.3055,0.0,0.0,1.8103,2.0491,2.1483,2.2587,2.4626,2.6022,2.7116,2.7897,2.9348,3.0424,3.0424,3.0482,3.0715,3.1209,3.1584,3.1914,3.2184,3.2003,3.1736,3.1279,3.1176,3.1102,3.1028,3.0498,3.0294,3.0409,2.9944,2.9753,2.9958,3.0029,2.9997,3.0011,3.0011,2.9737,2.9261,2.9191,2.8519,2.7434,2.6666,2.6316,2.6188,2.5827,2.5475,2.5159,2.5159,2.5097,2.4741,2.2794,2.1886,2.167,0.0,0.0,0.0,0.0,0.0,0.0,0.0,0.0,0.0,0.0,0.0,0.0,0.0,0.0,0.0,0.0,0.0,0.0,1.5853,1.5786,1.6107,1.7019,1.6569,1.6308,1.6327,1.5593,1.512,1.4878,1.4304,1.3755,1.3294,1.2616,1.2105,1.165,1.1004,1.0314,0.97,0.9011,0.8457,0.7939,0.7674,0.7582,0.7629,0.8218,0.8355,0.824,0.758,0.7031,0.0,0.0,0.6918,0.7209,0.7176,0.7498,0.7883,0.7794,0.7894,0.0,0.8763,0.991,0.0,0.0,1.4646,1.6016,1.7777,1.9081,2.0264,2.1888,2.3025,2.4203,2.5815,2.7276,2.8366,0.0,2.9872,3.0697,3.0337,3.0733,3.1127,3.1511,3.1936,3.2149,3.2014,3.1909,3.1792,3.1633,3.11,3.0821,3.0821,3.0335,3.0141,3.028,3.0036,2.9886,2.996,2.9898,2.9913,2.9803,2.9602,2.9401,2.9149,2.8766,2.8231,2.751,2.6812,2.6562,2.6498,2.6257,2.5858,2.5471,2.5421,2.5294,2.4963,2.3764,2.303,2.2693,0.0,0.0,0.0,0.0,0.0,0.0,0.0,0.0,0.0,0.0,0.0,0.0,0.0,0.0,0.0,0.0,0.0,0.0,0.0,1.5246,1.5711,1.6915,1.6425,1.6308,1.6692,1.5983,1.5502,1.5264,1.4752,1.4257,1.3795,1.3033,1.2508,1.2138,1.1546,1.1107,1.0776,1.016,0.9747,0.9436,0.9044,0.8881,0.8881,0.9436,0.9651,0.9496,0.8541,0.8171,0.0,0.0,0.8311,0.8561,0.8606,0.8815,0.9134,0.9673,0.9828,1.0159,1.1395,0.0,0.0,1.519,1.6747,1.8156,1.925,2.0575,2.1958,2.3142,2.4282,2.5516,2.6999,2.8339,2.9282,2.9619,3.0572,3.1076,3.0697,3.0993,3.1305,3.1445,3.1628,3.1613,3.1322,3.15,3.1576,3.1509,3.0843,3.0462,3.0462,3.0233,3.005,3.0036,3.0036,2.9898,2.9637,2.9637,2.9512,2.9289,2.9099,2.8908,2.878,2.8197,2.7802,2.751,2.7026,2.6844,2.6844,2.666,2.6284,2.582,2.5691,2.5574,2.5327,2.476,2.4279,2.3737,0.0,0.0,0.0,0.0,0.0,0.0,0.0,0.0,0.0,0.0,0.0,0.0,0.0,0.0,0.0,0.0,0.0,0.0,0.0,1.5259,1.558,1.6841,1.6765,1.668,1.6693,1.6484,1.6343,1.6343,1.5499,1.5062,1.5017,1.3888,1.3168,1.2773,1.2433,1.1909,1.1259,1.0897,1.0533,1.0167,1.0312,1.0261,1.021,1.0651,1.0769,1.0608,1.0072,0.0,0.0,0.0,0.9805,1.0521,1.0175,1.0612,0.0,1.1778,1.1729,0.0,0.0,0.0,1.4009,1.6689,1.7958,1.8907,2.0306,2.1963,2.3289,2.3854,2.4683,2.5985,2.8147,2.8739,2.9486,3.1293,3.1795,3.1874,3.1925,3.1411,3.1054,3.1117,3.0525,3.0168,0.0,3.0759,3.0859,3.0183,3.0125,3.0111,3.0111,3.0111,3.0036,2.9822,2.9808,2.9574,2.9099,2.9099,2.8972,2.8651,2.8587,2.8471,2.8145,2.7736,2.7523,2.7456,2.7323,2.731,2.7242,2.7053,2.6837,2.6663,2.6663,2.6539,2.6408,2.5762,2.5222,2.477,0.0,0.0,0.0,0.0,0.0,0.0,0.0,0.0,0.0,0.0,0.0,0.0,0.0,0.0,0.0,0.0,0.0,0.0,0.0,1.4565,1.4965,1.6068,1.6095,1.612,1.612,1.602,1.5981,1.587,1.5154,1.4888,1.5023,1.4251,1.3598,1.3074,1.2895,1.2475,1.1828,1.1719,1.1617,1.1567,1.1362,1.1413,1.1567,1.1472,1.1427,1.1318,0.0,0.0,0.0,0.0,0.0,0.0,1.1729,0.0,0.0,1.3062,0.0,0.0,0.0,0.0,1.6762,1.8343,1.9397,2.0392,2.1729,2.3043,2.4116,2.4788,2.5393,2.622,2.7565,2.8096,2.876,3.0087,3.0844,3.1156,3.1025,3.1268,3.1148,3.0372,3.0409,0.0,0.0,0.0,0.0,3.0125,2.9974,2.9884,2.9884,2.9851,2.9665,2.9338,2.9338,2.9149,2.878,2.878,2.8716,2.8587,2.8406,2.8079,2.7669,2.7536,2.7469,2.7335,2.7335,2.7214,2.7079,2.6863,2.6794,2.6714,2.6589,2.6521,2.6508,2.6239,2.605,2.5799,0.0,0.0,0.0,0.0,0.0,0.0,0.0,0.0,0.0,0.0,0.0,0.0,0.0,0.0,0.0,0.0,0.0,0.0,0.0,0.0,1.4601,1.5453,1.5533,1.5534,1.5534,1.5534,1.5519,1.5402,1.4784,1.4504,1.4628,1.3957,1.3411,1.2997,1.2945,1.2516,1.1877,1.1877,1.1769,1.161,1.1573,1.1727,1.1938,1.1876,1.1819,0.0,0.0,0.0,0.0,0.0,0.0,0.0,0.0,0.0,0.0,0.0,0.0,0.0,0.0,1.7246,1.8686,2.0031,2.0885,2.175,2.3157,2.4242,2.5036,2.564,2.6108,2.6712,2.7531,2.809,2.8687,2.9443,3.0304,3.0685,3.0048,3.0544,3.0616,2.9673,3.0122,0.0,0.0,0.0,0.0,3.0066,2.9897,2.9757,2.9694,2.9803,2.9638,2.9224,2.921,2.9015,2.8702,2.85,2.8327,2.8197,2.8,2.7736,2.7523,2.7469,2.7403,2.7268,2.7134,2.6998,2.6875,2.6726,2.6658,2.6589,2.6521,2.6533,2.6533,2.6533,2.6533,2.6433,0.0,0.0,0.0,0.0,0.0,0.0,0.0,0.0,0.0,0.0,0.0,0.0,0.0,0.0,0.0,0.0,0.0,0.0,0.0,0.0,0.0,1.505,1.5051,1.5062,1.5062,1.5062,1.5074,1.5051,1.4316,1.3941,1.3962,1.3085,1.2705,1.2627,1.2499,1.2094,1.1477,1.1469,1.1116,1.0549,1.1065,1.1335,1.1453,1.1886,0.0,0.0,0.0,0.0,0.0,0.0,0.0,0.0,0.0,0.0,0.0,0.0,0.0,1.6738,1.7447,1.8422,1.9707,2.1604,2.2259,2.2898,2.4585,2.5432,2.5984,2.6282,2.667,2.7152,0.0,0.0,2.8972,2.9498,3.0276,3.04,2.9348,2.9449,2.9485,0.0,0.0,0.0,0.0,0.0,0.0,2.9948,0.0,2.98,2.9469,2.9971,3.0025,2.9429,2.9375,2.9241,2.8945,2.8399,2.7921,2.7575,2.7549,2.7456,2.7456,2.7335,2.7268,2.7268,2.6863,2.6714,2.6658,2.6521,2.6533,2.6533,2.6533,2.6533,2.6533,2.6533,2.6465,2.6465,0.0,0.0,0.0,0.0,0.0,0.0,0.0,0.0,0.0,0.0,0.0,0.0,0.0,0.0,0.0,0.0,0.0,0.0,0.0,0.0,0.0,0.0,0.0,0.0,0.0,0.0,0.0,0.0,0.0,1.3476,1.3341,1.3017,1.2402,1.1628,1.191,1.1739,1.1167,1.1057,1.126,1.1592,0.0,1.1481,1.2428,0.0,0.0,0.0,0.0,0.0,0.0,0.0,0.0,0.0,0.0,0.0,1.638,0.0,0.0,1.8325,1.8907,1.9989,2.112,2.2031,2.2648,2.3218,2.4144,2.488,2.5521,2.5777,2.5845,2.5994,0.0,0.0,0.0,2.8593,2.9211,0.0,3.0024,3.0105,0.0,0.0,0.0,3.0146,2.9748,3.0065,0.0,0.0,3.0309,3.0188,3.0052,3.0214,3.009,2.9722,2.9267,2.905,2.918,2.8602,2.83,2.8164,2.7598,2.7335,2.7335,2.7146,2.7011,2.6863,2.6714,2.6658,2.6521,2.6533,2.6533,2.6533,2.6533,2.6533,2.6533,2.6533,2.6396,2.627,0.0,0.0,0.0,0.0,0.0,0.0,0.0,0.0,0.0,0.0,0.0,0.0,0.0,0.0,0.0,0.0,0.0,0.0,0.0,0.0,0.0,0.0,0.0,0.0,0.0,0.0,0.0,0.0,0.0,0.0,0.0,1.3063,1.2488,1.1619,1.1849,1.1507,1.0694,1.0584,0.0,0.0,0.0,0.0,0.0,0.0,0.0,0.0,0.0,0.0,0.0,0.0,0.0,1.481,1.5148,1.6173,1.7222,1.7198,0.0,1.9145,1.9455,2.0552,2.1796,2.2351,2.285,2.3475,2.4282,2.4882,2.5281,2.5394,2.5445,0.0,0.0,0.0,0.0,0.0,0.0,0.0,2.8986,2.9334,2.9348,0.0,2.9592,0.0,3.0174,3.0435,3.0823,0.0,3.082,3.0338,3.0197,3.0437,3.0392,2.994,2.9597,2.9324,2.9145,2.8948,2.8695,2.8459,2.7902,2.7562,2.7481,2.7046,2.6794,2.6714,0.0,2.6589,2.6533,2.6533,2.6533,2.6533,2.6533,2.6533,2.6465,2.6396,2.627,2.6201,0.0,0.0,0.0,0.0,0.0,0.0,0.0,0.0,0.0,0.0,0.0,0.0,0.0,0.0,0.0,0.0,0.0,0.0,0.0,0.0,0.0,0.0,0.0,0.0,0.0,0.0,0.0,0.0,0.0,0.0,0.0,0.0,0.0,0.0,0.0,0.0,0.0,0.0,0.0,0.0,0.0,0.0,0.0,0.0,0.0,0.0,0.0,0.0,0.0,0.0,1.4466,1.535,1.5499,1.6688,1.7918,1.7276,1.8203,1.9417,1.9494,2.0705,2.2039,2.2548,2.3038,2.3642,2.4551,2.49,2.504,2.5103,0.0,0.0,2.4966,0.0,2.7025,2.6122,0.0,2.8862,2.747,2.7889,2.8502,2.8771,2.9382,3.005,3.098,3.1003,3.1333,3.2124,3.1235,3.056,3.0359,3.0751,3.0725,3.015,3.0129,2.9835,2.9119,2.9249,2.9093,2.8682,2.8357,2.7978,2.7736,2.7043,2.6721,2.6658,2.6521,0.0,2.6533,2.6533,2.6465,2.6465,2.6465,2.6465,2.6396,2.6201,2.6131,2.6131,0.0,0.0,0.0,0.0,0.0,0.0,0.0,0.0,0.0,0.0,0.0,0.0,0.0,0.0,0.0,0.0,0.0,0.0,0.0,0.0,0.0,0.0,0.0,0.0,0.0,0.0,0.0,0.0,0.0,0.0,0.0,0.0,0.0,0.0,0.0,0.0,0.0,0.0,0.0,0.0,0.0,0.0,0.0,0.0,0.0,0.0,0.0,0.0,0.0,0.0,1.4904,1.552,1.5822,1.6562,1.7386,1.7967,1.8717,1.9451,1.992,2.102,2.2088,2.242,2.3051,2.3539,2.3586,2.4098,0.0,0.0,0.0,2.5248,2.4827,2.5452,0.0,2.6538,0.0,0.0,0.0,0.0,2.7866,0.0,0.0,0.0,0.0,0.0,0.0,0.0,0.0,3.1114,3.1446,3.1182,3.0725,3.015,3.0459,3.0271,2.9675,2.9529,2.9382,2.9369,2.8673,2.8104,2.7646,2.7334,2.6961,2.6521,2.6533,0.0,2.6533,2.6533,2.6396,2.627,2.627,2.6131,2.598,2.598,2.584,2.5688,0.0,0.0,0.0,0.0,0.0,0.0,0.0,0.0,0.0,0.0,0.0,0.0,0.0,0.0,0.0,0.0,0.0,0.0,0.0,0.0,0.0,0.0,0.0,0.0,0.0,0.0,0.0,0.0,0.0,0.0,0.0,0.0,0.0,0.0,0.0,0.0,0.0,0.0,0.0,0.0,0.0,0.0,0.0,0.0,0.0,0.0,0.0,0.0,0.0,0.0,1.5745,1.6181,1.6342,1.7183,1.8073,1.8061,1.8827,1.9726,1.9958,2.0868,2.1817,2.2097,2.2521,2.2823,2.2763,0.0,0.0,0.0,0.0,2.4326,2.4146,0.0,0.0,0.0,0.0,0.0,0.0,0.0,0.0,0.0,0.0,0.0,0.0,0.0,0.0,0.0,0.0,3.1731,3.1418,3.1068,3.0719,3.0446,3.0467,3.0316,2.9971,2.9958,2.9896,2.9682,2.9111,2.8619,2.8293,2.7918,2.7406,2.6892,2.6892,0.0,2.6866,2.6647,2.6734,2.6996,2.6425,2.6235,2.6328,2.6174,2.6103,2.6068,0.0,0.0,0.0,0.0,0.0,0.0,0.0,0.0,0.0,0.0,0.0,0.0,0.0,0.0,0.0,0.0,0.0,0.0,0.0,0.0,0.0,0.0,0.0,0.0,0.0,0.0,0.0,0.0,0.0,0.0,0.0,0.0,0.0,0.0,0.0,0.0,0.0,0.0,0.0,0.0,0.0,0.0,0.0,0.0,0.0,0.0,0.0,0.0,0.0,0.0,1.6623,1.7024,1.7024,1.7901,1.8767,1.8009,1.9016,2.0298,2.0261,2.109,2.1946,2.2054,2.2201,2.233,2.2221,2.2432,0.0,0.0,0.0,2.3666,2.3901,0.0,0.0,0.0,0.0,0.0,0.0,0.0,0.0,0.0,0.0,0.0,0.0,0.0,0.0,0.0,0.0,0.0,3.1133,3.0942,3.0814,3.0622,3.0457,3.0292,3.0075,3.0228,3.0075,2.9779,2.9341,2.9,2.8737,2.8298,2.7808,2.7293,2.7419,0.0,0.0,2.6922,2.7117,2.7594,2.6742,2.6525,2.6736,2.6591,2.6505,2.6566,0.0,0.0,0.0,0.0,0.0,0.0,0.0,0.0,0.0,0.0,0.0,0.0,0.0,0.0,0.0,0.0,0.0,0.0,0.0,0.0,0.0,0.0,0.0,0.0,0.0,0.0,0.0,0.0,0.0,0.0,0.0,0.0,0.0,0.0,0.0,0.0,0.0,0.0,0.0,0.0,0.0,0.0,0.0,0.0,0.0,0.0,0.0,0.0,0.0,0.0,0.0,1.7796,1.7796,1.8143,1.8453,1.8166,0.0,0.0,2.1327,2.2344,2.3227,2.2738,2.2795,2.2787,2.2306,0.0,0.0,0.0,2.3478,2.4327,2.5051,0.0,0.0,0.0,0.0,0.0,0.0,0.0,0.0,0.0,0.0,0.0,0.0,0.0,0.0,0.0,0.0,0.0,3.1436,3.1423,3.1113,3.0457,3.0228,3.0152,3.0075,2.9934,2.9869,2.9779,2.9202,2.8662,2.8185,2.8134,2.7808,2.7306,2.7615,0.0,0.0,2.7471,2.7348,2.7273,2.7175,2.7027,2.6863,2.6863,2.6851,2.6863,0.0,0.0,0.0,0.0,0.0,0.0,0.0,0.0,0.0,0.0,0.0,0.0,0.0,0.0,0.0,0.0,0.0,0.0,0.0,0.0,0.0,0.0,0.0,0.0,0.0,0.0,0.0,0.0,0.0,0.0,0.0,0.0,0.0,0.0,0.0,0.0,0.0,0.0,0.0,0.0,0.0,0.0,0.0,0.0,0.0,0.0,0.0,0.0,0.0,0.0,0.0,0.0,1.8581,1.9078,0.0,0.0,1.9655,2.0904,2.1404,2.2362,2.3219,2.2775,2.285,2.2847,2.2306,0.0,0.0,2.3096,2.3642,2.4267,2.5014,2.5602,2.6181,0.0,0.0,0.0,0.0,0.0,0.0,0.0,0.0,0.0,0.0,0.0,0.0,0.0,0.0,0.0,3.1148,3.0803,3.0522,3.0228,3.0011,2.9934,2.9934,2.9869,2.9792,2.9792,2.9566,2.9327,2.9126,2.895,2.8562,2.8051,2.8064,0.0,0.0,2.7656,2.7739,2.8098,2.7454,2.7255,2.7404,2.7404,2.7404,2.7452,0.0,0.0,0.0,0.0,0.0,0.0,0.0,0.0,0.0,0.0,0.0,0.0,0.0,0.0,0.0,0.0,0.0,0.0,0.0,0.0,0.0,0.0,0.0,0.0,0.0,0.0,0.0,0.0,0.0,0.0,0.0,0.0,0.0,0.0,0.0,0.0,0.0,0.0,0.0,0.0,0.0,0.0,0.0,0.0,0.0,0.0,0.0,0.0,0.0,0.0,0.0,0.0,0.0,0.0,0.0,0.0,2.0012,2.11,2.1812,2.2768,2.3491,2.3257,2.3251,2.3075,0.0,0.0,2.3034,2.3415,2.3865,2.452,2.5367,2.5894,2.6347,2.6814,0.0,0.0,0.0,0.0,0.0,0.0,0.0,0.0,0.0,0.0,0.0,0.0,0.0,0.0,3.0696,3.0213,3.0011,3.0011,2.9869,2.9792,2.9792,2.9792,2.9792,2.9792,2.9616,2.9528,2.9541,2.9272,2.8971,2.8611,2.8479,0.0,0.0,2.8008,2.8135,2.8652,2.79,2.7871,2.8186,2.8186,2.8282,2.8474,0.0,0.0,0.0,0.0,0.0,0.0,0.0,0.0,0.0,0.0,0.0,0.0,0.0,0.0,0.0,0.0,0.0,0.0,0.0,0.0,0.0,0.0,0.0,0.0,0.0,0.0,0.0,0.0,0.0,0.0,0.0,0.0,0.0,0.0,0.0,0.0,0.0,0.0,0.0,0.0,0.0,0.0,0.0,0.0,0.0,0.0,0.0,0.0,0.0,0.0,0.0,0.0,0.0,0.0,0.0,0.0,2.0869,2.236,2.3085,2.3795,2.4324,2.4438,2.4133,2.3616,0.0,0.0,2.3477,2.3489,2.4176,2.5224,2.6536,2.6483,2.6604,0.0,0.0,0.0,0.0,0.0,0.0,0.0,0.0,0.0,0.0,0.0,0.0,0.0,0.0,0.0,3.0126,2.9934,2.9792,2.9792,2.9792,2.9792,2.9792,2.9792,2.9792,2.9779,2.9214,2.8938,2.8938,2.8699,2.8611,0.0,0.0,0.0,0.0,2.8566,2.8498,2.851,2.8498,2.8823,2.928,2.928,2.9617,3.0062,0.0,0.0,0.0,0.0,0.0,0.0,0.0,0.0,0.0,0.0,0.0,0.0,0.0,0.0,0.0,0.0,0.0,0.0,0.0,0.0,0.0,0.0,0.0,0.0,0.0,0.0,0.0,0.0,0.0,0.0,0.0,0.0,0.0,0.0,0.0,0.0,0.0,0.0,0.0,0.0,0.0,0.0,0.0,0.0,0.0,0.0,0.0,0.0,0.0,0.0,0.0,0.0,0.0,0.0,0.0,0.0,0.0,0.0,2.2687,2.3601,2.4169,2.3586,2.3616,2.3532,2.2642,0.0,2.3587,2.3968,2.5099,2.6118,2.6539,2.6917,2.7181,0.0,0.0,0.0,0.0,0.0,0.0,0.0,0.0,0.0,0.0,0.0,0.0,0.0,0.0,0.0,2.9869,2.9869,2.9792,2.9792,2.9792,2.9792,2.9792,2.9792,2.9792,2.9792,2.9603,2.9426,2.9247,2.9015,2.886,0.0,0.0,0.0,0.0,2.851,2.851,2.851,2.851,2.8835,2.9304,2.9304,2.9629,3.0086,0.0,0.0,0.0,0.0,0.0,0.0,0.0,0.0,0.0,0.0,0.0,0.0,0.0,0.0,0.0,0.0,0.0,0.0,0.0,0.0,0.0,0.0,0.0,0.0,0.0,0.0,0.0,0.0,0.0,0.0,0.0,0.0,0.0,0.0,0.0,0.0,0.0,0.0,0.0,0.0,0.0,0.0,0.0,0.0,0.0,0.0,0.0,0.0,0.0,0.0,0.0,0.0,0.0,0.0,0.0,0.0,0.0,0.0,0.0,2.3328,2.3728,2.3869,2.3821,0.0,0.0,0.0,2.4251,2.4792,2.5784,2.6647,2.7005,2.7347,2.7538,2.7386,0.0,0.0,0.0,0.0,0.0,0.0,0.0,0.0,0.0,0.0,0.0,0.0,0.0,0.0,3.0105,2.9905,2.9792,2.9792,2.9792,2.9792,2.9792,2.9792,2.9792,2.9611,2.9611,2.9521,2.9275,2.904,2.8882,0.0,0.0,0.0,0.0,2.851,2.851,2.8534,2.8727,2.9136,2.9629,2.9821,3.023,3.0675,0.0,0.0,0.0,0.0,0.0,0.0,0.0,0.0,0.0,0.0,0.0,0.0,0.0,0.0,0.0,0.0,0.0,0.0,0.0,0.0,0.0,0.0,0.0,0.0,0.0,0.0,0.0,0.0,0.0,0.0,0.0,0.0,0.0,0.0,0.0,0.0,0.0,0.0,0.0,0.0,0.0,0.0,0.0,0.0,0.0,0.0,0.0,0.0,0.0,0.0,0.0,0.0,0.0,0.0,0.0,0.0,0.0,0.0,0.0,0.0,0.0,0.0,0.0,0.0,0.0,0.0,0.0,0.0,2.6275,2.6917,2.7871,2.7851,2.7855,0.0,0.0,0.0,0.0,0.0,0.0,0.0,0.0,0.0,0.0,0.0,0.0,0.0,0.0,0.0,3.0528,3.0093,2.9817,2.9854,2.9854,2.9829,2.9792,2.9829,2.9674,2.9481,2.944,2.9386,2.9175,2.8992,2.8913,0.0,0.0,0.0,0.0,2.857,2.8546,2.8558,2.9051,2.9593,3.0146,3.0639,3.118,3.1661,0.0,0.0,0.0,0.0,0.0,0.0,0.0,0.0,0.0,0.0,0.0,0.0,0.0,0.0,0.0,0.0,0.0,0.0,0.0,0.0,0.0,0.0,0.0,0.0,0.0,0.0,0.0,0.0,0.0,0.0,0.0,0.0,0.0,0.0,0.0,0.0,0.0,0.0,0.0,0.0,0.0,0.0,0.0,0.0,0.0,0.0,1.6526,0.0,0.0,0.0,0.0,0.0,0.0,0.0,0.0,0.0,2.1751,0.0,0.0,0.0,0.0,0.0,0.0,0.0,0.0,0.0,0.0,0.0,0.0,2.8172,2.7582,2.8059,2.8384,0.0,0.0,0.0,0.0,0.0,0.0,0.0,0.0,0.0,0.0,0.0,0.0,0.0,0.0,3.0263,2.9488,2.9663,2.9993,3.0407,3.0419,3.0127,2.9521,2.992,2.9973,2.9825,3.0244,3.0278,3.0056,3.0056,2.9961,0.0,0.0,0.0,2.9112,2.9112,2.8871,2.8522,2.8643,2.9268,3.011,3.023,3.0867,3.1661,0.0,0.0,0.0,0.0,0.0,0.0,0.0,0.0,0.0,0.0,0.0,0.0,0.0,0.0,0.0,0.0,0.0,0.0,0.0,0.0,0.0,0.0,0.0,0.0,0.0,0.0,0.0,0.0,0.0,0.0,0.0,0.0,0.0,0.0,0.0,0.0,0.0,0.0,0.0,0.0,0.0,0.0,0.0,0.0,0.0,0.0,1.6663,1.7214,0.0,1.8192,1.8911,1.9605,0.0,0.0,0.0,0.0,2.1669,0.0,0.0,0.0,0.0,0.0,0.0,0.0,0.0,0.0,0.0,0.0,0.0,0.0,2.8398,0.0,0.0,0.0,0.0,0.0,0.0,0.0,0.0,0.0,0.0,0.0,0.0,0.0,0.0,0.0,0.0,3.0406,2.9882,3.0244,3.0338,3.0135,3.0041,3.0069,3.0189,3.0475,3.0474,3.0159,3.0453,3.0433,3.0265,3.0265,3.017,0.0,0.0,0.0,2.928,2.9039,2.8775,2.8558,2.9039,2.9581,3.0146,3.0627,3.1168,3.1661,0.0,0.0,0.0,0.0,0.0,0.0,0.0,0.0,0.0,0.0,0.0,0.0,0.0,0.0,0.0,0.0,0.0,0.0,0.0,0.0,0.0,0.0,0.0,0.0,0.0,0.0,0.0,0.0,0.0,0.0,0.0,0.0,0.0,0.0,0.0,0.0,0.0,0.0,0.0,0.0,0.0,0.0,0.0,0.0,0.0,0.0,0.0,0.0,0.0,1.7176,1.7978,1.9039,1.8942,0.0,0.0,0.0,0.0,0.0,0.0,0.0,0.0,0.0,0.0,0.0,0.0,0.0,0.0,0.0,0.0,0.0,0.0,0.0,0.0,0.0,0.0,0.0,0.0,0.0,0.0,0.0,0.0,0.0,0.0,0.0,0.0,0.0,0.0,3.0659,3.0399,3.0507,3.0253,2.9565,2.9285,2.9662,3.0807,3.0817,3.0709,3.047,3.0555,3.0507,3.0326,3.0326,3.0326,3.0302,0.0,0.0,2.9508,2.9051,2.8823,2.8835,2.9737,3.0134,3.0314,3.1029,3.14,3.1472,0.0,0.0,0.0,0.0,0.0,0.0,0.0,0.0,0.0,0.0,0.0,0.0,0.0,0.0,0.0,0.0,0.0,0.0,0.0,0.0,0.0,0.0,0.0,0.0,0.0,0.0,0.0,0.0,0.0,0.0,0.0,0.0,0.0,0.0,0.0,0.0,0.0,0.0,0.0,0.0,0.0,0.0,0.0,0.0,0.0,0.0,0.0,0.0,0.0,1.7978,1.8576,1.9187,1.8724,0.0,0.0,0.0,0.0,0.0,2.3743,2.4673,0.0,0.0,0.0,0.0,0.0,0.0,0.0,0.0,0.0,0.0,0.0,0.0,0.0,0.0,0.0,0.0,0.0,0.0,0.0,0.0,0.0,0.0,0.0,0.0,0.0,0.0,0.0,3.0039,2.8443,2.8494,2.8751,2.9121,2.8833,2.8847,2.9274,2.9692,3.0206,3.0845,3.1291,3.1508,3.142,3.142,3.142,3.142,0.0,3.1048,3.0627,3.0543,3.0254,2.9857,3.0025,3.0362,3.0685,3.0021,3.0082,3.0351,0.0,0.0,0.0,0.0,0.0,0.0,0.0,0.0,0.0,0.0,0.0,0.0,0.0,0.0,0.0,0.0,0.0,0.0,0.0,0.0,0.0,0.0,0.0,0.0,0.0,0.0,0.0,0.0,0.0,0.0,0.0,0.0,0.0,0.0,0.0,0.0,0.0,0.0,0.0,0.0,0.0,0.0,0.0,0.0,0.0,0.0,0.0,0.0,0.0,0.0,1.8104,1.8633,1.8172,0.0,0.0,0.0,0.0,0.0,2.3503,2.4659,0.0,0.0,0.0,0.0,0.0,0.0,0.0,0.0,0.0,0.0,0.0,0.0,0.0,0.0,0.0,0.0,0.0,0.0,0.0,0.0,0.0,0.0,0.0,0.0,0.0,0.0,0.0,0.0,2.7996,2.8327,2.8486,2.8272,2.7985,2.8174,2.8866,2.8554,2.881,2.9736,3.0528,3.0913,3.0913,3.1472,3.1661,3.1649,0.0,3.1096,3.0855,3.0028,2.9853,3.011,2.9863,2.9851,2.9998,2.9263,2.9137,2.9235,0.0,0.0,0.0,0.0,0.0,0.0,0.0,0.0,0.0,0.0,0.0,0.0,0.0,0.0,0.0,0.0,0.0,0.0,0.0,0.0,0.0,0.0,0.0,0.0,0.0,0.0,0.0,0.0,0.0,0.0,0.0,0.0,0.0,0.0,0.0,0.0,0.0,0.0,0.0,0.0,0.0,0.0,0.0,0.0,0.0,0.0,0.0,0.0,0.0,0.0,0.0,0.0,0.0,0.0,0.0,0.0,2.1636,2.2903,2.3527,2.4803,2.5828,0.0,0.0,0.0,0.0,0.0,0.0,0.0,0.0,0.0,0.0,0.0,0.0,0.0,0.0,0.0,0.0,0.0,0.0,0.0,0.0,0.0,0.0,0.0,0.0,0.0,0.0,0.0,2.7662,2.8121,2.7945,2.7315,2.702,2.72,2.7945,2.72,2.7474,2.868,2.951,2.9977,3.026,3.0722,3.1104,3.1359,3.0678,3.0413,3.0291,2.9083,2.9109,2.9773,2.9358,2.9127,2.8813,2.8446,2.8215,2.7851,0.0,0.0,0.0,0.0,0.0,0.0,0.0,0.0,0.0,0.0,0.0,0.0,0.0,0.0,0.0,0.0,0.0,0.0,0.0,0.0,0.0,0.0,0.0,0.0,0.0,0.0,0.0,0.0,0.0,0.0,0.0,0.0,0.0,0.0,0.0,0.0,0.0,0.0,0.0,0.0,0.0,0.0,0.0,0.0,0.0,0.0,0.0,0.0,0.0,0.0,0.0,0.0,0.0,0.0,0.0,0.0,2.1496,2.2457,2.4434,2.5529,2.598,2.5229,0.0,0.0,0.0,0.0,0.0,0.0,0.0,0.0,0.0,0.0,0.0,0.0,0.0,0.0,0.0,0.0,0.0,0.0,0.0,0.0,0.0,0.0,0.0,0.0,0.0,0.0,2.6986,2.6582,2.6284,2.6187,2.5917,2.583,2.5927,2.583,2.6744,2.868,2.8773,2.9326,3.017,2.9326,2.9429,3.026,2.9293,2.8903,2.8811,2.8778,2.8767,2.8767,2.88,2.8161,2.7327,2.7358,2.6744,2.5927,0.0,0.0,0.0,0.0,0.0,0.0,0.0,0.0,0.0,0.0,0.0,0.0,0.0,0.0,0.0,0.0,0.0,0.0,0.0,0.0,0.0,0.0,0.0,0.0,0.0,0.0,0.0,0.0,0.0,0.0,0.0,0.0,0.0,0.0,0.0,0.0,0.0,0.0,0.0,0.0,0.0,0.0,0.0,0.0,0.0,0.0,0.0,0.0,0.0,0.0,1.7784,0.0,0.0,0.0,0.0,0.0,2.269,2.3711,2.4374,2.5411,0.0,0.0,0.0,0.0,0.0,0.0,0.0,0.0,0.0,0.0,0.0,0.0,0.0,0.0,0.0,0.0,0.0,0.0,0.0,0.0,0.0,0.0,0.0,0.0,0.0,0.0,0.0,0.0,2.6217,2.5927,2.582,2.582,2.5732,2.5742,2.5742,2.5742,2.61,2.6839,2.7474,2.7934,2.8308,2.8588,2.8958,2.9235,2.8866,2.868,2.868,2.8028,2.8121,2.868,2.8028,2.7558,2.7094,2.6456,2.6004,2.5742,0.0,0.0,0.0,0.0,0.0,0.0,0.0,0.0,0.0,0.0,0.0,0.0,0.0,0.0,0.0,0.0,0.0,0.0,0.0,0.0,0.0,0.0,0.0,0.0,0.0,0.0,0.0,0.0,0.0,0.0,0.0,0.0,0.0,0.0,0.0,0.0,0.0,0.0,0.0,0.0,0.0,0.0,0.0,0.0,0.0,0.0,0.0,0.0,0.0,0.0,1.7996,0.0,0.0,0.0,0.0,0.0,2.3195,2.4087,2.4335,2.5277,0.0,0.0,0.0,0.0,0.0,0.0,0.0,0.0,0.0,0.0,0.0,0.0,0.0,0.0,0.0,0.0,0.0,0.0,0.0,0.0,0.0,0.0,0.0,0.0,0.0,0.0,0.0,0.0,0.0,2.5732,2.5742,2.5742,2.5742,2.5742,2.5742,2.5742,2.5742,2.5732,2.637,2.6914,2.7189,2.7568,2.7945,2.8215,2.7851,2.7757,2.7662,2.702,2.7105,2.7662,2.702,2.6733,2.6648,2.5917,2.5742,2.5742,0.0,0.0,0.0,0.0,0.0,0.0,0.0,0.0,0.0,0.0,0.0,0.0,0.0,0.0,0.0,0.0,0.0,0.0,0.0,0.0,0.0,0.0,0.0,0.0,0.0,0.0,0.0,0.0,0.0,0.0,0.0,0.0,0.0,0.0,0.0,0.0,0.0,0.0,0.0,0.0,0.0,0.0,0.0,0.0,0.0,0.0,0.0,0.0,0.0,0.0,1.8682,2.0116,0.0,0.0,0.0,2.2303,2.2726,2.3051,2.4412,2.5209,0.0,0.0,0.0,0.0,0.0,0.0,0.0,0.0,0.0,0.0,0.0,0.0,0.0,0.0,0.0,0.0,0.0,0.0,0.0,0.0,0.0,0.0,0.0,0.0,0.0,0.0,0.0,0.0,0.0,2.582,2.5742,2.5742,2.5742,2.5742,2.5742,2.5742,2.5742,2.5742,2.5742,2.6187,2.7189,2.6197,2.6284,2.7094,2.6091,2.5742,2.5742,2.5742,2.5742,2.5742,2.5742,2.5742,2.5742,2.5742,2.5742,2.5742,0.0,0.0,0.0,0.0,0.0,0.0,0.0,0.0,0.0,0.0,0.0,0.0,0.0,0.0,0.0,0.0,0.0,0.0,0.0,0.0,0.0,0.0,0.0,0.0,0.0,0.0,0.0,0.0,0.0,0.0,0.0,0.0,0.0,0.0,0.0,0.0,0.0,0.0,0.0,0.0,0.0,0.0,0.0,0.0,0.0,0.0,0.0,0.0,0.0,0.0,0.0,0.0,0.0,0.0,0.0,2.3289,2.4122,2.4806,2.5256,0.0,0.0,0.0,0.0,0.0,0.0,0.0,0.0,0.0,0.0,0.0,0.0,0.0,0.0,0.0,0.0,0.0,0.0,0.0,0.0,0.0,0.0,0.0,0.0,0.0,0.0,0.0,0.0,0.0,0.0,2.5732,2.5742,2.5742,2.5742,2.5742,2.5742,2.5742,2.5742,2.5742,2.5742,2.583,2.6091,2.583,2.582,2.61,2.583,2.5742,2.5742,2.5742,2.5742,2.5742,2.5742,2.5742,2.5742,2.5742,2.5742,2.5742,0.0,0.0,0.0,0.0,0.0,0.0,0.0,0.0,0.0,0.0,0.0,0.0,0.0,0.0,0.0,0.0,0.0,0.0,0.0,0.0,0.0,0.0,0.0,0.0,0.0,0.0,0.0,0.0,0.0,0.0,0.0,0.0,0.0,0.0,0.0,0.0,0.0,0.0,0.0,0.0,0.0,0.0,0.0,0.0,0.0,0.0,0.0,0.0,0.0,0.0,0.0,0.0,0.0,0.0,0.0,2.4129,2.4619,2.5008,2.5222,0.0,0.0,0.0,0.0,0.0,0.0,0.0,0.0,0.0,0.0,0.0,0.0,0.0,0.0,0.0,0.0,0.0,0.0,0.0,0.0,0.0,0.0,0.0,0.0,0.0,0.0,0.0,0.0,0.0,0.0,2.5742,2.5742,2.5742,2.5742,2.5742,2.5742,2.5742,2.5742,2.5742,2.5742,2.5742,2.5742,2.5742,2.5742,2.5742,2.5742,2.5742,2.5742,2.5742,2.5742,2.5742,2.5742,2.5742,2.5742,2.5742,2.5742,2.5742,0.0,0.0,0.0,0.0,0.0,0.0,0.0,0.0,0.0,0.0,0.0,0.0,0.0,0.0,0.0,0.0,0.0,0.0,0.0,0.0,0.0,0.0,0.0,0.0,0.0,0.0,0.0,0.0,0.0,0.0,0.0,0.0,0.0,0.0,0.0,0.0,0.0,0.0,0.0,0.0,0.0,0.0,0.0,0.0,0.0,0.0,0.0,0.0,0.0,0.0,0.0,0.0,2.2775,2.3386,2.4243,2.4745,2.4544,0.0,0.0,0.0,0.0,0.0,0.0,0.0,0.0,0.0,0.0,0.0,0.0,0.0,0.0,0.0,0.0,0.0,0.0,0.0,0.0,0.0,0.0,0.0,0.0,0.0,0.0,0.0,0.0,0.0,0.0,0.0,0.0,2.5742,2.5742,2.5742,2.5742,2.5742,2.5742,2.5693,2.5693,2.5742,2.5693,2.5693,2.5742,2.5742,2.5742,2.5742,2.5742,2.5742,2.5742,2.5742,2.5742,2.5742,2.5742,2.5742,2.5742,2.5742,2.5742,2.5742,0.0,0.0,0.0,0.0,0.0,0.0,0.0,0.0,0.0,0.0,0.0,0.0,0.0,0.0,0.0,0.0,0.0,0.0,0.0,0.0,0.0,0.0,0.0,0.0,0.0,0.0,0.0,0.0,0.0,0.0,0.0,0.0,0.0,0.0,0.0,0.0,0.0,0.0,0.0,0.0,0.0,0.0,0.0,0.0,0.0,0.0,0.0,0.0,0.0,0.0,0.0,0.0,2.3289,2.43,2.5272,2.5385,2.5347,0.0,0.0,0.0,0.0,0.0,0.0,0.0,0.0,0.0,0.0,0.0,0.0,0.0,0.0,0.0,0.0,0.0,0.0,0.0,0.0,0.0,0.0,0.0,0.0,0.0,0.0,0.0,0.0,0.0,0.0,0.0,2.5742,2.5742,2.5742,2.5742,2.5742,2.5742,2.5742,2.5391,2.5391,0.0,2.5381,2.54,2.5742,2.5742,2.5742,2.5742,2.5742,2.5742,2.5742,2.5742,2.5742,2.5742,2.5742,2.5742,2.5742,2.5742,2.5742,2.5742,0.0,0.0,0.0,0.0,0.0,0.0,0.0,0.0,0.0,0.0,0.0,0.0,0.0,0.0,0.0,0.0,0.0,0.0,0.0,0.0,0.0,0.0,0.0,0.0,0.0,0.0,0.0,0.0,0.0,0.0,0.0,0.0,0.0,0.0,0.0,0.0,0.0,0.0,0.0,0.0,0.0,0.0,0.0,0.0,0.0,0.0,0.0,0.0,0.0,0.0,0.0,0.0,0.0,0.0,2.5272,2.5523,0.0,0.0,0.0,0.0,0.0,0.0,0.0,0.0,0.0,0.0,0.0,0.0,0.0,0.0,0.0,0.0,0.0,0.0,0.0,0.0,0.0,0.0,0.0,0.0,0.0,0.0,0.0,0.0,0.0,0.0,0.0,2.5742,2.5742,2.5742,2.5742,2.5742,2.5742,2.5635,2.542,2.54,2.54,2.542,2.54,2.5508,2.5742,2.5742,2.5742,2.5742,2.5742,2.5742,2.5742,2.5742,2.5742,2.5742,2.5742,2.5742,2.5742,2.5742,2.5742,2.5762,0.0,0.0,0.0,0.0,0.0,0.0,0.0,0.0,0.0,0.0,0.0,0.0,0.0,0.0,0.0,0.0,0.0,0.0,0.0,0.0,0.0,0.0,0.0,0.0,0.0,0.0,0.0,0.0,0.0,0.0,0.0,0.0,0.0,0.0,0.0,0.0,0.0,0.0,0.0,0.0,0.0,0.0,0.0,0.0,0.0,0.0,0.0,0.0,0.0,2.2137,0.0,0.0,0.0,0.0,2.5046,2.5473,0.0,0.0,0.0,0.0,0.0,0.0,0.0,0.0,0.0,0.0,0.0,0.0,0.0,0.0,0.0,0.0,0.0,0.0,0.0,0.0,0.0,0.0,0.0,0.0,0.0,0.0,0.0,0.0,0.0,0.0,0.0,2.5742,2.5742,2.5664,2.5625,2.5625,2.5625,2.5439,2.5068,2.5439,2.5478,2.5195,2.5557,2.5742,2.5742,2.5742,2.5742,2.5742,2.5742,2.5742,2.5742,2.5742,2.5742,2.5742,2.5742,2.5742,2.5752,2.582,2.585,2.5918,0.0,0.0,0.0,0.0,0.0,0.0,0.0,0.0,0.0,0.0,0.0,0.0,0.0,0.0,0.0,0.0,0.0,0.0,0.0,0.0,0.0,0.0,0.0,0.0,0.0,0.0,0.0,0.0,0.0,0.0,0.0,0.0,0.0,0.0,0.0,0.0,0.0,0.0,0.0,0.0,0.0,0.0,0.0,0.0,0.0,0.0,0.0,0.0,0.0,0.0,2.3232,0.0,0.0,0.0,0.0,0.0,0.0,0.0,0.0,0.0,0.0,0.0,0.0,0.0,0.0,0.0,0.0,0.0,0.0,0.0,0.0,0.0,0.0,0.0,0.0,0.0,0.0,0.0,0.0,0.0,0.0,0.0,0.0,0.0,0.0,0.0,2.5518,2.5742,2.5742,2.5371,2.5156,2.5156,2.5156,2.5127,2.5068,2.5127,2.5322,2.5644,2.5713,2.5742,2.5742,2.5742,2.5742,2.5742,2.5742,2.5742,2.5742,2.5742,2.5742,2.5742,2.5742,2.5742,2.5781,2.6162,2.6299,2.6367,0.0,0.0,0.0,0.0,0.0,0.0,0.0,0.0,0.0,0.0,0.0,0.0,0.0,0.0,0.0,0.0,0.0,0.0,0.0,0.0,0.0,0.0,0.0,0.0,0.0,0.0,0.0,0.0,0.0,0.0,0.0,1.6585,1.6598,0.0,0.0,0.0,0.0,0.0,0.0,0.0,0.0,0.0,0.0,0.0,0.0,0.0,0.0,0.0,0.0,0.0,0.0,0.0,0.0,0.0,0.0,0.0,0.0,0.0,0.0,0.0,0.0,0.0,0.0,0.0,0.0,0.0,0.0,0.0,0.0,0.0,0.0,0.0,0.0,0.0,0.0,0.0,0.0,0.0,0.0,0.0,0.0,0.0,0.0,0.0,0.0,0.0,2.5391,2.5361,2.5361,2.4941,2.4697,2.4697,2.4941,2.4951,2.4707,2.5195,2.5537,2.5742,2.5742,2.5742,2.5742,2.5742,2.5742,2.5742,2.5742,2.5742,2.5742,2.5742,2.5742,2.5742,2.5742,2.5742,2.5791,2.623,2.6387,2.6484,0.0,0.0,0.0,0.0,0.0,0.0,0.0,0.0,0.0,0.0,0.0,0.0,0.0,0.0,0.0,0.0,0.0,0.0,0.0,0.0,0.0,0.0,0.0,0.0,0.0,0.0,0.0,0.0,0.0,0.0,1.6692,1.7061,1.6729,0.0,1.6344,0.0,0.0,0.0,0.0,0.0,0.0,0.0,0.0,0.0,0.0,0.0,0.0,0.0,0.0,0.0,0.0,0.0,0.0,0.0,0.0,0.0,0.0,0.0,0.0,0.0,0.0,0.0,0.0,0.0,0.0,0.0,0.0,0.0,0.0,0.0,0.0,0.0,0.0,0.0,0.0,0.0,0.0,0.0,0.0,0.0,0.0,0.0,0.0,0.0,0.0,0.0,2.5322,2.5117,2.5234,2.4609,2.4355,2.458,2.4785,2.4805,2.458,2.5352,2.5742,2.5742,2.5742,2.5742,2.5742,2.5742,2.5742,2.5742,2.5742,2.5742,2.5742,2.5742,2.5742,2.5742,2.5742,2.5742,2.5791,2.623,2.6455,2.665,0.0,0.0,0.0,0.0,0.0,0.0,0.0,0.0,0.0,0.0,0.0,0.0,0.0,0.0,0.0,0.0,0.0,0.0,0.0,0.0,0.0,0.0,0.0,0.0,0.0,0.0,0.0,0.0,0.0,0.0,1.5766,1.6907,1.6799,1.5816,1.6344,1.7472,1.8879,0.0,0.0,0.0,0.0,0.0,0.0,0.0,0.0,0.0,0.0,0.0,0.0,0.0,0.0,0.0,0.0,0.0,0.0,0.0,0.0,0.0,0.0,0.0,0.0,0.0,0.0,0.0,0.0,0.0,0.0,0.0,0.0,0.0,0.0,0.0,0.0,0.0,0.0,0.0,0.0,0.0,0.0,0.0,0.0,0.0,0.0,0.0,0.0,0.0,2.5322,2.5254,2.5684,2.4502,2.4199,2.501,2.4658,2.4639,2.5029,2.5508,2.5742,2.5742,2.5742,2.5742,2.5742,2.5742,2.5742,2.5742,2.5742,2.5742,2.5742,2.5742,2.5742,2.5742,2.5742,2.5742,2.5791,2.623,2.6641,2.7051,0.0,0.0,0.0,0.0,0.0,0.0,0.0,0.0,0.0,0.0,0.0,0.0,0.0,0.0,0.0,0.0,0.0,0.0,0.0,0.0,0.0,0.0,0.0,0.0,0.0,0.0,0.0,0.0,0.0,1.7026,1.6693,1.7543,1.7532,1.6859,1.7051,1.7448,1.7989,1.8145,0.0,0.0,0.0,0.0,0.0,0.0,0.0,0.0,0.0,0.0,0.0,0.0,0.0,0.0,0.0,0.0,0.0,0.0,0.0,0.0,0.0,0.0,0.0,0.0,0.0,0.0,0.0,0.0,0.0,0.0,0.0,0.0,0.0,0.0,0.0,0.0,0.0,0.0,0.0,0.0,0.0,0.0,0.0,0.0,0.0,0.0,0.0,0.0,0.0,2.5137,2.5293,2.46,2.4336,2.4639,2.4775,2.5049,2.5488,2.5664,2.5742,2.5742,2.6025,2.6006,2.5752,2.6025,2.6006,2.5742,2.5742,2.5742,2.5742,2.5742,2.5742,2.5742,2.5742,2.5742,2.582,2.6533,2.6709,2.6787,0.0,0.0,0.0,0.0,0.0,0.0,0.0,0.0,0.0,0.0,0.0,0.0,0.0,0.0,0.0,0.0,0.0,0.0,0.0,0.0,0.0,0.0,0.0,0.0,0.0,0.0,0.0,0.0,0.0,0.0,0.0,0.0,1.8097,1.7436,1.7846,0.0,0.0,0.0,0.0,1.9052,0.0,0.0,1.8839,0.0,0.0,0.0,0.0,0.0,0.0,0.0,0.0,0.0,0.0,0.0,0.0,0.0,0.0,0.0,0.0,0.0,0.0,0.0,0.0,0.0,0.0,0.0,0.0,0.0,0.0,0.0,0.0,0.0,0.0,0.0,0.0,0.0,0.0,0.0,0.0,0.0,0.0,0.0,0.0,0.0,0.0,0.0,0.0,0.0,2.5283,2.4736,2.4482,2.4629,2.5068,2.5439,2.5732,2.5742,2.5742,2.5742,2.6035,2.6016,2.5752,2.6035,2.6006,2.5742,2.5742,2.5742,2.5742,2.5742,2.5742,2.5742,2.5742,2.5742,2.582,2.6543,2.6719,2.6807,0.0,0.0,0.0,0.0,0.0,0.0,0.0,0.0,0.0,0.0,0.0,0.0,0.0,0.0,0.0,0.0,0.0,0.0,0.0,0.0,0.0,0.0,0.0,0.0,0.0,0.0,0.0,0.0,0.0,0.0,0.0,0.0,1.8434,0.0,1.8697,1.9117,1.9016,0.0,1.8851,1.9247,0.0,1.897,1.8576,0.0,0.0,0.0,1.9915,2.09,0.0,0.0,0.0,0.0,0.0,0.0,0.0,0.0,0.0,0.0,0.0,0.0,0.0,0.0,0.0,0.0,0.0,0.0,0.0,0.0,0.0,0.0,0.0,0.0,0.0,0.0,0.0,0.0,0.0,0.0,0.0,0.0,0.0,0.0,0.0,0.0,0.0,0.0,2.5332,2.5283,2.5713,2.4922,2.4648,2.5068,2.5508,2.5742,2.5742,2.5742,2.5742,2.5762,2.5771,2.5771,2.5762,2.5771,2.5762,2.5742,2.5732,2.5645,2.5645,2.5645,2.5645,2.5645,2.5655,2.5655,2.581,2.6279,2.6699,2.7055,0.0,0.0,0.0,0.0,0.0,0.0,0.0,0.0,0.0,0.0,0.0,0.0,0.0,0.0,0.0,0.0,0.0,0.0,0.0,0.0,0.0,0.0,0.0,0.0,0.0,0.0,0.0,0.0,0.0,0.0,0.0,0.0,0.0,0.0,1.9101,1.9408,1.9303,1.9209,0.0,0.0,1.9902,1.9737,0.0,0.0,0.0,0.0,0.0,1.9935,0.0,0.0,2.2518,2.3189,0.0,0.0,0.0,0.0,0.0,0.0,2.5776,0.0,0.0,0.0,0.0,0.0,0.0,0.0,0.0,0.0,0.0,0.0,0.0,0.0,0.0,0.0,0.0,0.0,0.0,0.0,0.0,0.0,0.0,0.0,0.0,0.0,0.0,0.0,2.5625,2.5605,2.5732,2.5508,2.543,2.5547,2.5674,2.5742,2.5742,2.5742,2.5791,2.5894,2.6203,2.6184,2.5894,2.6203,2.6119,2.5645,2.5538,2.543,2.543,2.543,2.543,2.5469,2.5561,2.5685,2.6029,2.7062,2.7532,2.7695,0.0,0.0,0.0,0.0,0.0,0.0,0.0,0.0,0.0,0.0,0.0,0.0,0.0,0.0,0.0,0.0,0.0,0.0,0.0,0.0,0.0,0.0,0.0,0.0,0.0,0.0,0.0,0.0,0.0,0.0,0.0,0.0,0.0,0.0,0.0,0.0,0.0,0.0,0.0,0.0,2.0242,0.0,0.0,2.0252,1.9629,0.0,0.0,0.0,2.005,2.0943,2.1796,0.0,0.0,0.0,0.0,0.0,0.0,0.0,0.0,0.0,0.0,0.0,0.0,0.0,2.5263,2.4861,2.454,0.0,0.0,0.0,0.0,0.0,0.0,0.0,0.0,0.0,0.0,0.0,0.0,0.0,0.0,0.0,0.0,2.624,2.6211,2.5771,2.5742,2.5742,2.5742,2.5742,2.5742,2.5742,2.5742,2.5645,2.5538,2.5538,2.5643,2.5748,2.5824,2.5925,2.5858,2.5925,2.5794,2.5538,2.5235,2.5137,2.5137,2.503,2.503,2.5156,2.5197,2.5605,2.6083,2.6893,2.7401,2.7912,0.0,0.0,0.0,0.0,0.0,0.0,0.0,0.0,0.0,0.0,0.0,0.0,0.0,0.0,0.0,0.0,0.0,0.0,0.0,0.0,0.0,0.0,0.0,0.0,0.0,0.0,0.0,0.0,0.0,0.0,0.0,0.0,0.0,0.0,0.0,0.0,0.0,0.0,0.0,1.9753,2.0271,2.0226,0.0,0.0,2.0312,0.0,1.9878,2.0435,2.0941,2.0369,2.0928,0.0,0.0,0.0,0.0,0.0,2.4529,0.0,0.0,0.0,0.0,0.0,0.0,0.0,2.4529,2.454,2.454,2.454,0.0,0.0,0.0,0.0,0.0,0.0,0.0,0.0,0.0,0.0,0.0,0.0,0.0,0.0,2.6426,2.6426,2.626,2.5771,2.5781,2.5791,2.5742,2.5781,2.5781,2.5742,2.5635,2.5538,2.5333,2.5235,2.5338,2.5437,2.5079,2.5197,2.5839,2.5168,2.5077,2.5235,2.4932,2.4833,2.4833,2.4538,2.4637,2.4843,2.4937,2.541,2.6011,2.6294,2.6988,2.7905,0.0,0.0,0.0,0.0,0.0,0.0,0.0,0.0,0.0,0.0,0.0,0.0,0.0,0.0,0.0,0.0,0.0,0.0,0.0,0.0,0.0,0.0,0.0,0.0,0.0,0.0,0.0,0.0,0.0,0.0,0.0,0.0,0.0,0.0,0.0,0.0,0.0,0.0,0.0,2.0498,2.0494,0.0,2.0614,2.0957,2.0083,1.894,2.0322,2.0151,1.9442,0.0,2.1251,2.1941,0.0,0.0,0.0,0.0,0.0,0.0,0.0,0.0,0.0,0.0,0.0,0.0,2.4457,2.454,2.454,0.0,0.0,0.0,0.0,0.0,0.0,0.0,0.0,0.0,0.0,0.0,0.0,0.0,0.0,0.0,2.6426,2.6699,2.6572,2.5791,2.6064,2.6113,2.5752,2.6074,2.6103,2.5752,2.5538,2.5333,2.5333,2.5137,2.5041,2.5135,2.5051,2.5161,2.5236,2.5151,2.5045,2.4932,2.4726,2.4529,2.4529,2.435,2.4341,2.4603,2.508,2.5488,2.6003,2.6957,2.788,2.838,0.0,0.0,0.0,0.0,0.0,0.0,0.0,0.0,0.0,0.0,0.0,0.0,0.0,0.0,0.0,0.0,0.0,0.0,0.0,0.0,0.0,0.0,0.0,0.0,0.0,0.0,0.0,0.0,0.0,0.0,0.0,0.0,0.0,0.0,0.0,0.0,0.0,0.0,2.0869,2.1129,2.1329,0.0,2.1043,2.0997,2.0369,1.951,1.9856,1.9677,1.9421,2.0339,2.1215,0.0,0.0,2.186,2.2168,0.0,2.253,2.2222,0.0,0.0,0.0,2.3431,0.0,0.0,0.0,2.454,2.454,2.454,0.0,0.0,0.0,0.0,0.0,0.0,0.0,0.0,0.0,0.0,0.0,0.0,0.0,0.0,2.6768,2.6894,2.6748,2.6113,2.6455,2.6514,2.6084,2.6269,2.6083,2.5547,2.5333,2.5137,2.4932,2.4735,2.4743,2.4951,2.4738,2.4839,2.5125,2.4829,2.4634,2.4735,2.444,2.4341,2.4341,2.4251,2.4371,2.4701,2.5015,2.5404,2.5917,2.6825,2.7233,2.7441,0.0,0.0,0.0,0.0,0.0,0.0,0.0,0.0,0.0,0.0,0.0,0.0,0.0,0.0,0.0,0.0,0.0,0.0,0.0,0.0,0.0,0.0,0.0,1.8978,0.0,0.0,0.0,0.0,0.0,0.0,0.0,0.0,0.0,0.0,0.0,0.0,0.0,0.0,0.0,2.1512,0.0,2.1965,2.1404,2.1106,2.073,2.0318,1.937,1.9363,1.9944,2.0307,0.0,2.1611,2.1238,2.1631,0.0,0.0,0.0,0.0,0.0,0.0,0.0,0.0,0.0,2.3991,0.0,0.0,0.0,2.454,0.0,0.0,0.0,0.0,0.0,0.0,0.0,0.0,0.0,0.0,0.0,0.0,0.0,0.0,0.0,2.6816,2.666,2.6406,2.6777,2.6836,2.6406,2.6465,2.6071,2.5352,2.5235,2.4932,2.4529,2.444,2.4516,2.4656,2.4317,2.4417,2.4904,2.4389,2.4251,2.443,2.4251,2.4198,2.4271,2.4063,2.4207,2.4588,2.4875,2.5243,2.5693,2.6173,2.6222,2.5787,0.0,0.0,0.0,0.0,0.0,0.0,0.0,0.0,0.0,0.0,0.0,0.0,0.0,0.0,0.0,0.0,0.0,0.0,1.7808,0.0,0.0,0.0,0.0,0.0,1.9552,0.0,0.0,0.0,0.0,0.0,0.0,0.0,0.0,0.0,2.1292,0.0,0.0,0.0,2.1799,0.0,2.1934,2.2078,0.0,2.1788,2.1027,2.0107,1.9823,1.9965,2.0358,0.0,2.0772,2.1186,0.0,2.1186,0.0,0.0,0.0,0.0,0.0,0.0,0.0,0.0,2.3877,0.0,0.0,0.0,2.454,2.454,0.0,0.0,0.0,0.0,0.0,0.0,0.0,0.0,0.0,0.0,0.0,0.0,0.0,0.0,0.0,2.6103,2.6025,2.6367,2.6777,2.6836,2.6406,2.6526,2.616,2.5362,2.4833,2.4529,2.4529,2.4341,2.4279,2.4225,2.417,2.4279,2.4316,2.427,2.4251,2.4251,2.4251,2.4363,2.461,2.3554,2.335,2.3833,2.5358,2.5398,2.482,2.5594,2.5311,2.446,0.0,0.0,0.0,0.0,0.0,0.0,0.0,0.0,0.0,0.0,0.0,0.0,0.0,0.0,0.0,0.0,0.0,1.9586,0.0,0.0,0.0,0.0,0.0,0.0,0.0,0.0,0.0,0.0,2.1988,0.0,0.0,0.0,0.0,0.0,2.1493,0.0,2.0954,0.0,0.0,0.0,0.0,0.0,0.0,2.1652,2.0708,1.9959,2.0427,2.0493,2.0462,0.0,2.1311,0.0,0.0,0.0,0.0,0.0,0.0,0.0,0.0,0.0,0.0,0.0,0.0,0.0,0.0,0.0,2.4454,0.0,0.0,0.0,0.0,0.0,0.0,0.0,0.0,0.0,0.0,0.0,0.0,0.0,0.0,0.0,0.0,0.0,0.0,0.0,2.7012,2.7104,2.6565,2.6599,2.6212,2.5201,2.4749,2.444,2.435,2.4251,2.4152,2.4152,2.3546,2.3238,2.3238,2.2518,2.2316,2.2316,2.2316,2.2426,2.2773,2.2245,2.2487,2.3214,2.4147,2.4136,2.3617,2.4662,2.4269,2.3225,0.0,0.0,0.0,0.0,0.0,0.0,0.0,0.0,0.0,0.0,0.0,0.0,2.117,2.1237,0.0,0.0,0.0,2.0511,0.0,0.0,1.9937,0.0,0.0,0.0,0.0,0.0,0.0,0.0,0.0,0.0,0.0,0.0,0.0,0.0,0.0,2.1617,2.1188,0.0,0.0,2.1946,2.232,2.2643,2.2765,2.1473,2.0717,2.0389,2.0928,2.0979,2.0855,2.1186,2.1838,0.0,2.1952,0.0,0.0,0.0,0.0,0.0,2.3215,0.0,0.0,0.0,0.0,0.0,0.0,0.0,0.0,0.0,0.0,0.0,0.0,0.0,0.0,0.0,0.0,0.0,0.0,0.0,0.0,0.0,0.0,0.0,0.0,0.0,0.0,2.6543,2.7031,2.6962,2.6439,2.6318,2.5812,2.4976,2.428,2.3836,2.3746,2.3746,2.3637,2.3329,2.2728,2.2325,2.2013,2.1293,2.0885,2.0885,2.098,2.1219,2.1439,2.1215,2.1697,2.2451,2.2458,2.2379,2.2334,2.3623,2.3215,2.216,0.0,1.7701,0.0,0.0,0.0,0.0,0.0,0.0,0.0,0.0,0.0,0.0,0.0,0.0,0.0,0.0,0.0,2.0028,2.0584,0.0,1.9396,0.0,0.0,2.0217,0.0,0.0,0.0,0.0,0.0,0.0,0.0,0.0,0.0,0.0,0.0,2.2936,2.2707,2.2783,2.2309,2.1505,2.1527,2.1396,2.1178,0.0,2.1613,2.1683,2.1269,0.0,0.0,2.1776,2.2097,0.0,0.0,0.0,0.0,0.0,0.0,0.0,0.0,0.0,0.0,2.4405,0.0,0.0,0.0,0.0,2.4206,0.0,0.0,0.0,0.0,0.0,0.0,0.0,0.0,0.0,0.0,0.0,0.0,0.0,0.0,0.0,0.0,0.0,2.6103,2.6934,2.6439,2.6016,2.5996,2.5484,2.4986,2.4566,2.3238,2.2526,2.2526,2.2526,2.2013,2.0987,2.2013,2.1912,2.0987,2.0885,2.0885,2.0901,2.113,2.147,2.181,2.095,2.1035,2.1547,2.0688,2.051,2.0916,2.2572,2.2327,2.1096,0.0,0.0,0.0,0.0,0.0,0.0,0.0,2.1378,0.0,0.0,0.0,0.0,0.0,0.0,2.2076,0.0,0.0,2.1287,2.1509,2.0594,0.0,0.0,0.0,2.1069,0.0,0.0,0.0,0.0,0.0,0.0,0.0,0.0,0.0,0.0,0.0,2.3091,0.0,0.0,0.0,0.0,0.0,2.2093,2.1549,0.0,0.0,2.1373,2.1518,2.1476,0.0,2.1704,2.1911,2.2014,2.1859,2.1834,2.1953,2.2408,2.2469,0.0,0.0,0.0,2.3479,2.3632,0.0,0.0,0.0,0.0,0.0,0.0,0.0,0.0,0.0,0.0,0.0,0.0,0.0,0.0,0.0,0.0,0.0,0.0,0.0,0.0,0.0,0.0,0.0,2.6123,2.5739,2.557,2.5638,2.5355,2.5097,2.4665,2.327,2.2526,2.2526,2.181,2.1312,2.1122,2.081,2.0496,2.0076,1.9353,1.8928,1.8736,1.895,1.9276,1.9697,1.9563,1.9945,2.0681,2.0308,2.0535,2.0975,2.1566,2.1475,2.1109,2.2137,0.0,0.0,0.0,0.0,0.0,0.0,0.0,0.0,0.0,2.2107,0.0,2.1739,0.0,2.2191,0.0,2.1671,2.1625,2.1718,2.0885,0.0,2.066,2.1042,0.0,0.0,0.0,0.0,0.0,0.0,2.374,0.0,0.0,0.0,0.0,0.0,0.0,0.0,0.0,2.2969,0.0,0.0,2.2252,0.0,0.0,2.1621,2.1393,0.0,2.1611,2.1404,2.1704,2.1807,2.1807,2.1807,2.1655,2.1563,2.2015,2.2178,2.2322,2.2656,2.2938,0.0,2.3388,2.3503,0.0,2.377,0.0,0.0,0.0,0.0,0.0,0.0,0.0,0.0,0.0,0.0,0.0,0.0,0.0,0.0,0.0,0.0,0.0,0.0,0.0,2.542,2.5606,2.5333,2.4881,0.0,0.0,2.4014,2.3414,2.2028,2.1293,2.1293,2.0672,2.0231,2.0143,1.9824,1.9563,1.9254,1.8523,1.8036,1.7769,1.8183,1.841,1.8517,1.8918,1.9533,2.0234,2.0234,2.0588,2.1109,2.1109,2.1109,2.1109,0.0,0.0,0.0,0.0,2.2702,0.0,0.0,0.0,2.1984,0.0,2.2119,2.1635,2.1605,2.162,2.1673,2.1743,2.132,0.0,2.1108,2.0547,0.0,0.0,2.0041,2.0519,2.1468,0.0,0.0,0.0,0.0,0.0,0.0,0.0,0.0,0.0,2.4054,0.0,2.2537,2.3109,2.2761,2.1807,2.1807,2.1807,2.1807,2.1807,2.1807,2.1807,2.1807,2.1807,2.1807,2.1807,2.1807,2.1807,2.1807,2.1655,2.1512,2.1533,2.1693,2.19,2.2321,2.2865,2.3317,2.3624,0.0,0.0,0.0,0.0,2.3533,0.0,0.0,0.0,0.0,0.0,0.0,0.0,0.0,0.0,0.0,0.0,0.0,0.0,0.0,0.0,0.0,2.5684,2.5567,2.5353,2.4963,2.4003,0.0,0.0,2.1912,2.0885,1.9746,1.9235,1.925,1.9153,1.8801,1.807,1.9127,1.929,1.849,1.8504,1.835,1.8103,1.8677,1.8771,1.8557,1.9145,1.972,2.0234,2.0247,2.0608,2.1109,2.1109,2.1109,2.1109,2.5226,2.5062,2.4918,0.0,2.464,2.364,0.0,0.0,0.0,0.0,2.1404,2.0767,2.0258,2.0662,2.0696,2.0004,2.0709,0.0,0.0,0.0,0.0,2.0131,2.0881,2.1357,2.1481,2.2711,0.0,2.4004,0.0,0.0,2.5372,0.0,0.0,0.0,0.0,0.0,2.3132,2.3635,2.3058,2.1807,2.1807,2.1807,0.0,0.0,2.1807,2.1807,2.1807,2.1807,2.1807,2.1807,2.1807,2.1807,2.1655,2.1502,2.1497,2.1666,2.192,2.2138,2.2257,2.2666,2.3103,2.2896,2.3179,2.3493,0.0,0.0,0.0,0.0,0.0,0.0,0.0,0.0,0.0,0.0,0.0,0.0,0.0,0.0,0.0,0.0,0.0,0.0,0.0,2.4762,2.4484,2.4475,2.3226,2.2434,2.2319,0.0,0.0,2.0885,1.9746,1.9345,1.9586,1.8765,1.8286,1.8384,1.8918,1.884,1.8497,1.8718,1.8651,1.8397,1.8764,1.8878,1.8858,1.9446,1.9907,2.0254,2.0474,2.0788,2.1109,2.1109,2.1109,2.1109,2.7016,0.0,0.0,2.6873,0.0,0.0,2.442,0.0,0.0,2.2823,2.1627,0.0,2.067,2.0266,1.9817,1.936,2.0029,0.0,0.0,0.0,0.0,2.0604,2.1072,2.1521,2.1832,2.2774,0.0,2.4356,0.0,0.0,2.595,0.0,0.0,0.0,0.0,2.4768,0.0,2.4016,2.3488,2.2592,2.2032,0.0,0.0,2.1807,2.1807,2.1807,2.1807,2.1807,2.1807,2.1807,2.1807,2.1731,2.1578,2.1558,2.1615,2.163,2.1987,2.2325,2.2325,2.2722,2.3086,2.2842,2.3055,2.3319,2.3135,2.3408,2.3516,0.0,0.0,0.0,0.0,0.0,0.0,0.0,0.0,0.0,0.0,0.0,0.0,0.0,0.0,0.0,2.3284,2.342,2.3186,2.2407,2.1873,2.1228,0.0,0.0,0.0,1.945,1.9098,1.9013,1.9189,1.8687,1.8517,1.8684,1.8844,1.8905,1.8878,1.9045,1.8958,1.8698,1.8991,1.9045,1.8965,1.9559,1.9967,2.0274,2.0702,2.0962,2.1109,2.1109,2.1109,2.1109,0.0,0.0,0.0,0.0,0.0,0.0,0.0,2.4399,0.0,2.3766,0.0,2.1001,2.1545,2.0114,1.9128,1.9179,0.0,1.9605,1.9703,2.0226,2.0746,2.1091,2.1097,2.1466,2.2284,2.246,0.0,0.0,0.0,0.0,2.6521,0.0,0.0,0.0,0.0,0.0,0.0,2.4082,2.3656,0.0,2.2258,2.1807,2.1807,2.1807,2.1807,2.1807,2.1807,2.1807,2.1807,2.1807,2.1807,2.1731,2.1578,2.1653,2.1789,2.161,2.204,2.2529,2.2578,2.2861,2.3135,2.3135,2.3135,2.3135,2.3135,2.3135,2.3135,2.3135,2.3135,2.3135,0.0,0.0,0.0,0.0,0.0,0.0,0.0,0.0,0.0,0.0,0.0,0.0,0.0,2.1666,2.1796,2.0289,2.0624,2.014,0.0,0.0,0.0,1.7642,1.8156,1.8484,1.8604,0.0,1.8945,1.8985,1.8985,1.9098,1.9312,1.9352,1.9245,1.9052,1.9312,1.9299,1.9138,1.9686,2.0087,2.0394,2.0909,2.1109,2.1109,2.1109,2.1109,2.1109,0.0,0.0,0.0,0.0,0.0,2.6889,2.5586,2.3769,2.2515,2.2515,2.1031,2.0023,2.018,1.9531,1.8993,1.8655,1.9222,0.0,0.0,0.0,0.0,2.1104,2.1711,2.2121,2.2309,2.3226,2.4067,0.0,2.5247,2.5799,0.0,0.0,0.0,0.0,0.0,0.0,2.4276,2.3438,0.0,2.214,2.1904,2.1807,2.1807,2.1807,2.1807,2.1807,2.1807,2.1807,2.1807,2.1807,2.1655,2.1578,2.1502,2.1653,2.185,2.1977,2.2369,2.2748,2.293,2.3086,2.3135,2.3135,2.3135,2.3135,2.3135,2.3135,2.3135,2.3135,2.3135,2.3135,2.3135,0.0,0.0,0.0,0.0,0.0,0.0,0.0,0.0,0.0,0.0,0.0,0.0,0.0,0.0,0.0,0.0,1.889,0.0,0.0,0.0,0.0,1.8063,0.0,0.0,0.0,1.9045,1.9292,1.9292,1.9192,1.9011,1.9259,1.9472,1.9653,1.97,1.9833,2.0027,2.0381,2.0695,2.0969,2.1069,2.1109,2.1109,2.1109,2.1109,2.1109,0.0,0.0,0.0,0.0,0.0,0.0,0.0,2.3983,0.0,2.3197,2.1949,2.1296,2.1901,2.0397,1.9241,1.8979,1.9402,1.9615,1.9368,2.0862,2.1843,2.1975,2.2318,0.0,2.2736,2.3276,2.3966,2.482,2.5071,2.5636,0.0,0.0,0.0,0.0,0.0,2.561,0.0,0.0,0.0,2.2798,2.2119,2.1807,2.1807,2.1807,2.1807,2.1807,2.1807,2.1731,2.1655,2.1655,2.1809,2.1937,2.1615,2.2,2.2511,2.2389,2.267,2.2967,2.3086,2.3135,2.3135,2.3135,2.3135,2.3135,2.3135,2.3135,2.3135,2.3135,2.3135,2.3135,2.3135,2.3135,0.0,0.0,0.0,0.0,0.0,0.0,0.0,0.0,0.0,0.0,0.0,0.0,0.0,0.0,0.0,0.0,0.0,0.0,0.0,0.0,0.0,0.0,0.0,0.0,0.0,1.9366,1.9366,1.9292,1.9165,1.9459,1.9666,1.9806,1.996,2.01,2.0254,2.0555,2.0848,2.1109,2.1109,2.1109,2.1109,2.1109,2.1109,2.1109,0.0,2.9383,0.0,0.0,2.7107,0.0,2.5477,2.4292,2.359,2.3932,2.2913,2.2522,2.3436,2.1269,1.9721,1.9612,1.9844,1.9982,1.9934,2.1511,2.2558,2.27,2.284,2.2934,2.3125,2.3078,2.3566,0.0,2.4757,2.5322,0.0,0.0,0.0,0.0,0.0,0.0,0.0,0.0,2.3525,2.3264,2.2237,2.1807,2.1807,2.1807,2.1807,2.1807,2.1807,2.1793,2.1732,2.1568,2.189,2.2196,2.189,2.2389,2.3028,2.268,2.2812,2.3135,2.3135,2.3135,2.3135,2.3135,2.3135,2.3135,2.3135,2.3135,2.3135,2.3135,2.3135,2.3135,2.3135,2.3135,0.0,0.0,0.0,0.0,0.0,0.0,0.0,0.0,0.0,0.0,0.0,0.0,0.0,0.0,0.0,1.7048,1.6814,1.7475,1.7916,0.0,0.0,1.9038,1.9452,0.0,1.9626,1.9459,1.9459,1.9459,1.9466,1.976,1.9927,2.0,2.0227,2.0361,2.0434,2.0668,2.0902,2.1109,2.1109,2.1109,2.1109,2.1109,2.1109,2.1109,0.0,0.0,0.0,0.0,0.0,0.0,2.4813,2.4208,2.3766,2.3295,2.2513,2.2039,2.1988,2.0947,2.0217,2.0217,2.0449,2.0521,2.0344,2.1867,2.2661,2.2528,2.2905,2.3088,2.3078,2.3078,2.3439,0.0,0.0,2.5109,2.5686,0.0,0.0,0.0,0.0,0.0,0.0,2.3141,2.2682,2.2012,2.1818,2.1807,2.1807,2.1807,2.1807,2.1807,2.1807,2.2076,2.235,2.1957,2.166,2.169,2.2413,2.2629,2.2595,2.2764,2.2889,2.3135,2.3135,2.3135,2.3135,2.3135,2.3135,2.3135,2.3135,2.3135,2.3135,2.3135,2.3135,2.3135,2.3135,2.3135,2.2909,0.0,0.0,0.0,0.0,0.0,0.0,0.0,0.0,0.0,0.0,0.0,0.0,0.0,0.0,1.7141,1.7108,1.7188,1.7482,1.8029,0.0,1.8925,1.9753,1.9526,1.9526,1.976,1.976,1.976,1.9766,2.006,2.0341,2.0595,2.0621,2.0782,2.1029,2.1056,2.1082,2.1109,2.1109,2.1109,2.1109,2.1109,2.1109,2.1109,0.0,0.0,0.0,0.0,0.0,0.0,0.0,2.53,2.5076,2.4773,2.3819,2.333,2.3644,2.2392,2.1552,2.1511,2.1286,2.1264,2.1392,2.2708,2.3295,2.3048,2.3204,2.321,2.3078,2.3078,2.3427,0.0,0.0,2.5084,2.5598,2.6189,0.0,0.0,0.0,2.3738,2.3405,2.2894,2.2688,2.2635,2.2635,2.247,2.2252,2.2532,2.247,2.2263,2.2532,2.259,2.2544,2.2727,2.2736,2.2694,2.2615,2.2804,2.3073,2.2967,2.3008,2.3135,2.3135,2.3135,2.3135,2.3135,2.3135,2.3135,2.3135,2.3135,2.3135,2.3135,2.3135,2.296,2.2325,2.2129,2.1731,0.0,0.0,0.0,0.0,0.0,0.0,0.0,0.0,0.0,0.0,0.0,0.0,0.0,0.0,0.0,1.7148,1.7148,1.7508,1.829,0.0,1.8637,1.9533,1.9426,1.9512,1.98,1.98,1.9887,2.0067,2.0361,2.0661,2.0935,2.0935,2.1002,2.1109,2.1109,2.1109,2.1109,2.1109,2.1109,2.1109,2.1109,2.1109,2.1109,2.8803,0.0,2.8186,0.0,2.7318,2.6916,2.6138,2.5955,2.5938,2.6041,2.5289,2.4792,2.4863,2.3645,2.2776,2.2573,2.2168,2.2029,2.2266,2.3219,2.3641,2.333,2.333,0.0,2.3078,2.3078,2.3427,2.4004,2.4556,0.0,2.5611,2.5971,0.0,0.0,2.357,2.3113,2.3315,2.2715,2.277,2.3184,2.3184,2.2987,2.2739,2.306,2.2987,2.2739,2.2989,2.2941,2.2847,2.316,2.3352,2.3378,2.2962,2.3073,2.3329,2.3144,2.3135,2.3135,2.3135,2.3135,2.3135,2.3135,2.3135,2.3135,2.3135,2.3135,2.3135,2.3135,2.2872,2.2451,2.1851,2.1311,2.0737,1.9865,0.0,0.0,0.0,0.0,0.0,0.0,0.0,1.6099,1.6139,0.0,0.0,0.0,0.0,0.0,1.7148,1.7148,0.0,0.0,0.0,0.0,0.0,1.9366,1.9512,1.98,1.9887,2.008,2.0374,2.0668,2.0915,2.1109,2.1109,2.1109,2.1109,2.1109,2.1109,2.1109,2.1109,2.1109,2.1109,2.1109,2.1109,2.1109,2.7729,2.7611,2.7427,2.7067,2.7003,2.668,2.5766,2.5708,2.5995,2.6546,2.6572,2.6094,2.4849,2.4284,2.3729,2.3121,2.3023,2.2928,2.277,2.3204,2.3343,0.0,0.0,2.3078,2.3078,2.3078,2.3427,2.4004,0.0,0.0,2.5611,0.0,2.4862,2.4047,2.335,2.2821,2.249,2.2501,2.277,2.3184,2.3184,2.3184,2.3184,2.3184,2.3184,2.3184,2.293,2.3135,2.3429,2.2924,2.3137,2.3493,2.3493,2.3319,2.3135,2.3135,2.3135,2.3135,2.3135,2.3135,2.3135,2.3135,2.3135,2.3135,2.3135,2.3135,2.3135,2.3135,2.2325,2.1724,2.176,2.0983,2.0091,1.9514,0.0,0.0,0.0,0.0,0.0,0.0,1.6339,1.6466,1.5892,0.0,0.0,0.0,0.0,0.0,0.0,0.0,0.0,1.7582,1.8176,0.0,1.9359,1.9366,1.9512,1.9806,2.0094,2.0381,2.0681,2.0969,2.1109,2.1109,2.1109,2.1109,2.1109,2.1109,2.1109,2.1109,2.1109,2.1109,2.1109,2.1109,2.1109,2.1109,2.6762,2.6934,2.7147,2.702,2.7319,2.7448,2.7139,2.706,2.707,2.728,2.6944,2.6344,2.554,2.4986,2.4443,0.0,2.3298,2.3109,0.0,2.3361,2.333,2.3138,2.3078,2.3078,2.3078,2.3527,2.3816,2.4004,0.0,0.0,0.0,2.4767,2.4059,2.335,2.2542,2.2286,2.2511,2.2832,2.3236,2.3681,2.3991,2.3929,2.3691,2.3991,2.3825,2.3442,2.3655,2.3604,2.3467,2.3295,2.3211,2.3232,2.3232,2.3144,2.3135,2.3135,2.3135,2.3135,2.3135,2.3135,2.3135,2.3135,2.3135,2.3135,2.3135,2.2599,2.2148,2.2148,2.1239,2.0369,1.9906,1.9217,1.8601,1.7974,1.7554,0.0,0.0,0.0,0.0,0.0,1.5992,1.6032,0.0,1.6179,0.0,0.0,0.0,0.0,0.0,0.0,0.0,0.0,1.8277,0.0,1.9659,1.9659,1.9913,2.0401,2.0494,2.0688,2.0975,2.1069,2.1109,2.1109,2.1109,2.1109,2.1109,2.1109,2.1109,2.1109,2.1109,2.1109,2.1109,2.1109,2.1109,2.0976,2.6505,2.6746,2.7016,2.7258,2.7554,2.774,2.774,2.7625,2.7625,2.7625,2.7086,2.6543,2.616,2.5369,0.0,2.4086,2.3541,2.3302,2.3484,2.339,2.321,2.3138,2.3078,2.3078,2.3078,2.3703,0.0,2.4305,2.5385,2.5747,2.53,2.4492,2.3694,2.2927,2.2176,2.2066,2.2511,2.2801,2.3298,2.3898,2.4178,2.4229,2.4157,2.4436,2.4193,2.3819,2.4008,2.3851,2.3503,2.3406,2.3232,2.3135,2.3135,2.3135,2.3135,2.3135,2.3135,2.3135,2.3135,2.3135,2.3135,2.3135,2.3135,2.3135,2.3135,2.2413,2.1695,2.1587,2.0331,1.9217,1.8851,1.8171,1.764,1.738,1.7143,1.6894,1.6493,0.0,0.0,0.0,0.0,0.0,0.0,1.6199,1.654,0.0,0.0,0.0,0.0,0.0,0.0,1.8023,1.843,0.0,1.9793,1.98,2.0094,2.0675,2.0788,2.0935,2.1109,2.1109,2.1109,2.1109,2.1109,2.1109,2.1109,2.1109,2.1109,2.1109,2.1109,2.1109,2.1109,2.1109,2.0722,2.0202,2.6773,2.6829,2.7007,0.0,2.7675,0.0,2.7694,2.773,2.7715,2.7745,2.7181,2.6748,2.6764,2.5584,2.4527,2.4066,0.0,0.0,0.0,2.321,2.3078,2.3078,2.3078,2.3078,2.3078,2.374,2.4343,2.4933,2.5882,2.6025,2.53,2.4409,2.3621,2.2927,2.2176,2.2045,2.2449,2.2511,2.3039,2.3836,2.3898,2.4178,2.454,2.4454,2.4368,2.411,2.3841,2.3667,2.3406,2.3144,2.3135,2.3135,2.3135,2.3135,2.3135,2.3135,2.3135,2.3135,2.3135,2.3135,2.3135,2.3135,2.3135,2.3047,2.3047,2.2255,2.1544,2.1159,1.9654,1.8323,1.8378,1.7725,1.7238,1.76,1.7582,1.7375,1.6787,0.0,0.0,0.0,0.0,0.0,0.0,1.6386,1.6613,0.0,0.0,0.0,0.0,0.0,1.8424,1.809,1.8671,1.9259,1.9826,1.9853,2.0147,2.0708,2.0982,2.1109,2.1109,2.1109,2.1109,2.1109,2.1109,2.1109,2.1109,2.1109,2.1109,2.1109,2.1109,2.0982,2.0976,2.0976,2.0075,1.8908,0.0,0.0,2.6846,2.7505,2.7625,2.797,2.8951,2.8682,2.8532,2.9041,2.7992,2.7298,2.7453,2.6103,2.5084,2.4972,2.4007,2.3463,2.3403,2.321,2.3078,2.3078,2.3078,2.3078,2.3078,2.4117,2.5109,2.6076,2.575,2.5523,2.5241,2.3936,2.3139,2.2927,2.2176,2.1869,2.2014,2.2718,2.3153,2.3412,2.4105,2.4447,2.4454,2.4368,2.411,2.3841,2.3667,2.3406,2.3144,2.3135,2.3135,2.3135,2.3135,2.3135,2.3135,2.3135,2.3135,2.3135,2.3135,2.3135,2.3135,2.3135,2.3135,2.2872,2.2236,2.1292,2.0391,1.9654,1.8363,1.7506,1.7684,1.7449,1.7264,1.7522,1.7582,1.7375,1.6787,1.6901,0.0,0.0,1.6426,1.6573,1.6506,1.6627,1.686,0.0,0.0,0.0,0.0,1.9011,1.9152,1.841,1.9172,1.9766,2.0127,2.0354,2.0648,2.1009,2.1076,2.1109,2.1109,2.1109,2.1109,2.1109,2.1109,2.1109,2.1109,2.1109,2.1109,2.1109,2.1109,2.0462,1.9553,1.9553,1.8652,1.7361,2.709,2.7565,2.8068,2.8427,2.8487,2.8742,2.9475,2.928,2.9068,2.9123,2.8154,2.7423,2.7487,2.6117,2.5282,2.5537,2.4709,2.4102,2.404,2.3916,2.3904,2.3904,2.3904,2.3904,2.3904,2.4745,2.5598,2.6533,2.6025,2.5441,2.4707,2.3925,2.3128,2.2402,2.1949,2.1921,2.2159,2.2656,2.3122,2.3546,2.4043,2.4279,2.4368,2.4206,2.3937,2.3667,2.3503,2.3319,2.3135,2.3135,2.3135,2.3135,2.3135,2.3135,2.3135,2.3135,2.3135,2.3135,2.3135,2.3135,2.3184,2.3389,2.3437,2.321,2.239,2.1383,2.0305,1.9166,1.7971,1.7109,1.7299,1.7257,1.7241,1.7535,1.7468,1.7228,1.6767,1.6734,0.0,1.6313,1.6413,1.6613,1.6881,1.7027,1.7295,1.7762,1.8196,0.0,1.8871,1.9472,1.9519,1.8911,1.9613,2.014,2.0434,2.0728,2.0955,2.1109,2.1109,2.1109,2.1109,2.1109,2.1109,2.1109,2.1109,2.1109,2.1109,2.1109,2.0722,2.0202,2.0202,1.9297,1.8133,1.8133,1.7232,1.5944,2.8742,2.9205,2.9609,2.9699,2.9639,2.9639,2.9849,2.9719,2.94,2.8898,2.8062,2.7495,2.7417,2.6091,2.5443,2.5965,2.5519,2.5113,2.4833,2.482,2.482,2.482,2.482,2.482,2.482,2.5335,2.5887,2.6533,2.6233,2.5499,2.4264,2.3902,2.3106,2.1959,2.1873,2.2066,2.2501,2.2573,2.3091,2.3877,2.395,2.4039,2.411,2.412,2.3851,2.3503,2.3406,2.3319,2.3135,2.3135,2.3135,2.3135,2.3135,2.3184,2.3242,2.3242,2.3281,2.332,2.3252,2.3281,2.3408,2.3711,2.3738,2.3419,2.272,2.1596,2.0386,1.9124,1.8003,1.7225,1.7271,1.7215,1.7295,1.7542,1.7335,1.7061,1.6807,0.0,1.642,1.6466,1.6513,1.6754,1.7295,1.7575,1.7849,1.8156,1.8684,1.9118,1.9419,1.9753,1.982,1.9573,2.004,2.0441,2.0735,2.0989,2.1109,2.1109,2.1109,2.1109,2.1109,2.1109,2.1109,2.1109,2.1109,2.1109,2.1109,2.1109,2.0329,1.9036,1.9036,1.8005,1.6716,1.6716,1.5814,1.452,2.943,2.9505,2.9744,3.0268,2.9924,2.9953,3.1061,3.0262,2.9624,2.9968,2.8789,2.7876,2.7904,2.6889,2.6375,2.6587,2.6388,2.5879,2.4883,2.482,2.482,2.482,2.482,2.482,2.482,2.5335,2.5887,2.6533,2.5134,2.4707,2.5087,2.3117,2.2392,2.2777,2.2101,2.2066,2.2522,2.2915,2.3299,2.3563,2.4036,2.4049,2.3841,2.3667,2.359,2.3503,2.3232,2.3144,2.3135,2.3135,2.3135,2.3135,2.3135,2.3389,2.3691,2.3691,2.3935,2.4141,2.3789,2.3945,2.415,2.3867,2.3395,2.272,2.183,2.063,1.9368,1.839,1.7791,1.7566,1.7508,1.7515,1.7528,1.7575,1.7335,1.7134,1.7088,0.0,1.7101,1.7348,1.7609,1.7903,1.825,1.8323,1.847,1.8764,1.9105,1.9426,1.972,2.0247,2.0521,2.0474,2.0561,2.0748,2.1042,2.1089,2.1109,2.1109,2.1109,2.1109,2.1109,2.1109,2.1109,2.1109,2.1109,2.1109,2.1109,2.1109,2.0329,1.9036,1.9036,1.749,1.5168,1.5168,1.439,1.3095,3.0073,3.0372,3.0717,3.1001,3.0821,3.078,3.1319,3.0646,2.9937,2.9662,2.8684,2.7802,2.7351,2.685,2.6521,2.6589,2.6521,2.6251,2.5737,2.5699,2.5699,2.5699,2.5699,2.5699,2.5699,2.5937,2.5984,2.5873,2.5075,2.4504,2.4009,2.2916,2.2402,2.2338,2.222,2.2439,2.2904,2.336,2.3649,2.391,2.4114,2.3937,2.3667,2.3503,2.3406,2.3232,2.3144,2.3135,2.3135,2.3135,2.3135,2.3184,2.3418,2.3633,2.3838,2.4062,2.4258,2.4375,2.418,2.4268,2.4424,2.4463,2.3852,2.2889,2.2025,2.0704,1.9411,1.8212,1.7809,1.7582,1.7582,1.7582,1.7635,1.7802,1.7448,0.0,0.0,1.7248,1.7255,1.7549,1.7849,1.8217,1.8677,1.8724,1.8911,1.9359,1.9526,1.98,2.0247,2.0528,2.0748,2.0902,2.0909,2.0969,2.1109,2.1109,2.1109,2.1109,2.1109,2.1109,2.1109,2.1109,2.1109,2.1109,2.0329,1.9941,1.9941,1.917,1.8005,1.6845,1.6845,1.5554,1.3744,1.3744,1.3354,1.2836,3.0746,3.1165,3.1482,3.1482,3.1482,3.1409,3.1087,3.0598,2.9827,2.8812,2.8117,2.7417,2.6714,2.6589,2.6533,2.6533,2.6533,2.6533,2.6533,2.6533,2.6533,2.6533,2.6533,2.6533,2.6533,2.6314,2.5886,2.5312,2.4945,2.4154,2.3001,2.2777,2.2466,2.1983,2.2335,2.2811,2.3289,2.3639,2.3944,2.4165,2.4064,2.3824,2.3554,2.3446,2.3319,2.3135,2.3135,2.3203,2.3271,2.3174,2.3271,2.3477,2.3721,2.3926,2.415,2.4473,2.4639,2.4678,2.4473,2.4375,2.4381,2.4621,2.3768,2.2661,2.1928,2.0609,1.925,1.831,1.7907,1.7669,1.7595,1.7695,1.7822,1.7923,0.0,0.0,0.0,1.7388,1.7382,1.7749,1.805,1.8437,1.8978,1.9025,1.9239,1.976,1.986,2.0127,2.0648,2.0742,2.0882,2.1102,2.1109,2.1109,2.1109,2.1109,2.1109,2.1109,2.1109,2.1109,2.1109,2.1109,2.0976,2.0589,1.9425,1.878,1.8518,1.7361,1.6203,1.4907,1.4907,1.4002,1.2836,1.2836,1.2836,1.2836,3.1465,3.1437,3.1482,3.1482,3.1482,3.1219,3.0524,2.978,2.9044,2.7934,2.7229,2.6714,2.6521,2.6533,2.6533,2.6533,2.6533,2.6533,2.6533,2.6533,2.6533,2.6533,2.6533,2.6533,2.6533,2.5746,2.5382,2.5312,2.3863,2.315,2.3001,2.2252,2.2112,2.2449,2.248,2.2827,2.3482,2.3512,2.3755,2.4058,2.3662,2.3653,2.3701,2.3301,2.3135,2.3135,2.3135,2.3398,2.3682,2.3271,2.3672,2.4258,2.3906,2.4336,2.498,2.501,2.5312,2.5459,2.4639,2.4212,2.4021,2.368,2.2192,2.0735,2.0977,1.9455,1.8197,1.8379,1.8225,1.7923,1.7635,1.8043,1.825,1.7702,0.0,0.0,1.7582,1.7562,1.7769,1.835,1.8684,1.8985,1.9305,1.9332,1.9466,1.978,2.0047,2.0341,2.0661,2.0935,2.1089,2.1109,2.1109,2.1109,2.1109,2.1109,2.1109,2.1109,2.1109,2.1109,2.1109,2.1109,2.0329,1.917,1.9036,1.8262,1.7109,1.698,1.6203,1.4907,1.4907,1.4002,1.2836,1.2836,1.2836,1.2836,3.1482,3.1482,3.1467,3.1409,3.1029,3.0584,3.004,2.9156,2.826,2.767,2.704,2.6658,2.6533,2.6533,2.6533,2.6533,2.6533,2.6533,2.6533,2.6533,2.6533,2.6533,2.6533,2.6245,2.5746,2.5453,2.4802,2.3863,2.3287,2.2703,2.2101,2.1873,2.1979,2.2354,2.2721,2.3268,2.3961,2.4237,2.4354,2.4514,2.4068,2.3821,2.374,2.3301,2.3135,2.3174,2.3447,2.3652,2.3809,2.3896,2.415,2.4434,2.4551,2.4805,2.5127,2.54,2.5605,2.5664,2.5332,2.4667,2.4051,2.3708,2.2156,2.0721,2.0423,1.9463,1.8503,1.8516,1.8433,1.8283,1.817,1.8337,1.847,1.8424,0.0,1.821,1.8384,1.841,1.8497,1.8731,1.9018,1.9239,1.9359,1.9366,1.9559,2.0034,2.0174,2.0441,2.0915,2.1049,2.1109,2.1109,2.1109,2.1109,2.1109,2.1109,2.1109,2.1109,2.1109,2.1109,2.1109,2.0202,1.9553,1.8908,1.7232,1.6198,1.5684,1.4782,1.4132,1.3613,1.3613,1.3227,1.2836,1.2836,1.2836,1.2836,3.1467,3.1409,3.1409,3.1234,3.0658,3.0025,2.9546,2.8583,2.7736,2.7229,2.6837,2.6589,2.6533,2.6533,2.6533,2.6533,2.6533,2.6533,2.6533,2.6533,2.6533,2.6533,2.6533,2.6094,2.5312,2.5087,2.4288,2.3001,2.2703,2.2176,2.1589,2.1722,2.2029,2.241,2.2951,2.3563,2.4159,2.4462,2.4576,2.467,2.4226,2.3879,2.374,2.3301,2.3223,2.3379,2.3682,2.3965,2.4209,2.4365,2.46,2.4863,2.5019,2.5166,2.5342,2.5644,2.583,2.5947,2.5947,2.4899,2.3723,2.3397,2.1832,2.0195,1.9859,1.9255,1.8732,1.8611,1.8631,1.8597,1.851,1.8637,1.8771,1.8784,1.8698,1.8664,1.8771,1.8865,1.8925,1.8925,1.9185,1.9406,1.9492,1.9506,1.9746,2.0327,2.0374,2.0588,2.1082,2.1109,2.1109,2.1109,2.1109,2.1109,2.1109,2.1109,2.1109,2.1109,2.1109,2.0849,2.0462,1.9425,1.8524,1.7619,1.5684,1.4651,1.4132,1.3227,1.2836,1.2836,1.2836,1.2836,1.2836,1.2836,1.2836,1.2844,3.1351,3.1278,3.1234,3.1132,3.0478,2.9704,2.8917,2.8208,2.7417,2.6589,2.6533,2.6533,2.6533,2.6533,2.6533,2.6533,2.6533,2.6533,2.6533,2.6533,2.6533,2.6533,2.6533,2.6094,2.5312,2.4492,2.3768,2.3001,2.1959,2.1589,2.1818,2.1805,2.217,2.2788,2.3079,2.3507,2.4148,2.4148,2.4215,2.4385,2.3965,2.3799,2.374,2.3301,2.3408,2.3789,2.3799,2.4346,2.5,2.457,2.501,2.5664,2.5215,2.5381,2.5742,2.5742,2.6055,2.6387,2.6387,2.4799,2.3098,2.2616,2.0665,1.8944,1.922,1.8915,1.8577,1.8865,1.8925,1.8838,1.8551,1.8971,1.9178,1.8591,1.8738,1.8824,1.8537,1.8744,1.8925,1.8925,1.9185,1.9479,1.9766,1.98,2.004,2.0628,2.0675,2.0808,2.1096,2.1109,2.1109,2.1109,2.1109,2.1109,2.1109,2.1109,2.1109,2.1109,2.1109,2.0329,1.9036,1.9036,1.749,1.4907,1.4907,1.4132,1.2836,1.2836,1.2836,1.2836,1.2836,1.2836,1.2836,1.2836,1.2836,1.286,3.1351,3.1278,3.1234,3.0955,2.9931,2.903,2.8634,2.7617,2.6782,2.6521,2.6533,2.6533,2.6533,2.6533,2.6533,2.6533,2.6533,2.6533,2.6533,2.6816,2.6866,2.6546,2.6533,2.5873,2.4492,2.4192,2.3475,2.2176,2.2205,2.205,2.1825,2.2271,2.2645,2.2922,2.3136,2.3677,2.4604,2.4604,2.4667,2.4834,2.4404,2.4053,2.374,2.3301,2.3408,2.3828,2.4121,2.459,2.5098,2.5283,2.5518,2.5713,2.5586,2.5635,2.5791,2.6103,2.6289,2.6245,2.547,2.4262,2.3157,2.2722,2.0861,1.9138,1.8991,1.9132,1.9132,1.9219,1.9232,1.9212,1.9125,1.9252,1.9312,1.9132,1.9178,1.9205,1.9118,1.9178,1.9232,1.9232,1.9312,1.9399,1.9486,1.9679,1.9953,2.0334,2.0748,2.1022,2.1109,2.1109,2.1109,2.1109,2.1109,2.1109,2.1109,2.1109,2.1109,2.1109,2.0075,1.9425,1.8908,1.6974,1.5684,1.4782,1.3875,1.3227,1.2836,1.2836,1.2836,1.2836,1.2836,1.2836,1.2836,1.2836,1.2836,1.2844,3.1176,3.1117,3.0925,3.0447,2.9421,2.8519,2.8182,2.7162,2.6533,2.6533,2.6533,2.6533,2.6533,2.6653,2.6791,2.6791,2.6979,2.7017,2.6804,2.7306,2.7313,2.6621,2.6525,2.5721,2.4047,2.4129,2.3427,2.1922,2.2306,2.2361,2.2201,2.2491,2.2848,2.3127,2.3381,2.39,2.4608,2.4608,2.4657,2.4551,2.4453,2.417,2.3779,2.3682,2.3916,2.4326,2.459,2.4961,2.5371,2.5644,2.5742,2.5742,2.5742,2.5859,2.6045,2.6309,2.6319,2.5994,2.5254,2.3931,2.265,2.2307,2.0729,1.9278,1.9186,1.9239,1.9366,1.9366,1.9366,1.9366,1.9366,1.9366,1.9366,1.9366,1.9366,1.9366,1.9366,1.9366,1.9412,1.9526,1.9539,1.9626,1.986,2.004,2.0267,2.0561,2.0909,2.1109,2.1109,2.1109,2.1109,2.1109,2.1109,2.1109,2.1109,2.0589,2.0329,2.0202,1.9425,1.8396,1.7361,1.5684,1.4651,1.4002,1.3227,1.2836,1.2836,1.2836,1.2836,1.2836,1.2836,1.2836,1.2844,1.2913,1.2893,1.2856,3.0881,3.0762,3.0507,2.9747,2.8953,2.8195,2.7683,2.6943,2.6546,2.6596,2.6559,2.6546,2.6596,2.6979,2.7306,2.7356,2.7908,2.8047,2.7544,2.7971,2.7804,2.6892,2.6652,2.5727,2.3954,2.4128,2.3662,2.2308,2.2463,2.2675,2.289,2.2676,2.2938,2.3545,2.3722,2.4023,2.4414,2.4375,2.416,2.3887,2.4258,2.4189,2.3887,2.4268,2.4687,2.5068,2.5068,2.5361,2.5742,2.5781,2.5791,2.5801,2.584,2.6123,2.6455,2.6384,2.6097,2.5718,2.5281,2.3582,2.1957,2.1479,2.0373,1.936,1.9421,1.9366,1.9366,1.9366,1.9366,1.9366,1.9366,1.9366,1.9366,1.9366,1.9366,1.9366,1.9366,1.9366,1.9466,1.9733,1.9786,2.0013,2.0548,2.0648,2.0795,2.1089,2.1109,2.1109,2.1109,2.1109,2.1109,2.1109,2.1109,2.1109,2.1109,1.9686,1.9036,1.9036,1.878,1.7361,1.4907,1.4796,1.4019,1.2836,1.2852,1.2852,1.2836,1.2836,1.2836,1.2836,1.2836,1.2836,1.2856,1.3011,1.297,1.2885,3.0821,3.0387,2.9931,2.9623,2.8583,2.7828,2.8072,2.7186,2.6615,2.7042,2.6728,2.6697,2.7055,2.7205,2.7457,2.7896,2.885,2.9377,2.9264,2.9174,2.875,2.8023,2.715,2.6069,2.4777,2.433,2.3822,2.3237,2.3246,2.3301,2.3312,2.3662,2.391,2.4222,2.3896,2.4023,2.4394,2.4062,2.4062,2.4287,2.4385,2.4365,2.4287,2.4385,2.4687,2.5068,2.5068,2.5361,2.5791,2.6133,2.625,2.6299,2.6631,2.6807,2.6739,2.6219,2.5775,2.5094,2.3316,2.222,2.1373,2.0148,1.9652,1.9401,1.9352,1.9366,1.9366,1.9366,1.9366,1.9366,1.9366,1.9366,1.9366,1.9366,1.9366,1.9366,1.9366,1.9366,1.9392,1.9452,1.9659,1.9853,1.998,2.0408,2.0795,2.1089,2.1109,2.1109,2.1109,2.1109,2.1109,2.1109,2.1109,2.1109,2.1109,1.9686,1.9036,1.8908,1.6845,1.5424,1.4912,1.3896,1.3224,1.2844,1.2982,1.2962,1.2836,1.2836,1.2836,1.2836,1.2836,1.2836,1.284,1.2881,1.2869,1.2848,3.0762,3.019,2.9546,2.9156,2.8423,2.7858,2.7824,2.7525,2.7344,2.7632,2.7419,2.7356,2.7645,2.7908,2.8398,2.9227,3.0068,3.0444,3.0206,2.9905,2.9289,2.8433,2.7262,2.6389,2.5882,2.4892,2.419,2.381,2.4022,2.4055,2.3811,2.4067,2.4291,2.4404,2.4189,2.4326,2.4687,2.4053,2.4033,2.4414,2.4414,2.4541,2.4746,2.4961,2.5185,2.5391,2.5391,2.5674,2.6084,2.6309,2.6523,2.6728,2.6943,2.7158,2.7156,2.6194,2.5398,2.447,2.2581,2.1388,2.0479,1.9591,1.9366,1.9366,1.9366,1.9366,1.9366,1.9366,1.9366,1.9366,1.9366,1.9366,1.9366,1.9366,1.9366,1.9366,1.9366,1.9366,1.9466,1.9746,1.9913,2.0114,2.0394,2.0702,2.0949,2.1096,2.1109,2.1109,2.1109,2.1109,2.1109,2.1109,2.1109,2.0722,2.0068,1.878,1.781,1.7136,1.5603,1.4571,1.4007,1.3228,1.2966,1.2958,1.2966,1.2921,1.2836,1.2836,1.2836,1.2836,1.2836,1.2704,1.258,1.2797,1.2958,1.2817,3.0447,2.987,2.9198,2.8563,2.8277,2.8009,2.7603,2.7871,2.8134,2.8235,2.8247,2.8285,2.8386,2.8963,2.9767,3.0796,3.1286,3.1304,3.0804,3.0335,2.9515,2.8536,2.7236,2.6637,2.6784,2.5585,2.4802,2.4366,2.4653,2.4643,2.4275,2.4457,2.457,2.4639,2.4482,2.4658,2.501,2.416,2.4072,2.4531,2.4531,2.4795,2.5225,2.5596,2.5742,2.5742,2.5742,2.6016,2.6396,2.6475,2.6777,2.7139,2.7217,2.7367,2.7218,2.6032,2.4824,2.3503,2.207,2.0716,1.9707,1.9482,1.9366,1.9366,1.9366,1.9366,1.9379,1.9432,1.9406,1.9366,1.9366,1.9366,1.9366,1.9366,1.9366,1.9386,1.9432,1.9399,1.9586,2.0167,2.0274,2.0521,2.1056,2.1109,2.1109,2.1109,2.1109,2.1109,2.1109,2.1109,2.1109,2.1109,2.0849,2.0202,1.9036,1.749,1.618,1.5205,1.4744,1.4104,1.3088,1.2978,1.299,1.3088,1.3011,1.2954,1.2925,1.2893,1.2897,1.2921,1.2728,1.2592,1.2363,1.274,1.2917,1.2759,2.987,2.9156,2.8603,2.8396,2.7824,2.7738,2.8561,2.836,2.8285,2.875,2.8812,2.9013,2.9515,3.0457,3.1311,3.1938,3.2064,3.1928,3.1462,3.0593,2.9593,2.8381,2.7289,2.6599,2.6187,2.5982,2.5714,2.5278,2.4961,2.4868,2.4987,2.4951,2.5185,2.5527,2.4766,2.4658,2.501,2.416,2.4248,2.498,2.498,2.5244,2.5654,2.5713,2.5742,2.5742,2.5742,2.6016,2.6445,2.6807,2.7217,2.7637,2.8008,2.7261,2.6082,2.487,2.3343,2.1699,2.0486,1.9822,1.9482,1.9366,1.9366,1.9366,1.9366,1.9366,1.9439,1.9686,1.9539,1.9366,1.9366,1.9366,1.9366,1.9366,1.9366,1.9452,1.9706,1.9526,1.9586,2.0167,2.0461,2.0748,2.1076,2.1109,2.1109,2.1109,2.1109,2.1109,2.1109,2.1109,2.1109,2.1109,1.9941,1.9164,1.9036,1.6457,1.5138,1.5205,1.3703,1.3058,1.3096,1.3238,1.3222,1.3112,1.3409,1.3445,1.3287,1.3124,1.3153,1.3267,1.2559,1.2398,1.2507,1.2121,1.1946,1.1943,3.0129,2.9411,2.8847,2.8765,2.8209,2.8009,2.88,2.9001,2.9252,2.9804,3.0118,3.0394,3.0658,3.1386,3.1951,3.219,3.2503,3.2352,3.14,3.0477,2.9364,2.81,2.7013,2.6249,2.5744,2.5789,2.57,2.5267,2.5326,2.5222,2.5068,2.5322,2.541,2.5352,2.4951,2.5019,2.5381,2.4512,2.4648,2.542,2.5166,2.5332,2.5742,2.5742,2.5742,2.5762,2.6016,2.6533,2.7129,2.7314,2.7666,2.7931,2.722,2.6599,2.5709,2.3623,2.2379,2.1365,2.0148,1.9591,1.9366,1.9366,1.9366,1.9412,1.9573,1.9486,1.9406,1.9533,1.9586,1.9559,1.9399,1.9366,1.9419,1.9586,1.9606,1.9713,2.0,1.9927,2.0007,2.0428,2.0742,2.0969,2.1096,2.1109,2.1109,2.1109,2.1109,2.1109,2.1109,2.1109,2.1109,2.1109,1.9686,1.8652,1.7876,1.5944,1.4677,1.4183,1.3232,1.3035,1.3392,1.3173,1.3193,1.3401,1.3356,1.3352,1.3356,1.3034,1.2871,1.2918,1.2269,1.2086,1.201,1.1405,1.1516,1.178]}]]